[[{"header":{"parameterUnit":"m.s-1","parameterCategory":1,"la1":30.6,"la2":29.2853,"lo1":-89.7004,"lo2":-87.6739,"dx":0.0162,"dy":0.0183,"nx":112,"ny":82,"refTime":"2023-01-14T06:00:00:Z","depth":0,"parameterNumber":2,"parameterNumberName":"U-component_of_WINDS"},"data":[0.0,0.0,0.0,0.0,0.0,0.0,0.0,0.0,0.0,0.0,0.0,0.0,0.0,0.0,0.0,0.0,0.0,0.0,0.0,0.0,0.0,0.0,0.0,0.0,0.0,0.0,0.0,0.0,0.0,0.0,0.0,0.0,0.0,0.0,0.0,0.0,0.0,0.0,0.0,0.0,0.0,0.0,0.0,0.0,0.0,0.0,0.0,0.0,0.0,0.0,0.0,0.0,0.0,0.0,0.0,0.0,0.0,0.0,0.0,0.0,0.0,0.0,0.0,0.0,0.0,0.0,0.0,0.0,0.0,0.0,0.0,0.0,0.0,0.0,0.0,0.0,0.0,0.0,0.0,0.0,0.0,0.0,0.0,0.0,0.0,0.0,0.0,0.0,0.0,0.0,-3.5152,-3.5534,-3.5343,-3.5564,-3.6443,-3.6596,-3.5564,-3.289,0.0,0.0,0.0,0.0,0.0,0.0,0.0,0.0,0.0,0.0,0.0,0.0,0.0,0.0,0.0,0.0,0.0,0.0,0.0,0.0,0.0,0.0,0.0,0.0,0.0,0.0,0.0,0.0,0.0,0.0,0.0,0.0,0.0,0.0,0.0,0.0,0.0,0.0,0.0,0.0,0.0,0.0,0.0,0.0,0.0,0.0,0.0,0.0,0.0,0.0,0.0,0.0,0.0,0.0,0.0,0.0,0.0,0.0,0.0,0.0,0.0,0.0,0.0,0.0,0.0,0.0,0.0,0.0,0.0,0.0,0.0,0.0,0.0,0.0,0.0,0.0,0.0,0.0,0.0,0.0,0.0,0.0,0.0,0.0,0.0,0.0,0.0,0.0,0.0,0.0,0.0,0.0,0.0,0.0,0.0,0.0,0.0,0.0,0.0,0.0,0.0,0.0,0.0,0.0,-3.4999,-3.7101,-3.6069,-3.5564,-3.6443,-3.7139,-3.6146,-3.289,0.0,0.0,0.0,0.0,0.0,0.0,0.0,0.0,0.0,0.0,0.0,0.0,0.0,0.0,0.0,0.0,0.0,0.0,0.0,0.0,0.0,0.0,0.0,0.0,0.0,0.0,0.0,0.0,0.0,0.0,0.0,0.0,0.0,0.0,0.0,0.0,0.0,0.0,0.0,0.0,0.0,0.0,0.0,0.0,0.0,0.0,0.0,0.0,0.0,0.0,0.0,0.0,0.0,0.0,0.0,0.0,0.0,0.0,0.0,0.0,0.0,0.0,0.0,0.0,0.0,0.0,0.0,0.0,0.0,0.0,0.0,0.0,0.0,0.0,0.0,0.0,0.0,0.0,0.0,0.0,0.0,0.0,0.0,0.0,0.0,0.0,0.0,0.0,0.0,0.0,0.0,0.0,0.0,0.0,0.0,0.0,0.0,0.0,0.0,0.0,0.0,0.0,0.0,-3.4846,-3.6948,-3.7636,-3.7024,-3.6719,-3.7139,-3.7903,-3.6757,-3.2928,-3.2355,0.0,0.0,0.0,0.0,0.0,0.0,0.0,0.0,0.0,0.0,0.0,0.0,0.0,0.0,0.0,0.0,0.0,0.0,0.0,0.0,0.0,0.0,0.0,0.0,0.0,0.0,0.0,0.0,0.0,0.0,0.0,0.0,0.0,0.0,0.0,0.0,0.0,0.0,0.0,0.0,0.0,0.0,0.0,0.0,0.0,0.0,0.0,0.0,0.0,0.0,0.0,0.0,0.0,0.0,0.0,0.0,0.0,0.0,0.0,0.0,0.0,0.0,0.0,0.0,0.0,0.0,0.0,0.0,0.0,0.0,0.0,0.0,0.0,0.0,0.0,0.0,0.0,0.0,0.0,0.0,0.0,0.0,0.0,0.0,0.0,0.0,0.0,0.0,0.0,0.0,0.0,0.0,0.0,0.0,0.0,0.0,0.0,0.0,0.0,0.0,0.0,0.0,-3.691,-3.8744,-3.8094,-3.7827,-3.7712,-3.7712,-3.8514,-3.7215,-3.2967,-3.2699,0.0,0.0,0.0,0.0,0.0,0.0,0.0,0.0,0.0,0.0,0.0,0.0,0.0,0.0,0.0,0.0,0.0,0.0,0.0,0.0,0.0,0.0,0.0,0.0,0.0,0.0,0.0,0.0,0.0,0.0,0.0,0.0,0.0,0.0,0.0,0.0,0.0,0.0,0.0,0.0,0.0,0.0,0.0,0.0,0.0,0.0,0.0,0.0,0.0,0.0,0.0,0.0,0.0,0.0,0.0,0.0,0.0,0.0,0.0,0.0,0.0,0.0,0.0,0.0,0.0,0.0,0.0,0.0,0.0,0.0,0.0,0.0,0.0,0.0,0.0,0.0,0.0,0.0,0.0,0.0,0.0,0.0,0.0,0.0,0.0,0.0,0.0,0.0,0.0,0.0,0.0,0.0,0.0,0.0,0.0,0.0,0.0,0.0,0.0,0.0,0.0,0.0,-3.691,-3.8973,-3.8935,-3.8171,-3.7712,-3.7712,-3.8514,-3.7215,-3.2967,-3.2699,0.0,0.0,0.0,0.0,0.0,0.0,0.0,0.0,0.0,0.0,0.0,0.0,0.0,0.0,0.0,0.0,0.0,0.0,0.0,0.0,0.0,0.0,0.0,0.0,0.0,0.0,0.0,0.0,0.0,0.0,0.0,0.0,0.0,0.0,0.0,0.0,0.0,0.0,0.0,0.0,0.0,0.0,0.0,0.0,0.0,0.0,0.0,0.0,0.0,0.0,0.0,0.0,0.0,0.0,0.0,0.0,0.0,0.0,0.0,0.0,0.0,0.0,0.0,0.0,0.0,0.0,0.0,0.0,0.0,0.0,0.0,0.0,0.0,0.0,0.0,0.0,0.0,0.0,0.0,0.0,0.0,0.0,0.0,0.0,0.0,0.0,0.0,0.0,0.0,0.0,0.0,0.0,0.0,0.0,0.0,0.0,0.0,0.0,0.0,0.0,0.0,0.0,-3.7054,-3.9623,-3.9049,-3.9202,-3.9088,-3.8553,-3.9317,-3.8018,-3.3777,0.0,0.0,0.0,0.0,0.0,0.0,0.0,0.0,0.0,0.0,0.0,0.0,0.0,0.0,0.0,0.0,0.0,0.0,0.0,0.0,0.0,0.0,0.0,0.0,0.0,0.0,0.0,0.0,0.0,0.0,0.0,0.0,0.0,0.0,0.0,0.0,0.0,0.0,0.0,0.0,0.0,0.0,0.0,0.0,0.0,0.0,0.0,0.0,0.0,0.0,0.0,0.0,0.0,0.0,0.0,0.0,0.0,0.0,0.0,0.0,0.0,0.0,0.0,0.0,0.0,0.0,0.0,0.0,0.0,0.0,0.0,0.0,0.0,0.0,0.0,0.0,0.0,0.0,0.0,0.0,0.0,0.0,0.0,0.0,0.0,0.0,0.0,0.0,0.0,0.0,0.0,0.0,0.0,0.0,0.0,0.0,0.0,0.0,0.0,0.0,0.0,0.0,-3.3501,-3.7474,-4.0072,-3.947,-3.9919,-4.0072,-3.947,-3.9957,-3.8735,-3.5037,0.0,0.0,0.0,0.0,0.0,0.0,0.0,0.0,0.0,0.0,0.0,0.0,0.0,0.0,0.0,0.0,0.0,0.0,0.0,0.0,0.0,0.0,0.0,0.0,0.0,0.0,0.0,0.0,0.0,0.0,0.0,0.0,0.0,0.0,0.0,0.0,0.0,0.0,0.0,0.0,0.0,0.0,0.0,0.0,0.0,0.0,0.0,0.0,0.0,0.0,0.0,0.0,0.0,0.0,0.0,0.0,0.0,0.0,0.0,0.0,0.0,0.0,0.0,0.0,0.0,0.0,0.0,0.0,0.0,0.0,0.0,0.0,0.0,0.0,0.0,0.0,0.0,0.0,0.0,0.0,0.0,0.0,0.0,0.0,0.0,0.0,0.0,0.0,0.0,0.0,0.0,0.0,0.0,0.0,0.0,0.0,0.0,0.0,0.0,0.0,0.0,0.0,-3.5229,-3.82,-4.0301,-4.0301,-4.0301,-4.0301,-4.0301,-4.0301,-3.9231,0.0,0.0,0.0,0.0,0.0,0.0,0.0,0.0,0.0,0.0,0.0,0.0,0.0,0.0,0.0,0.0,0.0,0.0,0.0,0.0,0.0,0.0,0.0,0.0,0.0,0.0,0.0,0.0,0.0,0.0,0.0,0.0,0.0,0.0,0.0,0.0,0.0,0.0,0.0,0.0,0.0,0.0,0.0,0.0,0.0,0.0,0.0,0.0,0.0,0.0,0.0,0.0,0.0,0.0,0.0,0.0,0.0,0.0,0.0,0.0,0.0,0.0,0.0,0.0,0.0,0.0,0.0,0.0,0.0,0.0,0.0,0.0,0.0,0.0,0.0,0.0,0.0,0.0,0.0,0.0,0.0,0.0,0.0,0.0,0.0,0.0,0.0,0.0,0.0,0.0,0.0,0.0,0.0,0.0,0.0,0.0,0.0,0.0,0.0,0.0,0.0,0.0,0.0,-3.6023,-3.8582,-4.053,-4.1074,-4.1151,-4.1151,-4.1151,-4.1151,-4.031,-3.84,0.0,0.0,0.0,0.0,0.0,0.0,0.0,0.0,0.0,0.0,0.0,0.0,0.0,0.0,0.0,0.0,0.0,0.0,0.0,0.0,0.0,0.0,0.0,0.0,0.0,0.0,0.0,0.0,0.0,0.0,0.0,0.0,0.0,0.0,0.0,0.0,0.0,0.0,0.0,0.0,0.0,0.0,0.0,0.0,0.0,0.0,0.0,0.0,0.0,0.0,0.0,0.0,0.0,0.0,0.0,0.0,0.0,0.0,0.0,0.0,0.0,0.0,0.0,0.0,0.0,0.0,0.0,0.0,0.0,0.0,0.0,0.0,0.0,0.0,0.0,0.0,0.0,0.0,0.0,0.0,0.0,0.0,0.0,0.0,0.0,0.0,0.0,0.0,0.0,0.0,0.0,0.0,0.0,0.0,0.0,0.0,0.0,0.0,0.0,0.0,0.0,0.0,-3.7321,-3.9431,-4.1227,-4.2374,-4.2221,-4.2297,-4.2947,-4.2068,-4.1074,-4.0043,0.0,0.0,0.0,0.0,0.0,0.0,0.0,0.0,0.0,0.0,0.0,0.0,0.0,0.0,0.0,0.0,0.0,0.0,0.0,0.0,0.0,0.0,0.0,0.0,0.0,0.0,0.0,0.0,0.0,0.0,0.0,0.0,0.0,0.0,0.0,0.0,0.0,0.0,0.0,0.0,0.0,0.0,0.0,0.0,0.0,0.0,0.0,0.0,0.0,0.0,0.0,0.0,0.0,0.0,0.0,0.0,0.0,0.0,0.0,0.0,0.0,0.0,0.0,0.0,0.0,0.0,0.0,0.0,0.0,0.0,0.0,0.0,0.0,0.0,0.0,0.0,0.0,0.0,0.0,0.0,0.0,0.0,0.0,0.0,0.0,0.0,0.0,0.0,0.0,0.0,0.0,0.0,0.0,0.0,0.0,0.0,0.0,0.0,0.0,0.0,0.0,0.0,-3.8935,-4.0501,-4.2144,-4.3815,-4.3405,-4.3634,-4.5173,-4.31,-4.1724,-4.1724,0.0,0.0,0.0,0.0,0.0,0.0,0.0,0.0,0.0,0.0,0.0,0.0,0.0,0.0,0.0,0.0,0.0,0.0,0.0,0.0,0.0,0.0,0.0,0.0,0.0,0.0,0.0,0.0,0.0,0.0,0.0,0.0,0.0,0.0,0.0,0.0,0.0,0.0,0.0,0.0,0.0,0.0,0.0,0.0,0.0,0.0,0.0,0.0,0.0,0.0,0.0,0.0,0.0,0.0,0.0,0.0,0.0,0.0,0.0,0.0,-3.7109,-3.4442,0.0,0.0,0.0,0.0,0.0,0.0,0.0,0.0,0.0,0.0,0.0,0.0,0.0,0.0,0.0,0.0,0.0,0.0,0.0,0.0,0.0,0.0,0.0,0.0,0.0,0.0,0.0,0.0,0.0,0.0,0.0,0.0,0.0,0.0,0.0,0.0,0.0,0.0,0.0,0.0,-3.9995,-4.0883,-4.2144,-4.3815,-4.4475,-4.4895,-4.5288,-4.4169,-4.3472,-4.3472,-4.1485,0.0,0.0,0.0,0.0,0.0,0.0,0.0,0.0,0.0,0.0,0.0,0.0,0.0,0.0,0.0,0.0,0.0,0.0,0.0,0.0,0.0,0.0,0.0,0.0,0.0,0.0,0.0,0.0,0.0,0.0,0.0,0.0,0.0,0.0,0.0,0.0,0.0,0.0,0.0,0.0,0.0,0.0,0.0,0.0,0.0,0.0,0.0,0.0,0.0,0.0,0.0,0.0,0.0,0.0,0.0,0.0,0.0,0.0,0.0,-3.9564,-3.7233,0.0,0.0,0.0,0.0,0.0,0.0,0.0,0.0,0.0,0.0,0.0,0.0,0.0,0.0,0.0,0.0,0.0,0.0,0.0,0.0,0.0,0.0,0.0,0.0,0.0,0.0,0.0,0.0,0.0,0.0,0.0,0.0,0.0,0.0,0.0,0.0,0.0,0.0,0.0,0.0,-4.0883,-4.2297,-4.3825,-4.5076,-4.5965,-4.6653,-4.7084,-4.5583,-4.4628,-4.4628,-4.3013,0.0,0.0,0.0,0.0,0.0,0.0,0.0,0.0,0.0,0.0,0.0,0.0,0.0,0.0,0.0,0.0,0.0,0.0,0.0,0.0,0.0,0.0,0.0,0.0,0.0,0.0,0.0,0.0,0.0,0.0,0.0,0.0,0.0,0.0,0.0,0.0,0.0,0.0,0.0,0.0,0.0,0.0,0.0,0.0,0.0,0.0,0.0,0.0,0.0,0.0,0.0,0.0,0.0,-4.1801,-4.2094,-4.2058,-4.2872,-4.3608,-4.4093,-4.1189,-3.9841,-3.9584,-3.8706,0.0,0.0,0.0,0.0,0.0,0.0,0.0,0.0,0.0,0.0,0.0,0.0,0.0,0.0,0.0,0.0,0.0,0.0,0.0,0.0,0.0,0.0,0.0,0.0,-4.0425,-4.1122,-3.8194,0.0,0.0,0.0,0.0,0.0,0.0,0.0,0.0,0.0,0.0,0.0,-4.1762,-4.3825,-4.5621,-4.6424,-4.7417,-4.8334,-4.9033,-4.7035,-4.566,-4.5507,-4.4551,-4.3166,0.0,0.0,0.0,0.0,0.0,0.0,0.0,0.0,0.0,0.0,0.0,0.0,0.0,0.0,0.0,0.0,0.0,0.0,0.0,0.0,0.0,0.0,0.0,0.0,0.0,0.0,0.0,0.0,0.0,0.0,0.0,0.0,-3.5094,-3.4432,0.0,0.0,0.0,0.0,0.0,0.0,0.0,0.0,0.0,0.0,0.0,0.0,0.0,-4.1638,-4.2326,-4.2492,-4.2964,-4.3704,-4.3743,-4.38,-4.3781,-4.4671,-4.5072,-4.5048,-4.3864,0.0,-4.2221,-4.1342,0.0,0.0,0.0,0.0,0.0,0.0,0.0,0.0,0.0,0.0,0.0,0.0,0.0,0.0,0.0,0.0,0.0,0.0,0.0,0.0,0.0,0.0,-4.3433,-4.3204,-4.3433,-4.3548,0.0,-4.1265,-3.97,-3.9452,-3.9481,0.0,0.0,0.0,0.0,0.0,0.0,0.0,-4.2832,-4.4169,-4.5621,-4.6424,-4.7952,-4.8995,-4.911,-4.8105,-4.7139,-4.6385,-4.4885,-4.4197,-4.4628,-4.2259,0.0,0.0,0.0,0.0,0.0,0.0,0.0,0.0,0.0,0.0,0.0,0.0,0.0,0.0,0.0,0.0,0.0,0.0,0.0,0.0,0.0,0.0,0.0,0.0,0.0,0.0,0.0,0.0,0.0,-3.4549,-3.5291,-3.5408,-3.6189,-3.6524,0.0,0.0,0.0,0.0,0.0,0.0,0.0,0.0,0.0,-4.1931,-4.3239,-4.4115,-4.4444,-4.4917,-4.5581,-4.6398,-4.6311,-4.6271,-4.624,-4.6592,-4.6713,-4.6691,-4.6298,-4.5955,-4.5468,-4.3673,-4.2221,-4.1151,0.0,0.0,0.0,0.0,-3.9728,-3.9852,-4.0692,-4.096,-4.1074,-4.1571,0.0,0.0,0.0,0.0,0.0,0.0,0.0,0.0,0.0,0.0,-4.4743,-4.4743,-4.435,-4.4274,-4.5191,-4.4541,-4.3367,0.0,-4.2058,-4.2555,-4.3138,0.0,0.0,0.0,0.0,-4.5545,-4.436,-4.566,-4.7035,-4.7876,-4.906,-4.9786,-4.9786,-4.9022,-4.8372,-4.799,-4.6347,-4.5354,-4.5288,-4.3802,-4.2502,0.0,0.0,0.0,0.0,0.0,0.0,0.0,0.0,0.0,0.0,0.0,0.0,0.0,0.0,0.0,0.0,0.0,0.0,0.0,0.0,0.0,0.0,0.0,0.0,0.0,0.0,0.0,0.0,-3.5946,-3.6719,-3.6912,-3.8085,-3.8731,0.0,0.0,0.0,0.0,0.0,0.0,-4.2701,-4.3162,-4.3624,-4.4047,-4.547,-4.6355,-4.6529,-4.6991,-4.7569,-4.8355,-4.8084,-4.7928,-4.7865,-4.781,-4.7788,-4.7788,-4.7788,-4.7788,-4.7635,-4.5496,-4.4169,-4.3443,-4.3443,-4.2908,-4.2106,-4.1724,-4.1571,-4.1648,-4.2259,-4.245,-4.2603,-4.3482,-4.3902,-4.4093,-4.4093,0.0,0.0,0.0,0.0,-4.5201,-4.4732,-4.5125,-4.5698,-4.6167,-4.5774,-4.566,-4.6882,-4.7188,-4.65,0.0,-4.4388,-4.5305,-4.6309,0.0,0.0,-4.6768,-4.7035,-4.6882,-4.6042,-4.7226,-4.8372,-4.9033,-4.9824,-5.0283,-5.0283,-4.9748,-4.9339,-4.911,-4.7876,-4.6691,-4.566,-4.5317,-4.4271,-4.2366,0.0,0.0,0.0,0.0,0.0,0.0,0.0,0.0,0.0,0.0,0.0,0.0,0.0,0.0,0.0,0.0,0.0,0.0,0.0,0.0,0.0,0.0,0.0,0.0,0.0,0.0,0.0,0.0,0.0,-3.9698,-4.1692,0.0,0.0,0.0,0.0,-4.4189,-4.2687,-4.2816,-4.5287,-4.4662,-4.5009,-4.6654,-4.7548,-4.8327,-4.9114,-4.8394,-4.8383,-4.9045,-4.828,-4.7865,-4.7799,-4.7788,-4.7788,-4.7788,-4.7788,-4.7788,-4.7712,-4.6768,-4.5889,-4.5173,-4.5173,-4.4628,-4.3968,-4.4743,-4.5048,-4.5048,-4.5097,-4.5097,-4.5239,-4.6042,-4.6882,-4.7559,-4.7559,-4.6959,0.0,0.0,-4.5812,-4.5468,-4.6194,-4.6424,-4.6844,-4.8536,-4.888,-4.888,-4.8957,-4.8957,-4.8449,0.0,-4.6986,-4.7368,-4.6615,0.0,-4.864,-4.7826,-4.8449,-4.864,-4.7788,-4.8487,-4.9071,-4.911,-4.9824,-5.0283,-5.0283,-5.0245,-4.9901,-4.9148,-4.9033,-4.822,-4.65,-4.5698,-4.5239,-4.5086,-4.1843,0.0,0.0,0.0,0.0,0.0,0.0,0.0,0.0,0.0,0.0,0.0,0.0,0.0,0.0,0.0,0.0,0.0,0.0,0.0,0.0,0.0,0.0,0.0,0.0,0.0,0.0,0.0,0.0,-4.1434,-4.2724,0.0,-4.3763,-4.401,-4.4471,-4.5171,-4.512,-4.5701,-4.7124,-4.7432,-4.7625,-4.7663,-4.8509,-4.9058,-4.9306,-4.8999,-4.9238,-5.0008,-4.9669,-4.9521,-4.9449,-4.9415,-4.9404,-4.9404,-4.9404,-4.9404,-4.9328,-4.8525,-4.7685,-4.6959,-4.7532,-4.7226,-4.6489,-4.6806,-4.692,-4.692,-4.692,-4.692,-4.6959,-4.7253,-4.7559,-4.7788,-4.7788,-4.7559,-4.733,-4.733,-4.7532,-4.781,-4.8105,-4.8181,-4.8449,-4.9595,-4.948,-4.9251,-4.9748,-4.9862,-4.9671,-4.906,-4.8793,-4.9022,-5.0321,-5.0627,-5.0779,-5.1009,-5.0856,-5.0588,-5.0271,-5.0512,-5.0894,-5.1429,-5.1735,-5.1926,-5.1926,-5.1926,-5.1773,-5.1505,-5.0474,-4.9595,-4.8984,-4.7541,-4.6542,-4.6008,-4.4703,-4.3827,0.0,0.0,0.0,0.0,0.0,0.0,0.0,0.0,0.0,0.0,0.0,0.0,0.0,0.0,0.0,0.0,0.0,0.0,0.0,0.0,0.0,0.0,0.0,0.0,0.0,-4.1136,-4.2568,-4.3153,-4.4189,-4.5078,-4.5507,-4.572,-4.6157,-4.6891,-4.716,-4.7663,-4.8509,-4.9086,-4.9125,-4.8548,-4.9375,-4.9779,-4.9759,-4.9739,-5.0026,-5.0532,-5.0489,-5.0446,-5.0401,-5.0367,-5.0333,-5.0283,-5.0283,-5.0283,-5.0245,-4.971,-4.9175,-4.8678,-4.8984,-4.8754,-4.8258,-4.8258,-4.8258,-4.822,-4.7903,-4.7979,-4.8258,-4.8258,-4.8411,-4.8629,-4.8629,-4.8629,-4.8629,-4.8629,-4.8869,-4.9148,-4.9442,-4.9301,-4.9301,-5.0092,-4.9901,-4.9633,-5.0168,-5.0283,-5.0397,-5.0665,-5.0321,-5.0474,-5.2117,-5.2193,-5.2384,-5.3492,-5.2728,-5.2231,-5.2805,-5.2384,-5.2193,-5.2728,-5.2805,-5.2805,-5.2805,-5.3874,-5.4027,-5.2881,-5.2843,-5.2231,-5.0818,-5.0403,-4.9681,-4.8516,-4.8087,-4.6985,-4.5205,0.0,0.0,0.0,0.0,0.0,0.0,0.0,0.0,0.0,0.0,0.0,0.0,0.0,0.0,0.0,0.0,0.0,0.0,0.0,0.0,0.0,0.0,0.0,-4.1343,-4.3331,-4.489,-4.4929,-4.6289,-4.7268,-4.7268,-4.7882,-4.8647,-4.9529,-4.8686,-4.8509,-4.9394,-4.9433,-4.9433,-4.9433,-5.0191,-5.0653,-5.0702,-5.0653,-5.0612,-5.0573,-5.0573,-5.0511,-5.0401,-5.0401,-5.0367,-5.0283,-5.0283,-5.0283,-5.0283,-5.0283,-5.0283,-5.0206,-4.9442,-4.9148,-4.9148,-4.9148,-4.9148,-4.9033,-4.8181,-4.8449,-4.9148,-4.9148,-4.9671,-5.0283,-5.0283,-5.0283,-5.0283,-5.0283,-4.9748,-4.9339,-5.0092,-4.971,-4.9328,-5.0092,-5.0283,-5.0283,-5.0283,-5.0283,-5.055,-5.1391,-5.157,-5.162,-5.1658,-5.2346,-5.3454,-5.5135,-5.3951,0.0,-5.5174,-5.3913,-5.2919,-5.2996,-5.2996,-5.2996,-5.2996,-5.6014,-5.6473,-5.311,-5.5976,-5.5938,-5.1849,-5.4027,-5.4447,-5.2547,-5.1537,-4.9487,-4.6266,0.0,0.0,0.0,0.0,0.0,0.0,0.0,0.0,0.0,0.0,0.0,0.0,0.0,0.0,0.0,0.0,0.0,0.0,0.0,0.0,0.0,-4.3567,-4.4192,-4.3957,-4.5586,-4.7062,-4.7648,-4.8057,-4.8487,-4.9038,-4.8593,-4.8639,-4.94,-4.9191,-4.9433,-5.0289,-5.0327,-5.0327,-5.0327,-5.0577,-5.0673,-5.0642,-5.0622,-5.0542,-5.0457,-5.0457,-5.0412,-5.0344,-5.0344,-5.0333,-5.0283,-5.0283,-5.0283,-5.0283,-5.0283,-5.0283,-5.0283,-5.0054,-4.9977,-4.9977,-4.9977,-4.9977,-4.9939,-4.971,-4.9786,-4.9977,-4.9977,-5.013,-5.0283,-5.0283,-5.0283,-5.0283,-5.0283,-5.013,-5.0015,-5.0245,-5.013,-5.0015,-5.0245,-5.0283,-5.0283,-5.0283,-5.0283,-5.0359,-5.0627,-5.1162,-5.2002,-5.3187,-5.4104,-5.4868,-5.5326,-5.4982,0.0,-5.5326,-5.4982,-5.5365,-5.7199,-5.739,-5.739,-5.739,-5.823,-5.7619,-5.4868,-5.4982,-5.4639,-5.3454,-5.3492,-5.2666,-5.0837,-5.0426,-4.9487,0.0,0.0,0.0,0.0,0.0,0.0,0.0,0.0,0.0,0.0,0.0,0.0,0.0,0.0,0.0,0.0,0.0,0.0,0.0,0.0,0.0,0.0,-4.5792,-4.6573,-4.6573,-4.7157,-4.801,-4.912,-4.9212,-4.9308,-4.9698,-4.9467,-4.9474,-4.9904,-4.9933,-5.0173,-5.0673,-5.0712,-5.0712,-5.0712,-5.0682,-5.0663,-5.0653,-5.0594,-5.0563,-5.0521,-5.0489,-5.0637,-5.0887,-5.0903,-5.1071,-5.1353,-5.1353,-5.1353,-5.1314,-5.0971,-5.0856,0.0,0.0,0.0,0.0,0.0,-5.0283,-5.0283,-5.0283,-5.0283,-5.0283,-5.0283,-5.0283,-5.0283,-5.0283,-5.0283,-5.0283,-5.0283,-5.0283,-5.0283,-5.0283,-5.0283,-5.0283,-5.0283,-5.0588,-5.0856,-5.0856,-5.1123,-5.1353,-5.1353,-5.204,0.0,-5.3913,-5.4524,-5.5212,-5.6282,-5.5861,-5.567,-5.6358,-5.5823,-5.5938,-5.739,-5.7542,-5.7542,-5.7542,-5.8842,0.0,0.0,0.0,-5.6587,-5.6205,-5.53,0.0,0.0,0.0,-5.1163,-4.9328,0.0,0.0,0.0,-4.6739,-4.6293,0.0,0.0,0.0,0.0,0.0,0.0,0.0,0.0,0.0,0.0,0.0,0.0,0.0,0.0,0.0,0.0,-4.79,-4.8876,-4.9072,-4.8408,-4.8389,-4.973,-4.9907,-4.9899,-4.9745,-5.0314,-5.0712,-5.0712,-5.0712,-5.0712,-5.0712,-5.0712,0.0,0.0,0.0,-5.0806,-5.0981,-5.0922,-5.0922,-5.0962,-5.0901,-5.1222,-5.1809,-5.1802,-5.2176,-5.2805,-5.2805,-5.2805,-5.2728,-5.204,-5.1735,-5.1658,-5.0665,-5.0283,-5.0283,-5.0283,-5.0283,-5.0283,-5.0283,0.0,0.0,-5.0283,-5.0283,-5.0283,-5.0283,-5.0283,-5.0283,-5.0283,-5.0283,-5.0283,-5.0283,-5.0283,-5.0283,-5.0283,-5.0894,-5.1455,-5.1455,-5.2079,-5.2652,-5.2652,-5.3339,-5.3989,-5.4065,-5.418,-5.5021,-5.7275,-5.6358,-5.5938,-5.7428,-5.632,-5.5517,-5.5785,0.0,0.0,-5.5823,-5.8536,-5.8842,-5.5632,-5.8192,-5.9491,-5.87,-5.7735,-5.692,-5.628,-5.5306,-5.3427,-5.0541,-4.9828,-4.9326,-4.9045,-4.94,-4.8824,0.0,0.0,0.0,0.0,0.0,0.0,0.0,0.0,0.0,0.0,0.0,0.0,0.0,0.0,0.0,-4.9109,-4.9032,-4.9306,-5.0711,-5.0163,-4.9677,-4.9886,-5.0413,-5.0759,-5.065,-5.067,-5.0712,-5.0712,-5.0712,-5.0712,-5.0712,-5.0712,-5.101,-5.1654,-5.1644,-5.199,-5.2702,-5.2692,-5.2641,-5.2565,0.0,0.0,-5.2573,-5.26,-5.2664,-5.2805,-5.2805,-5.2805,-5.2805,-5.2614,-5.2575,-5.2422,-5.0894,-5.0283,-5.0283,-5.0283,-5.0283,-5.0283,-5.0283,-5.0283,-5.0283,-5.0283,-5.0283,-5.0283,-5.0283,-5.0283,0.0,-5.0283,-5.0283,-5.0283,-5.0283,-5.0283,-5.0283,-5.0283,-5.0436,-5.055,-5.055,-5.1238,-5.1849,-5.1849,-5.2499,-5.3263,-5.3989,-5.4677,-5.5326,-5.5823,-5.5632,-5.5517,-5.5861,-5.5594,-5.6167,-5.8178,-5.8369,-5.8369,-5.8369,-5.8994,-5.823,-5.5594,-5.6014,-5.6229,-5.5892,-5.5159,-5.4585,-5.4202,-5.3473,-5.2713,-5.1985,-5.1833,-5.173,-5.1637,-4.9687,-4.8905,0.0,0.0,0.0,0.0,0.0,0.0,0.0,0.0,0.0,0.0,0.0,-4.6378,-4.6807,0.0,-5.0438,-5.1258,-5.1023,-5.1063,-5.1921,-5.1238,-5.0605,-5.0481,-5.077,-5.0966,-5.0808,-5.073,-5.0712,-5.0712,-5.0712,-5.0856,-5.1279,-5.1318,-5.1664,-5.25,-5.2538,-5.2779,-5.3203,-5.3172,-5.3129,-5.3037,-5.297,-5.3142,-5.3503,-5.3466,-5.3683,-5.4104,-5.4104,-5.4104,-5.4065,-5.3645,-5.3187,-5.2728,-5.1888,-5.1544,-5.1544,-5.1544,-5.1544,-5.1544,-5.1544,-5.1544,-5.1544,-5.1544,-5.1544,-5.1544,-5.1544,-5.1544,-5.1544,-5.1544,-5.1544,-5.1658,-5.2079,-5.2193,-5.2308,-5.2766,-5.3148,-5.3339,-5.2957,-5.3492,-5.3989,-5.3569,-5.3645,-5.3933,-5.439,-5.4681,-5.4985,-5.5351,-5.5403,-5.5403,-5.5403,-5.5403,-5.5861,-5.7122,-5.7275,-5.7275,-5.7275,-5.7275,-5.6727,-5.5479,-5.5403,-5.5364,-5.526,-5.4944,-5.446,-5.387,-5.3518,-5.3098,-5.2614,-5.2534,-5.2451,-5.2381,-5.1008,-5.0552,0.0,0.0,0.0,0.0,0.0,0.0,0.0,-4.4075,-4.4699,-4.5558,-4.7627,-4.9306,-4.9306,-5.1297,-5.2899,-5.2743,-5.2704,-5.2704,-5.2704,-5.1837,-5.1287,-5.1486,-5.1178,-5.0903,-5.0702,-5.0827,-5.0933,-5.0933,-5.125,-5.1664,-5.2115,-5.2308,-5.2741,-5.3433,-5.3433,-5.3549,-5.3664,-5.3612,-5.358,-5.3547,-5.3457,-5.3781,-5.4433,-5.4396,-5.4753,-5.5403,-5.5403,-5.5403,-5.5365,-5.4639,-5.3951,-5.3301,-5.3301,-5.3301,-5.3263,-5.2919,-5.2805,-5.2805,-5.2805,-5.2805,-5.2805,-5.2805,-5.2805,-5.2805,-5.2805,-5.2805,-5.2843,-5.2996,-5.3034,-5.3225,-5.3913,-5.4218,-5.4486,-5.5021,-5.5785,-5.6205,-5.5556,-5.6014,-5.6383,-5.5668,-5.5385,-5.5269,-5.5192,-5.4952,-5.4856,-5.5123,-5.5246,-5.526,-5.5206,-5.5286,-5.5377,-5.5286,-5.5364,-5.5403,-5.5403,-5.5403,-5.5403,-5.5403,-5.5403,-5.539,-5.5326,-5.539,-5.5046,-5.4295,-5.432,-5.4027,-5.3301,-5.3187,-5.3107,-5.2997,-5.283,-5.2598,-4.1285,-4.1514,-4.2643,-4.4164,-4.5135,-4.6144,0.0,-4.7627,-4.7393,-4.8213,-4.9813,-5.1102,-5.1102,-5.2624,-5.36,-5.2821,-5.2704,-5.2704,-5.2704,-5.1837,-5.1715,-5.3124,-5.1876,-5.0866,-5.0693,-5.1356,-5.1769,-5.1769,-5.3203,-5.378,-5.3087,-5.378,-5.4241,-5.4357,-5.4357,-5.4703,-5.5395,-5.5395,-5.533,-5.5228,-5.5205,-5.5222,-5.525,-5.525,-5.5326,-5.5403,-5.5403,-5.5403,-5.5403,-5.5288,-5.5212,-5.5097,-5.5097,-5.5097,-5.4906,-5.3378,-5.2805,-5.2805,-5.2805,-5.2805,-5.2805,-5.2805,-5.2805,-5.2805,-5.2805,-5.2805,-5.2957,-5.3722,-5.3951,-5.3989,-5.4065,-5.4677,-5.5097,-5.4409,-5.4906,-5.5517,-5.5441,-5.6014,-5.6469,-5.6034,-5.6512,-5.6916,-5.6561,-5.6474,-5.5986,-5.4623,-5.467,-5.4746,-5.4446,-5.5,-5.526,-5.4918,-5.5206,-5.5403,-5.5403,-5.5403,-5.5403,-5.5403,-5.5403,-5.5313,-5.514,-5.53,-5.5261,-5.4988,-5.5147,-5.5212,-5.5097,-5.5071,-5.5058,-5.5045,-5.5032,-5.434,-4.4174,-4.4755,-4.5726,-4.6898,-4.7867,-4.872,-4.9384,-5.0087,-5.0672,-5.0984,-5.2468,-5.3678,-5.3678,-5.4693,-5.5396,-5.5044,-5.4537,-5.4227,-5.4227,-5.328,-5.3047,-5.4232,-5.3553,-5.2762,-5.2212,-5.2933,-5.3395,-5.3395,-5.4511,-5.5241,-5.5395,-5.5742,-5.6203,-5.6703,-5.6703,-5.6857,-5.7203,-5.667,-5.6368,-5.6311,-5.5777,-5.5488,-5.5477,-5.544,-5.539,-5.5403,-5.5403,-5.5403,-5.5403,-5.5403,-5.5403,-5.5403,-5.5403,-5.5403,-5.5326,-5.46,-5.4295,-5.4295,-5.4295,-5.4295,-5.4295,-5.4295,-5.4295,-5.4295,-5.4295,-5.4295,-5.4486,-5.5326,-5.5556,-5.5785,-5.6778,-5.7275,-5.7581,-5.7734,-5.8039,-5.8154,-5.7657,-5.781,-5.7884,-5.7225,-5.7203,-5.7261,-5.7078,-5.6894,-5.6529,-5.5853,-5.5446,-5.5162,-5.501,-5.4845,-5.4707,-5.4528,-5.4844,-5.5071,-5.5071,-5.526,-5.5403,-5.5403,-5.5403,-5.5377,-5.5273,-5.5364,-5.5377,-5.5273,-5.5364,-5.5403,-5.5403,-5.5286,-5.5246,-5.5208,-5.5151,-5.479,-4.6791,-4.7646,-4.8499,-4.9319,-5.0365,-5.1178,-5.1178,-5.2156,-5.3053,-5.3053,-5.4264,-5.532,-5.532,-5.602,-5.6528,-5.6294,-5.5708,-5.5352,-5.5533,-5.4441,-5.4181,-5.5719,-5.5266,-5.478,-5.4626,-5.4972,-5.5203,-5.5203,-5.6165,-5.6934,-5.7319,-5.755,-5.7896,-5.828,-5.8319,-5.8319,-5.8319,-5.762,-5.7175,-5.6894,-5.6222,-5.5727,-5.5485,-5.5413,-5.539,-5.539,-5.5403,-5.5403,-5.5403,-5.5403,-5.5403,-5.5403,-5.5403,-5.5403,-5.5403,-5.5403,-5.5403,-5.5403,-5.5403,-5.5403,-5.5403,-5.5403,-5.5403,-5.5441,-5.567,-5.5747,-5.5938,-5.7008,-5.7275,-5.7581,-5.8803,-5.93,-5.9568,-5.995,-6.0217,-6.0217,-5.9606,-5.9453,-5.9234,-5.8539,-5.8198,-5.7936,-5.784,-5.7623,-5.7449,-5.7449,-5.6755,-5.6046,-5.5751,-5.5171,-5.4885,-5.5091,-5.5255,-5.5366,-5.5474,-5.5527,-5.5616,-5.5695,-5.5517,-5.5403,-5.5403,-5.5403,-5.5403,-5.5403,-5.5403,-5.5403,-5.5403,-5.526,-5.5181,-5.5168,-5.5057,-5.5052,-4.8591,-4.9405,-5.0216,-5.1114,-5.2591,-5.3873,-5.3873,-5.3912,-5.3951,-5.3951,-5.4654,-5.532,-5.532,-5.602,-5.6333,-5.5474,-5.532,-5.5533,-5.6199,-5.4741,-5.4802,-5.8002,-5.6762,-5.6319,-5.7973,-5.7396,-5.6907,-5.6907,-5.8434,-5.905,-5.8319,-5.9011,-5.9088,-5.8319,-5.8319,-5.8319,-5.8319,-5.828,-5.7785,-5.6894,-5.6883,-5.6387,-5.5485,-5.5413,-5.5376,-5.5415,-5.539,-5.5403,-5.5403,-5.5403,-5.5403,-5.5403,-5.5403,-5.5403,-5.5403,-5.5403,-5.5403,-5.5403,-5.5403,-5.5403,-5.5403,-5.5403,-5.5403,-5.5556,-5.632,-5.6549,-5.6893,-5.8574,-5.9019,-5.9033,-5.9095,-5.972,-6.0141,-5.9338,-5.9797,-6.0384,-6.0384,-6.0384,-6.0246,-5.9814,-5.975,-5.958,-5.9213,-5.914,-5.914,-5.914,-5.8445,-5.7491,-5.6345,-5.6117,-5.6332,-5.7122,-5.6853,-5.6784,-5.7185,-5.6459,-5.6139,-5.6536,-5.5823,-5.5403,-5.5403,-5.5403,-5.5403,-5.5403,-5.5403,-5.5403,-5.5403,-5.539,-5.539,-5.539,-5.539,-5.539,-4.9644,-5.0734,-5.2017,-5.2905,-5.3992,-5.4849,-5.4849,-5.5318,-5.5747,-5.5747,-5.5942,-5.6177,-5.6177,-5.6411,-5.6489,-5.6216,-5.6177,-5.6443,-5.7205,-5.6612,-5.6964,-5.9242,-5.8732,-5.8665,-5.9858,-5.9165,-5.8665,-5.8665,-5.9704,-6.0242,-5.9973,-6.0204,-6.0242,-5.9973,-6.0512,-6.0819,-6.0819,-6.0819,-6.0666,-6.0334,-5.9758,-5.8992,-5.8115,-5.8629,-5.8834,-5.8757,-5.8142,-5.7835,-5.781,-5.7275,-5.7046,-5.7046,-5.7046,-5.7046,-5.7008,-5.6396,-5.6205,-5.6129,-5.5594,-5.5403,-5.5479,-5.6014,-5.6205,-5.6358,-5.7199,-5.7466,-5.7695,-5.8803,-5.9095,-5.9224,-5.9797,-6.0179,-6.0332,-6.0026,-6.0179,-6.0422,-6.0422,-6.0173,-6.0053,-6.0159,-5.9969,-5.9842,-5.9969,-5.9984,-5.9984,-5.9984,-5.8854,-5.7657,-5.6705,-5.6574,-5.6665,-5.6966,-5.7045,-5.7143,-5.7308,-5.7277,-5.7319,-5.7466,-5.7199,-5.7046,-5.7046,-5.7046,-5.6778,-5.6205,-5.6205,-5.5938,-5.5403,-5.5403,-5.5403,-5.5403,-5.5403,-5.5403,-5.1049,-5.2293,-5.3772,-5.4307,-5.5123,-5.5747,-5.5747,-5.6216,-5.6606,-5.6606,-5.6606,-5.6606,-5.6606,-5.6606,-5.6606,-5.6606,-5.6333,-5.6592,-5.7946,-5.7437,-5.7772,-6.0088,-5.9852,-5.9853,-6.079,-6.0338,-5.9973,-5.9973,-6.0473,-6.0781,-6.0781,-6.1089,-6.1243,-6.1243,-6.2089,-6.2512,-6.2512,-6.2512,-6.2358,-6.2101,-6.118,-6.0453,-5.9879,-6.0355,-6.0558,-6.0466,-5.9824,-5.9568,-5.9491,-5.8689,-5.8345,-5.8345,-5.8345,-5.8345,-5.8268,-5.7695,-5.7695,-5.7734,-5.632,-5.5823,-5.5976,-5.6778,-5.7046,-5.7199,-5.8077,-5.8345,-5.8498,-5.9338,-5.9568,-5.9682,-6.0255,-6.0422,-6.0422,-6.0422,-6.0422,-6.0422,-6.0422,-6.0188,-6.0068,-6.0159,-5.9969,-5.9842,-5.9937,-6.0099,-6.0173,-6.0173,-5.9435,-5.8673,-5.8143,-5.7849,-5.7727,-5.7867,-5.7951,-5.8051,-5.818,-5.8151,-5.8196,-5.8331,-5.8077,-5.7886,-5.7886,-5.7886,-5.7619,-5.7084,-5.7046,-5.6816,-5.6282,-5.6282,-5.6129,-5.5823,-5.5823,-5.567,-5.2804,-5.4044,-5.532,-5.5359,-5.5981,-5.6606,-5.6606,-5.6606,-5.6606,-5.6528,-5.6528,-5.6567,-5.6606,-5.6567,-5.6567,-5.6645,-5.5942,-5.6137,-5.8395,-5.7301,-5.7434,-6.0622,-6.0149,-5.998,-6.0906,-6.0938,-6.0881,-6.0858,-6.0858,-6.0858,-6.0858,-6.1678,-6.2178,-6.2178,-6.2935,-6.3346,-6.3346,-6.3423,-6.3012,-6.2216,-6.1375,-6.0954,-6.0903,-6.0801,-6.0772,-6.0772,-6.0627,-6.0613,-6.0537,-5.9644,-5.9286,-5.9286,-5.9286,-5.9286,-5.9286,-5.9248,-5.9759,-6.0116,-5.7695,-5.6816,-5.6944,-5.781,-5.8039,-5.8192,-5.8994,-5.921,-5.9338,-6.0179,-6.0422,-6.0422,-6.0422,-6.0422,-6.0422,-6.0422,-6.0422,-6.0422,-6.0422,-6.037,-6.027,-5.9906,-5.9804,-5.9635,-5.9213,-5.9441,-5.9712,-5.9658,-6.0068,-6.0346,-6.0384,-5.9723,-5.9415,-5.9809,-5.9485,-5.9415,-5.9809,-5.9083,-5.8753,-5.912,-5.8459,-5.8039,-5.8039,-5.8039,-5.8001,-5.7963,-5.7963,-5.7925,-5.7886,-5.7886,-5.7466,-5.6664,-5.6664,-5.6243,-5.4284,-5.494,-5.5445,-5.6101,-5.645,-5.6606,-5.6606,-5.6606,-5.6411,-5.5786,-5.563,-5.5825,-5.6489,-5.6059,-5.602,-5.7309,-5.6801,-5.6909,-5.8747,-5.8533,-5.8982,-6.1134,-6.101,-6.0838,-6.0973,-6.1573,-6.1895,-6.1766,-6.1793,-6.1793,-6.1793,-6.2551,-6.2974,-6.2974,-6.382,-6.4282,-6.4282,-6.4897,-6.482,-6.3974,-6.4385,-6.4232,-6.3553,-6.4074,-6.4273,-6.4193,-6.3509,-6.325,-6.3159,-6.228,-6.1922,-6.1922,-6.1922,-6.1922,-6.186,-6.1211,-6.1096,-6.1211,-6.0561,-5.9911,-5.9568,-6.037,-6.0255,-5.9911,-6.0714,-6.0523,-6.0102,-6.0346,-6.0422,-6.0422,-6.0422,-6.0422,-6.0422,-6.0422,-6.0422,-6.0422,-6.0422,-6.0159,-6.0,-6.0188,-5.9722,-5.9087,-5.842,-5.8353,-5.8263,-5.7961,-5.8811,-5.9682,-6.0332,-6.0241,-6.0129,-6.0256,-6.0144,-6.0129,-6.0256,-6.0027,-5.9956,-6.0064,-5.9873,-5.9759,-5.9759,-5.9759,-5.9453,-5.8803,-5.8803,-5.8498,-5.7886,-5.7886,-5.7772,-5.7581,-5.7581,-5.7466,-5.5022,-5.5563,-5.5987,-5.6489,-5.6606,-5.6489,-5.6138,-5.602,-5.5786,-5.4927,-5.4732,-5.5005,-5.5864,-5.5942,-5.6177,-5.7113,-5.6879,-5.7143,-5.8793,-5.8632,-5.9109,-6.1257,-6.1609,-6.1693,-6.166,-6.2317,-6.269,-6.2639,-6.2627,-6.2627,-6.2627,-6.3435,-6.3858,-6.3858,-6.4705,-6.5166,-6.5166,-6.5667,-6.5628,-6.5166,-6.5641,-6.5551,-6.501,-6.5388,-6.5509,-6.545,0.0,-6.4726,-6.4649,-6.3809,-6.3465,-6.3465,-6.3465,-6.3465,-6.3427,-6.293,-6.2968,-6.3236,-6.2853,-6.2662,-6.2548,-6.2242,-6.186,-6.1593,-6.2051,-6.186,-6.1516,-6.1516,-6.1516,-6.1516,-6.1516,-6.1516,-6.1516,-6.1516,-6.1211,-6.0943,-6.0943,-6.047,-6.0084,-6.0129,-5.9589,-5.9025,-5.8592,-5.8646,-5.8547,-5.7908,-5.8715,-5.9526,-5.9783,-6.0141,-6.0422,-6.0422,-6.0422,-6.0422,-6.0422,-6.0422,-6.0422,-6.0422,-6.0422,-6.0422,-6.0422,-6.0422,-6.0179,-5.9682,-5.9682,-5.9453,-5.8994,-5.8994,-5.8803,-5.8421,-5.8421,-5.823,-5.5451,-5.6027,-5.6606,-5.6606,-5.6606,-5.6372,-5.5513,-5.532,-5.5005,-5.3873,-5.3639,-5.3912,-5.4771,-5.5474,-5.6098,-5.6684,-5.6567,-5.7019,-5.871,-5.8265,-5.8694,-6.108,-6.1847,-6.2289,-6.2485,-6.2993,-6.3383,-6.3474,-6.3589,-6.3577,-6.3462,-6.432,-6.4782,-6.4782,-6.5513,-6.5897,-6.5897,-6.5897,-6.5897,-6.5897,-6.5833,-6.5767,-6.5608,-6.5537,-6.5465,-6.539,-6.5413,-6.5413,-6.5337,-6.4649,-6.4359,-6.4359,-6.4359,-6.4359,-6.4359,-6.4359,-6.4802,-6.5299,-6.4611,-6.4802,-6.5146,-6.3694,-6.3159,-6.3083,-6.3083,-6.3006,-6.2892,-6.2892,-6.2892,-6.2892,-6.2892,-6.2892,-6.2892,-6.2892,-6.2319,-6.1784,-6.1784,-6.1211,-6.059,-6.0232,-5.9781,-5.9494,-5.9384,-5.9647,-5.9592,-5.8802,-5.9441,-5.9908,-5.9488,-5.996,-6.0328,-6.037,-6.0422,-6.0422,-6.0422,-6.0422,-6.0422,-6.0422,-6.0422,-6.0422,-6.0422,-6.0422,-6.0422,-6.0422,-6.0422,-6.0422,-6.0422,-6.0422,-5.9988,-5.9262,-5.9262,-5.8918,-5.6193,-5.6497,-5.6606,-5.6606,-5.6606,-5.6372,-5.5513,-5.532,-5.4654,-5.2312,-5.1843,-5.2117,-5.2977,-5.2702,-5.3444,-5.7035,-5.6411,-5.637,-5.8738,-5.8934,-5.9285,-6.0456,-6.1197,-6.1867,-6.2429,-6.3127,-6.3758,-6.4332,-6.5051,-6.5128,-6.4397,-6.5205,-6.5667,-6.5667,-6.582,-6.5897,-6.5897,-6.5897,-6.5897,-6.5897,-6.5885,-6.5846,-6.5767,-6.566,-6.5537,-6.5479,-6.5405,0.0,-6.5375,-6.5261,-6.5184,-6.5184,-6.5184,-6.5184,-6.5184,-6.5184,-6.5261,-6.5375,-6.5222,-6.5261,-6.5337,-6.507,-6.4535,-6.3962,-6.3962,-6.3465,-6.2892,-6.2892,-6.2892,-6.2892,-6.2892,-6.2892,-6.2892,-6.2892,-6.2777,-6.2662,-6.2662,-6.2548,-6.2345,-6.1939,-6.1482,-6.0995,-6.0396,-6.0297,-6.0135,-5.9662,-6.0555,-6.1268,-6.1158,-6.0418,-6.0053,-6.0356,-6.0422,-6.0422,-6.0422,-6.0422,-6.0422,-6.0422,-6.0422,-6.0422,-6.0422,-6.0422,-6.0422,-6.0422,-6.0422,-6.0422,-6.0422,-6.0422,-6.0332,-6.0179,-6.0179,-6.0102,-5.6507,-5.6618,-5.6612,-5.6606,-5.6606,-5.6255,-5.4927,-5.4264,-5.3327,-5.118,-5.036,-5.0321,-5.118,-5.1765,-5.2897,-5.5396,-5.6255,-5.7035,-5.8246,-5.9183,-5.9924,-6.0354,-6.1344,-6.2147,-6.2461,-6.3487,-6.4259,-6.4602,-6.5397,-6.5705,-6.5282,-6.5667,-6.5897,-6.5897,-6.5897,-6.5897,-6.5897,-6.5897,-6.5897,-6.5897,-6.5897,-6.5859,-6.5793,-6.5674,-6.5566,-6.5494,-6.5405,-6.5413,-6.5413,-6.5413,-6.5413,-6.5413,-6.5413,-6.5413,-6.5413,-6.5413,-6.5413,-6.5413,-6.5413,-6.5413,-6.5413,-6.5413,-6.5146,-6.4802,-6.4802,-6.4535,-6.4191,-6.4191,-6.4191,-6.4191,-6.4191,-6.4191,-6.4191,-6.4191,-6.3885,-6.3465,-6.3006,-6.2892,-6.2848,-6.2658,-6.2444,-6.2154,-6.1804,-6.1705,-6.1473,-6.0844,-6.1446,-6.1873,-6.1655,-6.1324,-6.1245,-6.1678,-6.1287,-6.1019,-6.1019,-6.0637,-6.0422,-6.0422,-6.0422,-6.0422,-6.0422,-6.0422,-6.0422,-6.0422,-6.0422,-6.0422,-6.0422,-6.0422,-6.0422,-6.0422,-6.0422,-6.0422,-5.6588,-5.6584,-5.6618,-5.6608,-5.6606,-5.6098,-5.4147,-5.3171,-5.2117,-5.0007,-4.9032,-4.8759,-4.9421,-5.0828,-5.2273,-5.3522,-5.5552,-5.7113,-5.7504,-5.887,-5.9924,-6.008,-6.1217,-6.2182,-6.2726,-6.3706,-6.4474,-6.4859,-6.5513,-6.5897,-6.5897,-6.5897,-6.5897,-6.5897,-6.5897,-6.5897,-6.5897,-6.5897,-6.5897,-6.5897,-6.5897,-6.5872,-6.5807,-6.5674,-6.5566,-6.5509,-6.5459,-6.5413,-6.5413,-6.5413,-6.5413,-6.5413,-6.5413,-6.5413,-6.5413,-6.5413,-6.5413,-6.5413,-6.5413,-6.5413,-6.5413,-6.5413,-6.5413,-6.5413,-6.5413,-6.5413,-6.5413,-6.5413,-6.5413,-6.5413,-6.5413,-6.5413,-6.5413,-6.5413,-6.4917,-6.4267,-6.3579,-6.3427,-6.3427,-6.3427,-6.3427,-6.3427,-6.3427,-6.3427,-6.3197,-6.251,-6.2734,-6.2845,-6.248,-6.2756,-6.3074,-6.3397,-6.251,-6.1898,-6.1898,-6.1287,-6.0943,-6.0943,-6.0943,-6.0828,-6.0637,-6.0637,-6.0575,-6.0422,-6.0422,-6.0422,-6.0422,-6.0422,-6.0422,-6.0422,-6.0422,-6.0422,-5.6594,-5.6587,-5.6618,-5.6608,-5.6606,-5.5942,-5.3405,-5.2743,-5.1765,-4.8484,-4.7781,-4.7742,-4.782,-4.8564,-4.9969,-5.2431,-5.3678,-5.4888,-5.6489,-5.7465,-5.8324,-5.9143,-5.982,-6.1133,-6.3456,-6.3513,-6.4089,-6.5667,-6.5859,-6.5897,-6.5897,-6.5897,-6.5897,-6.5897,-6.5897,-6.5897,-6.5897,-6.5897,-6.5897,-6.5897,-6.5897,-6.5897,-6.5885,-6.5701,-6.5594,-6.558,-6.5474,-6.5413,0.0,-6.5413,-6.5413,-6.5413,-6.5413,-6.5413,-6.5413,-6.5413,-6.5413,-6.5413,-6.5413,-6.5413,-6.5413,-6.5413,-6.5413,-6.5413,-6.5413,-6.5413,-6.5413,-6.5413,-6.5413,-6.5413,-6.5413,-6.5413,-6.5413,-6.5413,-6.5337,-6.5261,-6.5184,-6.5184,-6.5184,-6.5184,-6.5184,-6.5184,-6.5184,-6.5184,-6.5146,-6.507,-6.5077,-6.5116,-6.507,-6.5077,-6.5116,-6.5184,-6.3732,-6.2777,-6.2777,-6.2701,-6.2662,-6.2662,-6.2662,-6.2319,-6.1516,-6.1478,-6.1134,-6.0422,-6.0422,-6.0422,-6.0422,-6.0422,-6.0422,-6.0422,-6.0422,-6.0422,-5.6478,-5.6591,-5.6585,-5.661,-5.6216,-5.5279,-5.3173,-5.1882,-5.0165,-4.6727,-4.6025,-4.5869,-4.5363,-4.6378,-4.8135,-5.0711,-5.2741,-5.4615,-5.6333,-5.7738,-5.8909,-5.9768,-6.0032,-6.0876,-6.2811,-6.3313,-6.4166,-6.5795,-6.5897,-6.5897,-6.5897,-6.5897,-6.5897,-6.5897,-6.5897,-6.5897,-6.5897,-6.5897,-6.5897,-6.5897,-6.5897,-6.5897,-6.5897,-6.5715,-6.5594,-6.5594,-6.5435,-6.5413,0.0,-6.5413,-6.5413,-6.5413,-6.5413,-6.5413,-6.5413,-6.5413,-6.5413,-6.5413,-6.5413,-6.5413,-6.5413,-6.5413,-6.5413,-6.5413,-6.5413,-6.5413,-6.5413,-6.5413,-6.5413,-6.5413,-6.5413,-6.5413,-6.5413,-6.5413,-6.5413,-6.5413,-6.5413,-6.5413,-6.5413,-6.5413,-6.5413,-6.5413,-6.5413,-6.5413,-6.5413,-6.5413,-6.5413,-6.5413,-6.5413,-6.5413,-6.5413,-6.5413,-6.4382,-6.3694,-6.3694,-6.3197,-6.2892,-6.2892,-6.2892,-6.2739,-6.2395,-6.2395,-6.2242,-6.1898,-6.1402,-6.1134,-6.1134,-6.0637,-6.0422,-6.0422,-6.0422,-6.0422,-5.5972,-5.6203,-5.6277,-5.6536,-5.5749,-5.4381,-5.239,-5.0789,-4.8757,-4.5324,-4.4621,-4.4504,-4.4153,-4.509,-4.6768,0.0,0.0,-5.4147,-5.563,-5.7309,-5.887,-6.0237,-6.0293,-6.1022,-6.312,-6.3925,-6.4662,-6.5461,-6.5743,-6.5897,-6.5897,-6.5897,-6.5897,-6.5897,-6.5897,-6.5897,-6.5897,-6.5897,-6.5897,-6.5897,-6.5897,-6.5885,-6.5859,-6.5701,-6.5594,-6.5566,-6.5435,-6.5413,0.0,-6.5413,-6.5413,-6.5413,-6.5413,-6.5413,-6.5413,-6.5413,-6.5413,-6.5413,-6.5413,-6.5413,-6.5413,-6.5413,-6.5413,-6.5413,-6.5413,-6.5413,-6.5413,-6.5413,-6.5413,-6.5413,-6.5413,-6.5413,-6.5413,-6.5413,-6.5413,-6.5413,-6.5413,-6.5413,-6.5413,-6.5413,-6.5413,-6.5413,-6.5413,-6.5413,-6.5413,-6.5413,-6.5413,-6.5413,-6.5413,-6.5413,-6.5413,-6.5413,-6.4879,-6.4535,-6.4535,-6.4,-6.3656,-6.3656,-6.3656,-6.3541,-6.3274,-6.3274,-6.3159,-6.293,-6.2319,-6.1975,-6.1975,-6.1172,-6.0752,-6.0752,-6.0399,-6.0099,-5.5076,-5.5308,-5.5536,-5.6388,-5.5287,-5.3327,-5.0709,-4.9462,-4.7822,-4.4426,-4.3725,-4.3957,-4.4816,-4.501,-4.5831,-4.8408,0.0,0.0,-5.3912,-5.5513,-5.7543,-6.008,-6.0293,-6.1525,-6.4953,-6.5746,-6.5666,-6.4679,-6.5397,-6.5897,-6.5897,-6.5897,-6.5897,-6.5897,-6.5897,-6.5897,-6.5897,-6.5897,-6.5897,-6.5897,-6.5897,-6.5859,-6.5793,-6.5674,-6.5566,-6.5494,-6.542,-6.5413,0.0,-6.5413,-6.5413,-6.5413,-6.5413,-6.5413,-6.5413,-6.5413,-6.5413,-6.5413,-6.5413,-6.5413,-6.5413,-6.5413,-6.5413,-6.5413,-6.5413,-6.5413,-6.5413,-6.5413,-6.5413,-6.5413,-6.5413,-6.5413,-6.5413,-6.5413,-6.5413,-6.5413,-6.5413,-6.5413,-6.5413,-6.5413,-6.5413,-6.5413,-6.5413,-6.5413,-6.5413,-6.5413,-6.5413,-6.5413,-6.5413,-6.5413,-6.5413,-6.5413,-6.5375,-6.5375,-6.5375,-6.5375,-6.5375,-6.5375,-6.5375,-6.5031,-6.4244,-6.4206,-6.377,-6.293,-6.2892,-6.2892,-6.2892,-6.2013,-6.1593,-6.154,-6.0349,-5.9397,-5.328,-5.3941,-5.4326,-5.4006,-5.2632,-5.0943,-4.954,-4.8096,-4.6261,-4.3411,-4.2825,-4.2903,-4.3177,-4.3216,-4.4465,-4.8174,-5.0477,0.0,-5.4615,-5.5864,-5.7543,-6.008,-6.1814,-6.3203,-6.417,-6.536,-6.5936,-6.5538,-6.5743,-6.5897,-6.5897,-6.532,-6.5282,-6.5859,-6.5897,-6.5897,-6.5897,-6.5897,-6.5897,-6.5897,-6.5897,-6.5859,-6.5793,-6.5674,-6.5566,-6.5494,-6.5405,-6.5413,-6.5413,-6.5413,-6.5413,-6.5413,-6.5413,-6.5413,-6.5413,-6.5413,-6.5413,-6.5413,-6.5413,-6.5413,-6.5413,-6.5413,-6.5413,-6.5413,-6.5413,-6.5413,-6.5413,-6.5413,-6.5413,-6.5413,-6.5413,-6.5413,-6.5413,-6.5413,-6.5413,-6.5413,-6.5413,-6.5413,-6.5413,-6.5413,-6.5413,-6.5413,-6.5413,-6.5413,-6.5413,-6.5413,-6.5413,-6.5413,-6.5413,-6.5413,-6.5413,-6.5413,-6.5413,-6.5413,-6.5413,-6.5413,-6.5413,-6.5413,-6.5413,-6.5299,-6.5031,-6.5031,-6.4879,-6.4611,-6.4076,-6.377,-6.377,-6.293,-6.2166,-6.1578,-6.0349,-5.952,-5.1444,-5.2145,-5.2413,-5.1863,-5.0642,-4.9306,-4.8135,-4.7042,-4.5636,-4.3372,-4.2903,-4.2982,-4.3333,-4.3372,-4.4582,-4.8213,-5.0555,-5.2702,-5.4966,-5.6059,-5.7543,-6.008,-6.2893,-6.4427,-6.3917,-6.5281,-6.5983,-6.5527,-6.5459,-6.5397,-6.5397,-6.4897,-6.4859,-6.5397,-6.5397,-6.5551,-6.5897,-6.5897,-6.5897,-6.5897,-6.5897,-6.5859,-6.5793,-6.5674,-6.5566,-6.5494,-6.5405,-6.5413,0.0,-6.5413,-6.5413,-6.5413,-6.5413,-6.5413,-6.5413,-6.5413,-6.5413,-6.5413,-6.5413,-6.5413,-6.5413,-6.5413,-6.5413,-6.5413,-6.5413,-6.5413,-6.5413,-6.5413,-6.5413,-6.5413,-6.5413,-6.5413,-6.5413,-6.5413,-6.5413,-6.5413,-6.5413,-6.5413,-6.5413,-6.5413,-6.5413,-6.5413,-6.5413,-6.5413,-6.5413,-6.5413,-6.5413,-6.5413,-6.5413,-6.5413,-6.5413,-6.5413,-6.5413,-6.5413,-6.5413,-6.5413,-6.5413,-6.5413,-6.5413,-6.5413,-6.5413,-6.5413,-6.5413,-6.5413,-6.4917,-6.4649,-6.4649,-6.3809,-6.2871,-6.1835,-6.0627,-5.9813,0.0,-4.9959,-4.9992,-4.9953,-4.928,-4.8214,-4.6651,-4.6261,0.0,-4.4114,-4.3725,-4.3997,-4.4933,-4.5049,-4.587,-4.8564,-5.1063,-5.3329,-5.5047,-5.6138,-5.7699,-6.0198,-6.3477,-6.5133,-6.4193,-6.5388,-6.5816,-6.489,-6.4617,-6.4551,-6.4589,-6.4551,-6.4551,-6.4705,-6.4628,-6.5013,-6.5897,-6.5897,-6.5897,-6.5897,-6.5897,-6.5859,-6.5793,-6.5674,-6.5566,0.0,-6.5405,-6.5413,0.0,-6.5413,-6.5413,-6.5413,-6.5413,-6.5413,-6.5413,-6.5413,-6.5413,-6.5413,-6.5413,-6.5413,-6.5413,-6.5413,-6.5413,-6.5413,-6.5413,-6.5413,-6.5413,-6.5413,-6.5413,-6.5413,-6.5413,-6.5413,-6.5413,-6.5413,-6.5413,-6.5413,-6.5413,-6.5413,-6.5413,-6.5413,-6.5413,-6.5413,-6.5413,-6.5413,-6.5413,-6.5413,-6.5413,-6.5413,-6.5413,-6.5413,-6.5413,-6.5413,-6.5413,-6.5413,-6.5413,-6.5413,-6.5413,-6.5413,-6.5413,-6.5413,-6.5413,-6.5413,-6.5413,-6.5413,-6.5413,-6.5413,-6.5413,-6.4573,-6.3581,-6.2383,-6.1166,-6.0297,0.0,0.0,-4.902,-4.8353,-4.7526,-4.6776,0.0,-4.5792,-4.5207,-4.4777,-4.4153,-4.4153,-4.5714,-4.5441,-4.6261,-5.0165,-5.1843,-5.3329,-5.5047,-5.7153,-5.9219,-6.1174,-6.3282,-6.4704,-6.4968,-6.5239,-6.5234,-6.4851,-6.4078,-6.3897,-6.4551,-6.3974,-6.4205,-6.5551,-6.4936,-6.5013,-6.5897,-6.5897,-6.5897,-6.5897,-6.5897,-6.5859,-6.5793,-6.5674,-6.5566,-6.5494,-6.5405,-6.5413,-6.5413,-6.5413,-6.5413,-6.5413,-6.5413,-6.5413,-6.5413,-6.5413,-6.5413,-6.5413,-6.5413,-6.5413,-6.5413,-6.5413,-6.5413,-6.5413,-6.5413,-6.5413,-6.5413,-6.5413,-6.5413,-6.5413,-6.5413,-6.5413,-6.5413,-6.5413,-6.5413,-6.5413,-6.5413,-6.5413,-6.5413,-6.5413,-6.5413,-6.5413,-6.5413,-6.5413,-6.5413,-6.5413,-6.5413,-6.5413,-6.5413,-6.5413,-6.5413,-6.5413,-6.5413,-6.5413,-6.5413,-6.5413,-6.5413,-6.5413,-6.5413,-6.5413,-6.5413,-6.5413,-6.5413,-6.5413,-6.5413,-6.5413,-6.5413,-6.4573,-6.3986,-6.3498,-6.2069,-6.1294,0.0,-4.6679,-4.7498,-4.6635,-4.6356,-4.6194,-4.5794,-4.5948,-4.6181,-4.6181,-4.6105,-4.6339,-4.7276,-4.8057,-4.915,-5.1102,-5.3132,-5.481,-5.5747,-5.8792,-6.0783,-6.0547,-6.3086,-6.4872,-6.4833,-6.505,-6.5114,-6.495,-6.4008,-6.3592,-6.3974,-6.3935,-6.432,-6.5282,-6.5243,-6.5436,-6.5897,-6.5897,-6.5897,-6.5897,-6.5897,-6.5885,-6.5846,-6.5688,-6.558,-6.5537,-6.542,0.0,-6.5413,-6.5413,-6.5413,-6.5413,-6.5413,-6.5413,-6.5413,-6.5413,-6.5413,-6.5413,-6.5413,-6.5413,-6.5413,-6.5413,-6.5413,-6.5413,-6.5413,-6.5413,-6.5413,-6.5413,-6.5413,-6.5413,-6.5413,-6.5413,-6.5413,-6.5413,-6.5413,-6.5413,-6.5413,-6.5413,-6.5413,-6.5413,-6.5413,-6.5413,-6.5413,-6.5413,-6.5413,-6.5413,-6.5413,-6.5413,-6.5413,-6.5413,-6.5413,-6.5413,-6.5413,-6.5413,-6.5413,-6.5413,-6.5413,-6.5413,-6.5413,-6.5413,-6.5413,-6.5413,-6.5413,-6.5413,-6.5413,-6.5413,-6.5413,-6.4955,-6.4603,-6.4267,-6.288,-6.2078,-4.5117,-4.5937,-4.6443,-4.5463,-4.5849,-4.6312,-4.5561,-4.6612,-4.7781,-4.7781,-4.8447,-4.9072,-4.9345,-5.1219,-5.2548,-5.2078,-5.4576,-5.6723,-5.7113,-6.0315,-6.1876,-5.9924,-6.3086,-6.5116,-6.4377,-6.4782,-6.4989,-6.4705,-6.3899,-6.3376,-6.3294,-6.4128,-6.4666,-6.4782,-6.5513,-6.5897,-6.5897,-6.5897,-6.5897,-6.5897,-6.5897,-6.5897,-6.5897,-6.5715,-6.5594,-6.5594,0.0,0.0,-6.5413,-6.5413,-6.5413,-6.5413,-6.5413,-6.549,-6.5605,-6.5605,-6.5681,-6.5796,-6.5796,-6.5796,-6.5796,-6.5796,-6.5796,-6.5796,-6.5796,-6.5796,-6.5796,-6.5796,-6.5605,-6.5413,-6.5413,-6.5413,-6.5413,-6.5413,-6.5413,-6.5413,-6.5413,-6.5413,-6.5413,-6.5413,-6.5413,-6.5413,-6.5413,-6.5413,-6.5413,-6.5413,-6.5413,-6.5413,-6.5413,-6.5413,-6.5413,-6.5413,-6.5413,-6.5413,-6.5413,-6.5413,-6.5413,-6.5413,-6.5413,-6.5413,-6.5413,-6.5413,-6.5413,-6.5413,-6.5329,-6.5298,-6.5298,-6.5252,-6.5019,-6.4612,-6.3501,-6.2736,-4.5703,-4.7265,-4.8125,-4.6482,-4.6752,-4.7371,-4.7248,-4.7945,-4.8603,-4.8603,-4.9306,-5.036,-5.1843,-5.2431,-5.3134,-5.4498,-5.5786,-5.7348,-5.9495,-6.0393,-6.1213,-6.2267,-6.3633,-6.4455,-6.4299,-6.4236,-6.3826,-6.2956,-6.2659,-6.272,-6.3294,-6.4128,-6.4936,-6.5667,-6.582,-6.5897,-6.5897,-6.5897,-6.5897,-6.5897,-6.5897,-6.5897,-6.5897,-6.5715,-6.5594,-6.5594,0.0,-6.5413,-6.5413,-6.5413,-6.5413,-6.5413,-6.5413,-6.5834,-6.6522,-6.6522,-6.6942,-6.7515,-6.7515,-6.7515,-6.7515,-6.7515,-6.7515,-6.7515,-6.7515,-6.7515,-6.7515,-6.7515,-6.6483,-6.5413,-6.5413,-6.5413,-6.5413,-6.5413,-6.5413,-6.5413,-6.5413,-6.5413,-6.5413,-6.5413,-6.5413,-6.5413,-6.5413,-6.5413,-6.5413,-6.5413,-6.5413,-6.5413,-6.5413,-6.5413,-6.5413,-6.5413,-6.5413,-6.5413,-6.5413,-6.5413,-6.5413,-6.5413,-6.5413,-6.5413,-6.5413,-6.5413,-6.5413,-6.5413,-6.5068,-6.4879,-6.49,-6.4501,-6.4156,-6.395,-6.3584,-6.326,-4.5234,-4.6875,-4.8125,-4.7773,-4.8708,-4.9795,-5.0258,-5.0992,-5.1609,-5.1609,-5.2312,-5.3014,-5.3327,-5.4186,-5.5357,-5.7074,-5.8089,-5.9065,-6.0237,-6.1213,-6.211,-6.2891,-6.4179,-6.4804,-6.4338,-6.4236,-6.3947,-6.3336,-6.3184,-6.3389,-6.4067,-6.4855,-6.5474,-6.5897,-6.5897,-6.5897,-6.5897,-6.5897,-6.5897,-6.5897,-6.5897,-6.5897,-6.5897,-6.5715,-6.5862,-6.6284,0.0,-6.633,-6.6751,-6.6751,-6.6751,-6.6751,-6.6751,-6.698,-6.7362,-6.7362,-6.7591,-6.7897,-6.7897,-6.7897,-6.7897,-6.7897,-6.7897,-6.7897,-6.7897,-6.7897,-6.7897,-6.7897,-6.7362,-6.6751,-6.6751,-6.6751,-6.6751,-6.6751,-6.6751,-6.6751,-6.6751,-6.6751,-6.6636,-6.6178,-6.6101,-6.5948,-6.549,-6.5413,-6.5413,-6.5413,-6.5413,-6.5413,-6.5413,-6.5413,-6.5413,-6.5413,-6.5413,-6.5413,-6.5413,-6.5413,-6.5413,-6.5413,-6.5413,-6.5413,-6.5413,-6.5117,-6.5019,-6.5068,-6.4575,-6.4332,-6.4426,-6.4196,-6.3913,-6.3609,-6.3468,-6.3228,-4.5273,-4.6875,-4.8516,-4.9766,-5.0897,-5.1946,-5.28,-5.3689,-5.4307,-5.4303,-5.4849,-5.5162,-5.4693,-5.5864,-5.7426,-5.9143,-5.9963,-6.0471,-6.0666,-6.2032,-6.3008,-6.3008,-6.4179,-6.4726,-6.4062,-6.3984,-6.3923,-6.3726,-6.3787,-6.4092,-6.4764,-6.5504,-6.5897,-6.5897,-6.5897,-6.5897,-6.5897,-6.5897,-6.5897,-6.5897,-6.5897,-6.6013,-6.6167,-6.5983,-6.6375,-6.7218,-6.7057,-6.7324,-6.7897,-6.7897,-6.7897,-6.7897,-6.7897,-6.8012,-6.8241,-6.8432,-6.847,-6.847,-6.847,-6.847,-6.847,-6.847,-6.847,-6.847,-6.847,-6.847,-6.847,-6.847,-6.847,-6.8394,-6.8012,-6.7897,-6.7897,-6.7897,-6.7897,-6.7897,-6.7897,-6.7897,-6.7706,-6.7095,-6.698,-6.6789,-6.6101,-6.5987,-6.591,-6.5719,-6.5719,-6.5643,-6.5413,-6.5413,-6.5413,-6.5413,-6.5413,-6.5413,-6.5413,-6.5413,-6.5413,-6.5413,-6.5413,-6.5413,-6.5413,-6.4913,-6.4704,-6.4792,-6.4136,-6.3871,-6.3971,-6.3808,-6.3609,-6.3285,-6.3144,-6.2917,-4.6758,-4.8672,-5.0586,-5.3047,-5.3124,-5.2849,-5.3703,-5.4595,-5.5214,-5.5205,-5.524,-5.5513,-5.6294,-5.7113,-5.8285,-6.0002,-6.0354,-6.0666,-6.1483,-6.2423,-6.3008,-6.3008,-6.3125,-6.3164,-6.3086,-6.3086,-6.3026,-6.2907,-6.3437,-6.4092,-6.4764,-6.5504,-6.5897,-6.5897,-6.5897,-6.5897,-6.5897,-6.5897,-6.5897,-6.5897,-6.5897,-6.6282,-6.7013,-6.6866,-6.7295,-6.81,-6.7898,-6.7859,-6.7897,-6.7897,-6.7897,-6.7897,-6.7897,-6.8394,-6.9196,-6.996,-7.0228,-7.0228,-7.0228,-7.0228,-7.0228,-7.0228,-7.0228,-7.0228,-7.0228,-7.0228,-7.0228,-7.0228,-7.0228,-6.9846,-6.8279,-6.7897,-6.7897,-6.7897,-6.7897,-6.7897,-6.7897,-6.7897,-6.7859,-6.7821,-6.7821,-6.7782,-6.7706,-6.7706,-6.7477,-6.6713,-6.6598,-6.633,-6.549,-6.5413,-6.5413,-6.5413,-6.5413,-6.5413,-6.5413,-6.5413,-6.5413,-6.5413,-6.5413,-6.5413,-6.5413,-6.5019,-6.4775,-6.4792,-6.3971,-6.3535,-6.3557,-6.2953,-6.2668,-6.2679,-6.2526,-6.2423,-4.7851,-5.043,-5.2773,-5.375,-5.4961,-5.6132,-5.6985,-5.7018,-5.6854,-5.6842,-5.7309,-5.7777,-5.8089,-5.8831,-5.9807,-6.1017,-6.1213,-6.1681,-6.3125,-6.2657,-6.2579,-6.3672,-6.3321,-6.3008,-6.3008,-6.3008,-6.3196,-6.3683,-6.3356,-6.3891,-6.5644,-6.5402,-6.5438,-6.591,-6.5897,-6.5897,-6.5897,-6.6397,-6.6628,-6.6628,-6.6628,-6.6821,-6.7128,-6.7574,-6.821,-6.9016,-6.8861,-6.913,-6.9581,-6.9581,-6.955,-6.9464,-6.9464,-6.9655,-6.9999,-7.0304,-7.0419,-7.0419,-7.0419,-7.0419,-7.0419,-7.0419,-7.0419,-7.0419,-7.0419,-7.0419,-7.0419,-7.0419,-7.0419,-7.0266,-6.9616,-6.9464,-6.9464,-6.9464,-6.9464,-6.9464,-6.9464,-6.9464,-6.9311,-6.8814,-6.8699,-6.8547,-6.7973,-6.7897,-6.7782,-6.7477,-6.7439,-6.7324,-6.698,-6.6522,-6.6216,-6.6216,-6.5719,-6.5413,-6.5413,-6.5413,-6.5267,-6.4913,-6.5236,-6.5283,-6.5035,-6.4538,-6.4156,-6.3992,-6.3308,-6.299,-6.3062,-6.2855,-6.273,-6.2705,-6.2578,-6.2526,-4.8906,-5.1797,-5.4492,-5.4765,-5.6172,-5.7772,-5.886,-5.8621,-5.8302,-5.8562,-5.887,-5.918,-5.9456,-6.0002,-6.0705,-6.1562,-6.1913,-6.2423,-6.336,-6.2696,-6.254,-6.375,-6.3125,-6.2696,-6.2969,-6.3008,-6.3243,-6.3828,-6.3409,-6.3926,-6.5817,-6.5207,-6.5142,-6.5871,-6.5897,-6.6013,-6.6282,-6.6821,-6.7244,-6.7513,-6.7782,-6.7936,-6.7936,-6.8446,-6.9135,-6.9903,-6.9817,-7.0126,-7.0623,-7.0623,-7.0522,-7.0419,-7.0419,-7.0419,-7.0419,-7.0419,-7.0419,-7.0419,-7.0419,-7.0419,-7.0419,-7.0419,-7.0419,-7.0419,-7.0419,-7.0419,-7.0419,-7.0419,-7.0419,-7.0419,-7.0419,-7.0419,-7.0419,-7.0419,-7.0419,-7.0419,-7.0419,-7.0419,-7.0228,-6.9693,-6.9578,-6.9387,-6.8776,-6.8699,-6.8585,-6.8356,-6.8317,-6.8203,-6.7935,-6.74,-6.7095,-6.7095,-6.656,-6.6048,-6.5718,-6.5718,-6.5389,-6.4576,-6.4845,-6.4896,-6.4538,-6.4036,-6.3659,-6.3445,-6.2941,-6.2679,-6.273,-6.273,-6.273,-6.273,-6.2552,-6.2475,-5.0,-5.2734,-5.5547,-5.6406,-5.6601,-5.7067,-5.8704,-5.9092,-5.9323,-6.0202,-5.9729,-5.9378,-6.0237,-6.0393,-6.0705,-6.1562,-6.2423,-6.2696,-6.1835,-6.2462,-6.3008,-6.3008,-6.2228,-6.2032,-6.2891,-6.3008,-6.3008,-6.3008,-6.3604,-6.4315,-6.5079,-6.4897,-6.5153,-6.5871,-6.5897,-6.6282,-6.709,-6.7128,-6.7552,-6.8436,-6.9321,-6.9706,-6.9706,-6.9547,-6.998,-7.0787,-7.0714,-7.0662,-7.0623,-7.0623,-7.0522,-7.0419,-7.0419,-7.0419,-7.0419,-7.0419,-7.0419,-7.0419,-7.0419,-7.0419,-7.0419,-7.0419,-7.0419,-7.0419,-7.0419,-7.0419,-7.0419,-7.0419,-7.0419,-7.0419,-7.0419,-7.0419,-7.0419,-7.0419,-7.0419,-7.0419,-7.0419,-7.0419,-7.0419,-7.0419,-7.0419,-7.0419,-7.0419,-7.0419,-7.0151,-6.9311,-6.9196,-6.889,-6.8012,-6.7897,-6.7897,-6.7897,-6.7897,-6.749,-6.651,-6.6417,-6.5811,-6.4406,-6.4292,-6.4156,-6.3896,-6.3653,-6.3445,-6.3285,-6.2941,-6.273,-6.2603,-6.2603,-6.2603,-6.2603,-6.2318,-6.2185,-5.2305,-5.539,-5.7969,-5.7617,-5.8398,-5.9255,-5.9133,-5.8663,-5.866,-6.0095,-6.0204,-6.0276,-6.1134,-6.133,-6.1603,-6.2462,-6.2306,-6.2228,-6.2579,-6.2306,-6.211,-6.211,-6.1874,-6.1796,-6.2071,-6.2657,-6.3008,-6.3008,-6.3734,-6.4509,-6.5183,-6.5079,-6.5604,-6.6902,-6.6805,-6.7167,-6.8013,-6.8629,-6.9052,-6.9321,-7.0167,-7.0244,-6.9706,-7.0217,-7.064,-7.0871,-7.0843,-7.0758,-7.0662,-7.0499,-7.0435,-7.0419,-7.0419,-7.0419,-7.0419,-7.0419,-7.0419,-7.0419,-7.0419,-7.0419,-7.0419,-7.0419,-7.0419,-7.0419,-7.0419,-7.0419,-7.0419,-7.0419,-7.0419,-7.0419,-7.0419,-7.0419,-7.0419,-7.0419,-7.0419,-7.0419,-7.0419,-7.0419,-7.0419,-7.0419,-7.0419,-7.0419,-7.0419,-7.0419,-7.0342,-7.0075,-7.0037,-6.9769,-6.8929,-6.8814,-6.8585,-6.7973,-6.7785,-6.7571,-6.7275,-6.7116,-6.6692,-6.5895,-6.5373,-6.4549,-6.3385,-6.3271,-6.3049,-6.2668,-6.2578,-6.2475,-6.2449,-6.2449,-6.2449,-6.2449,-6.2407,-6.2318,-5.4023,-5.7305,-5.9805,-5.8281,-5.9179,-6.0268,-5.9753,-5.9515,-5.9784,-6.1145,-6.1412,-6.1603,-6.211,-6.2501,-6.2696,-6.2501,-6.2345,-6.2267,-6.2462,-6.203,-6.1718,-6.1718,-6.1718,-6.1718,-6.1718,-6.2813,-6.336,-6.3047,-6.414,-6.4974,-6.5275,-6.5492,-6.6148,-6.7346,-6.7535,-6.8013,-6.8898,-6.9436,-6.986,-7.0167,-7.0667,-7.0667,-7.0206,-7.0667,-7.0898,-7.0898,-7.0843,-7.0758,-7.0669,-7.0483,-7.0419,-7.0419,-7.0419,-7.0419,-7.0419,-7.0419,-7.0419,-7.0419,-7.0419,-7.0419,-7.0419,-7.0419,-7.0419,-7.0419,-7.0419,-7.0419,-7.0419,-7.0419,-7.0419,-7.0419,-7.0419,-7.0419,-7.0419,-7.0419,-7.0419,-7.0419,-7.0419,-7.0419,-7.0419,-7.0419,-7.0419,-7.0419,-7.0419,-7.0419,-7.0419,-7.0419,-7.0419,-7.0228,-6.9731,-6.9693,-6.9464,-6.8967,-6.8793,-6.8541,-6.813,-6.8025,-6.7524,-6.6561,-6.6057,-6.5232,-6.3911,-6.3333,-6.2843,-6.2318,-6.2344,-6.2344,-6.2291,-6.2344,-6.2407,-6.2407,-6.2646,-6.2619,-5.5117,-5.8398,-6.0937,-5.8672,-5.9255,-6.0458,-6.0606,-6.1258,-6.2032,-6.2852,-6.3047,-6.3086,-6.3008,-6.3711,-6.3711,-6.1991,-6.2423,-6.2696,-6.1835,-6.1718,-6.1718,-6.1718,-6.1718,-6.1718,-6.1718,-6.3282,-6.3906,-6.2969,-6.4648,-6.5598,-6.5328,-6.5972,-6.6747,-6.7647,-6.8138,-6.8886,-6.9821,-6.9821,-7.0167,-7.0898,-7.0898,-7.0898,-7.0898,-7.0898,-7.0898,-7.0885,-7.0743,-7.0723,-7.0669,-7.0483,-7.0419,-7.0419,-7.0419,-7.0419,-7.0419,-7.0419,-7.0419,-7.0419,-7.0419,-7.0419,-7.0419,-7.0419,-7.0419,-7.0419,-7.0419,-7.0419,-7.0419,-7.0419,-7.0419,-7.0419,-7.0419,-7.0419,-7.0419,-7.0419,-7.0419,-7.0419,-7.0419,-7.0419,-7.0419,-7.0419,-7.0419,-7.0419,-7.0419,-7.0419,-7.0419,-7.0419,-7.0419,-7.0419,-7.0419,-7.0419,-7.0419,-7.0419,-7.0386,-6.9976,-6.9078,-6.897,-6.8319,-6.685,-6.6673,-6.6201,-6.5238,-6.3909,-6.2913,-6.2294,-6.2401,-6.2401,-6.2158,-6.2291,-6.2344,-6.2381,-6.2975,-6.2921,-5.5547,-5.8008,-5.9765,-5.9844,-6.0115,-6.0769,-6.2129,-6.2586,-6.2776,-6.2941,-6.3523,-6.3828,-6.3125,-6.3711,-6.3711,-6.1991,-6.2423,-6.2696,-6.1835,-6.1718,-6.1718,-6.1718,-6.1718,-6.1718,-6.1718,-6.3282,-6.3633,-6.211,-6.4804,-6.6243,-6.5565,-6.6186,-6.7463,-6.952,-6.8935,-6.9215,-7.0629,-7.0629,-7.0744,0.0,-7.0898,-7.0898,-7.0898,-7.0898,-7.0898,-7.0885,-7.0743,-7.0723,-7.0669,-7.0483,-7.0419,-7.0419,-7.0419,-7.0419,-7.0419,-7.0419,-7.0419,-7.0419,-7.0419,-7.0419,-7.0419,-7.0419,-7.0419,-7.0419,-7.0419,-7.0419,-7.0419,-7.0419,-7.0419,-7.0419,-7.0419,-7.0419,-7.0419,-7.0419,-7.0419,-7.0419,-7.0419,-7.0419,-7.0419,-7.0419,-7.0419,-7.0419,-7.0419,-7.0419,-7.0419,-7.0419,-7.0419,-7.0419,-7.0419,-7.0419,-7.0419,-7.0419,-7.0126,-6.9907,-6.9842,-6.9416,-6.9039,-6.8871,-6.8103,-6.7426,-6.6908,-6.5384,-6.4071,-6.3002,-6.2994,-6.2703,-6.2033,-6.206,-6.2087,-6.2087,-6.2241,-6.2567,-5.5039,-5.7539,-5.9492,-6.0703,-6.0387,-6.034,-6.2517,-6.333,-6.3638,-6.3609,-6.3993,-6.4299,-6.4267,-6.4262,-6.3867,-6.254,-6.2696,-6.2696,-6.1835,-6.1718,-6.1718,-6.1718,-6.1718,-6.1718,-6.1718,-6.2891,-6.3282,-6.2384,-6.4765,-6.6209,-6.617,-6.6841,-6.8124,-7.0152,-6.9576,-6.9764,-7.0898,-7.0898,-7.0898,-7.0898,-7.0898,-7.0898,-7.0898,-7.0898,-7.0898,-7.0885,-7.0743,-7.0723,-7.0669,-7.0483,-7.0419,-7.0419,-7.0419,-7.0419,-7.0419,-7.0419,-7.0419,-7.0419,-7.0419,-7.0419,-7.0419,-7.0419,-7.0419,-7.0419,-7.0419,-7.0419,-7.0419,-7.0419,-7.0419,-7.0419,-7.0419,-7.0419,-7.0419,-7.0419,-7.0419,-7.0419,-7.0419,-7.0419,-7.0419,-7.0419,-7.0419,-7.0419,-7.0419,-7.0419,-7.0419,-7.0419,-7.0419,-7.0419,-7.0419,-7.0336,-7.0247,-7.0247,-7.0001,-6.9853,-6.9965,-6.9681,-6.9419,-6.9235,-6.8731,-6.8114,-6.7418,-6.6576,-6.5486,-6.4103,-6.3856,-6.3563,-6.3164,-6.2766,-6.2585,-6.2585,-6.2983,-6.3164,-5.4297,-5.7305,-5.9726,-6.1131,-6.0385,-5.9988,-6.2439,-6.3681,-6.4304,-6.4314,-6.4425,-6.4653,-6.5054,-6.4696,-6.3984,-6.293,-6.2891,-6.2696,-6.1835,-6.1718,-6.1718,-6.1718,-6.1718,-6.1718,-6.1718,-6.2501,-6.3008,-6.3008,-6.4609,-6.5936,-6.6756,-6.7516,-6.8627,-7.0199,-7.005,-7.0258,-7.094,-7.0925,-7.0898,-7.0898,-7.0898,-7.0898,-7.0898,-7.0898,-7.0898,-7.0885,-7.0743,-7.0723,-7.0669,-7.0483,-7.0419,-7.0419,-7.0419,-7.0419,-7.0419,-7.0419,-7.0419,-7.0419,-7.0419,-7.0419,-7.0419,-7.0419,-7.0419,-7.0419,-7.0419,-7.0419,-7.0419,-7.0419,-7.0419,-7.0419,-7.0419,-7.0419,-7.0419,-7.0419,-7.0419,-7.0419,-7.0419,-7.0419,-7.0419,-7.0419,-7.0419,-7.0419,-7.0419,-7.0419,-7.0419,-7.0419,-7.0419,-7.0419,-7.0419,-7.0247,-7.0161,-7.0161,-6.9947,-6.9797,-6.9872,-6.9682,-6.9385,-6.8937,-6.8788,-6.8381,-6.756,-6.7424,-6.6774,-6.5447,-6.4903,-6.4541,-6.4396,-6.3708,-6.3418,-6.3418,-6.407,-6.4106,-5.3945,-5.7734,-6.0273,-6.0506,-6.0385,-6.0691,-6.2596,-6.3687,-6.4314,-6.4284,-6.4898,-6.5002,-6.3607,-6.3876,-6.375,-6.2149,-6.2501,-6.2696,-6.1835,-6.1718,-6.1718,-6.1718,-6.1718,-6.1718,-6.1718,-6.2501,-6.3008,-6.3008,-6.4609,-6.5936,-6.6756,-6.7607,-6.8777,-7.0308,-7.0238,-7.0486,-7.117,-7.0979,-7.0898,-7.0898,-7.0898,-7.0898,-7.0898,-7.0898,-7.0898,-7.0885,-7.0743,-7.0723,-7.0669,-7.0483,-7.0419,-7.0419,-7.0419,-7.0419,-7.0419,-7.0419,-7.0419,-7.0419,-7.0419,-7.0419,-7.0419,-7.0419,-7.0419,-7.0419,-7.0419,-7.0419,-7.0419,-7.0419,-7.0419,-7.0419,-7.0419,-7.0419,-7.0419,-7.0419,-7.0419,-7.0419,-7.0419,-7.0419,-7.0419,-7.0419,-7.0419,-7.0419,-7.0419,-7.0419,-7.0419,-7.0419,-7.0419,-7.0419,-7.0419,-7.0386,-7.0369,-7.0369,-7.0038,-6.9891,-7.0055,-6.9261,-6.878,-6.8915,-6.8405,-6.8072,-6.7919,-6.7614,-6.7287,-6.7067,-6.6001,-6.5084,-6.4396,-6.4287,-6.4215,-6.4215,-6.4359,-6.4722,-5.3633,-5.6406,-5.8008,-5.9921,-6.0389,-6.0736,-6.1979,-6.3305,-6.4166,-6.3662,-6.4278,-6.4622,-6.385,-6.3256,-6.2735,-6.2462,-6.2345,-6.2149,-6.1757,-6.1718,-6.1718,-6.1718,-6.1718,-6.1718,-6.1718,-6.2501,-6.3008,-6.3008,-6.5038,-6.6639,-6.7498,-6.8357,-6.9536,-7.1076,-7.0509,-7.0532,-7.1175,-7.1005,-7.0898,-7.0898,-7.0898,-7.0898,-7.0898,-7.0898,-7.0898,-7.0885,-7.0743,-7.0723,-7.0669,-7.0483,-7.0419,-7.0419,-7.0419,-7.0419,-7.0419,-7.0419,-7.0419,-7.0419,-7.0419,-7.0419,-7.0419,-7.0419,-7.0419,-7.0419,-7.0419,-7.0419,-7.0419,-7.0419,-7.0419,-7.0419,-7.0419,-7.0419,-7.0419,-7.0419,-7.0419,-7.0419,-7.0419,-7.0419,-7.0419,-7.0419,-7.0419,-7.0419,-7.0419,-7.0419,-7.0419,-7.0419,-7.0419,-7.0419,-7.0419,-7.0281,-7.023,-7.023,-6.9983,-6.9701,-6.9446,-6.9025,-6.8572,-6.8086,-6.7815,-6.7587,-6.7314,-6.7154,-6.704,-6.704,-6.654,-6.6098,-6.5736,-6.5301,-6.5084,-6.5084,-6.5084,-6.5265,-5.2539,-5.4492,-5.5781,-5.9258,-5.9764,-5.9761,-6.1083,-6.2567,-6.3389,-6.2529,-6.3385,-6.4163,-6.3739,-6.2594,-6.1913,-6.2579,-6.211,-6.1718,-6.1718,-6.1718,-6.1718,-6.1718,-6.1718,-6.1796,-6.1991,-6.2618,-6.3164,-6.3633,-6.5429,-6.6873,-6.7732,-6.8825,-6.9937,-7.1083,-7.0725,-7.0792,-7.126,-7.103,-7.0898,-7.0898,-7.0898,-7.0898,-7.0898,-7.0898,-7.0885,-7.0871,-7.0729,-7.0708,-7.0662,-7.0483,-7.0419,-7.0419,-7.0419,-7.0419,-7.0419,-7.0419,-7.0419,-7.0419,-7.0419,-7.0419,-7.0419,-7.0419,-7.0419,-7.0419,-7.0419,-7.0419,-7.0419,-7.0419,-7.0419,-7.0419,-7.0419,-7.0419,-7.0419,-7.0419,-7.0419,-7.0419,-7.0419,-7.0419,-7.0419,-7.0419,-7.0419,-7.0419,-7.0419,-7.0419,-7.0419,-7.0419,-7.0369,-7.0315,-7.0315,-7.0144,-7.0038,-7.0038,-6.9816,-6.9544,-6.9091,-6.8825,-6.8357,-6.7577,-6.7341,-6.7097,-6.6786,-6.6786,-6.6786,-6.6786,-6.6786,-6.6786,-6.6786,-6.6388,-6.6207,-6.6207,-6.6424,-6.6496,-5.0156,-5.2226,-5.4883,-5.8397,-5.8004,-5.7451,-5.9903,-6.1198,-6.1593,-6.0695,-6.2529,-6.3818,-6.2139,-6.1774,-6.1718,-6.1757,-6.1718,-6.1718,-6.1718,-6.1718,-6.1718,-6.1718,-6.1718,-6.203,-6.2852,-6.2969,-6.3672,-6.5351,-6.5585,-6.6014,-6.6834,-6.8474,-6.945,-6.9525,-7.0739,-7.1442,-7.1473,-7.1089,-7.0898,-7.0898,-7.0898,-7.0898,-7.0898,-7.0898,-7.0857,-7.0787,-7.0714,-7.0662,-7.0585,-7.0451,-7.0419,-7.0419,-7.0419,-7.0419,-7.0419,-7.0419,-7.0419,-7.0419,-7.0419,-7.0419,-7.0419,-7.0419,-7.0419,-7.0419,-7.0419,-7.0419,-7.0419,-7.0419,-7.0419,-7.0419,-7.0419,-7.0419,-7.0419,-7.0419,-7.0419,-7.0419,-7.0419,-7.0419,-7.0419,-7.0419,-7.0419,-7.0419,-7.0419,-7.0419,-7.0419,-7.0419,-7.023,-7.0126,-7.0126,-6.9947,-6.9835,-6.9835,-6.9641,-6.9521,-6.9481,-6.8595,-6.8021,-6.797,-6.723,-6.6815,-6.6786,-6.6786,-6.6786,-6.6786,-6.6786,-6.6786,-6.6786,-6.751,-6.7873,-6.7909,-6.8633,-6.9026,-4.9219,-5.125,-5.3164,-5.6679,-5.8279,-5.9019,-5.8822,-6.0737,-6.2145,-6.0699,-6.2025,-6.3115,-6.1904,-6.2164,-6.2345,-6.1796,-6.1718,-6.1718,-6.1718,-6.1718,-6.1718,-6.1718,-6.1718,-6.2032,-6.293,-6.3516,-6.4336,-6.5507,-6.66,-6.7576,-6.8435,-6.9606,-7.0504,-7.105,-7.1448,-7.1536,-7.13,-7.1055,-7.0898,-7.0898,-7.0898,-7.0898,-7.0898,-7.0898,-7.0829,-7.0714,-7.0723,-7.0662,-7.0569,-7.0451,-7.0419,-7.0419,-7.0419,-7.0419,-7.0419,-7.0419,-7.0419,-7.0419,-7.0419,-7.0419,-7.0419,-7.0419,-7.0419,-7.0419,-7.0419,-7.0419,-7.0419,-7.0419,-7.0419,-7.0419,-7.0419,-7.0419,-7.0419,-7.0419,-7.0419,-7.0419,-7.0419,-7.0419,-7.0419,-7.0419,-7.0419,-7.0419,-7.0419,-7.0419,-7.0419,-7.0419,-7.023,-7.0109,-7.0109,-6.9909,-6.9816,-6.9816,-6.9758,-6.9443,-6.8788,-6.8392,-6.7933,-6.7258,-6.6961,-6.6786,-6.6786,-6.6786,-6.6786,-6.6786,-6.6786,-6.6786,-6.6786,-6.7112,-6.751,-6.8017,-6.8307,-6.8706,-4.7344,-4.9258,-5.0976,-5.4414,-5.6992,-5.8552,-5.8005,-6.0076,-6.1717,-6.0271,-6.1597,-6.2649,-6.1475,-6.2205,-6.2701,-6.1837,-6.1718,-6.1718,-6.1718,-6.1718,-6.1718,-6.1718,-6.1952,-6.2462,-6.336,-6.4219,-6.5077,-6.5936,-6.7303,0.0,-6.8942,-7.0074,-7.1078,-7.1877,-7.1744,-7.1474,-7.1214,-7.1005,-7.0898,-7.0898,-7.0898,-7.0898,-7.0898,-7.0898,-7.0815,-7.0723,-7.0723,-7.0647,-7.0538,-7.0435,-7.0419,-7.0419,-7.0419,-7.0419,-7.0419,-7.0419,-7.0419,-7.0419,-7.0419,-7.0419,-7.0419,-7.0419,-7.0419,-7.0419,-7.0419,-7.0419,-7.0419,-7.0419,-7.0419,-7.0419,-7.0419,-7.0419,-7.0419,-7.0419,-7.0419,-7.0419,-7.0419,-7.0419,-7.0419,-7.0419,-7.0419,-7.0419,-7.0419,-7.0419,-7.0419,-7.0419,-7.023,-7.0109,-7.0109,-6.9872,-6.972,-6.972,-6.9641,-6.934,-6.8665,-6.8344,-6.7908,-6.7266,-6.6961,-6.6786,-6.6786,-6.6786,-6.6786,-6.6786,-6.6786,-6.6786,-6.6786,-6.7076,-6.7474,-6.8017,-6.8271,-6.8814,0.0,0.0,0.0,-5.1797,-5.3984,-5.574,-5.7459,-5.9216,-6.0193,-5.9412,-6.1208,-6.2457,-6.0733,-6.1781,-6.267,-6.1798,-6.1679,-6.1718,-6.1718,-6.1718,-6.1718,-6.1718,-6.2462,-6.3321,-6.4221,-6.5077,-6.5936,-6.6756,-6.7576,-6.8083,-6.8122,-6.9801,-7.1058,-7.1711,-7.1573,-7.1404,-7.1225,-7.1017,-7.0912,-7.0898,-7.0898,-7.0898,-7.0898,-7.0898,-7.0815,-7.0723,-7.0723,-7.0578,-7.0419,-7.0419,-7.0419,-7.0419,-7.0419,-7.0419,-7.0419,-7.0419,-7.0419,-7.0419,-7.0419,-7.0419,-7.0419,-7.0419,-7.0419,-7.0419,-7.0419,-7.0419,-7.0419,-7.0419,-7.0419,-7.0419,-7.0419,-7.0419,-7.0419,-7.0419,-7.0419,-7.0419,-7.0419,-7.0419,-7.0419,-7.0419,-7.0419,-7.0419,-7.0419,-7.0419,-7.0419,-7.0419,-7.0213,-7.0091,-7.0091,-6.9758,-6.9501,-6.9501,-6.9332,-6.9181,-6.9181,-6.8442,-6.7996,-6.797,-6.7266,-6.6786,-6.6786,-6.6786,-6.6786,-6.6786,-6.6786,-6.6786,-6.6786,-6.7583,-6.7981,-6.8017,-6.885,-6.9678,-4.4531,0.0,0.0,0.0,0.0,0.0,-5.6718,-5.9218,-6.1092,-6.0234,-6.1132,-6.1716,-6.0617,-6.0806,-6.103,-6.0785,-6.1291,-6.1913,-6.254,-6.211,-6.1718,-6.1718,-6.2462,-6.3321,-6.4221,-6.5077,-6.5936,0.0,-6.7029,-6.7693,-6.8981,-7.0699,-7.1744,-7.1924,-7.1755,-7.158,-7.1413,-7.1236,-7.1016,-7.0898,-7.0898,-7.0898,-7.0898,-7.0898,-7.0815,-7.0723,-7.0723,-7.0578,-7.0419,-7.0419,-7.0419,-7.0419,-7.0419,-7.0419,-7.0419,-7.0419,-7.0419,-7.0419,-7.0419,-7.0419,-7.0419,-7.0419,-7.0419,-7.0419,-7.0419,-7.0419,-7.0419,-7.0419,-7.0419,-7.0419,-7.0419,-7.0419,-7.0419,-7.0419,-7.0419,-7.0419,-7.0419,-7.0419,-7.0419,-7.0419,-7.0419,-7.0419,-7.0419,-7.0419,-7.0419,-7.0419,-7.0109,-6.9891,-6.9891,-6.9521,-6.9289,-6.9289,-6.9225,-6.9094,-6.8809,-6.8297,-6.7867,-6.7587,-6.7069,-6.6786,-6.6786,-6.6786,-6.6786,-6.6786,-6.6786,-6.6786,-6.6786,-6.704,-6.7438,-6.8054,-6.9394,-7.0444,-4.4726,-4.5625,-4.6875,-4.9219,0.0,0.0,-5.5781,-5.8437,-6.0702,-6.0898,-6.1367,-6.1522,-6.1047,-6.0924,-6.1074,-6.141,-6.1291,-6.1447,-6.2345,-6.2345,-6.2228,-6.2228,-6.3321,-6.4297,-6.4804,-6.5624,-6.6288,-6.6756,-6.7146,-6.8083,-6.984,-7.0894,-7.1636,-7.1987,-7.1794,-7.1641,-7.1481,-7.129,-7.1089,-7.0898,-7.0898,-7.0898,-7.0898,-7.0898,-7.0829,-7.0729,-7.0684,-7.0632,-7.0467,-7.0419,-7.0419,-7.0419,-7.0419,-7.0419,-7.0419,-7.0419,-7.0419,-7.0419,-7.0419,-7.0419,-7.0419,-7.0419,-7.0648,-7.0954,-7.0954,-7.1183,-7.1489,-7.1489,-7.1489,-7.1489,-7.1489,-7.1489,-7.1489,-7.1489,-7.1489,-7.1374,-7.103,-7.0954,-7.0839,-7.0495,-7.0419,-7.0419,-7.0419,-7.0315,-7.0264,-7.0264,-7.0019,-6.9816,-6.9816,-6.9521,-6.9332,-6.9332,-6.9246,-6.905,-6.8633,-6.8222,-6.7815,-6.7424,-6.7011,-6.6786,-6.6786,-6.6786,-6.6786,-6.6786,-6.6786,-6.6786,-6.6786,-6.6786,-6.7221,-6.8054,-6.9285,-7.0299,-4.5195,-4.5625,-4.6406,-4.7344,-4.9961,0.0,-5.4609,-5.7031,-5.9375,-6.0937,-6.1367,-6.1406,-6.1438,-6.1437,-6.1705,-6.2586,-6.1488,-6.0863,-6.172,-6.2345,-6.2735,-6.2852,-6.4297,-6.5351,-6.5468,-6.617,-6.6717,-6.6795,-6.7615,-6.8786,-7.0348,-7.0582,-7.105,-7.1831,-7.1768,-7.1653,-7.1481,-7.131,-7.1124,-7.0898,-7.0898,-7.0898,-7.0898,-7.0898,-7.0857,-7.0787,-7.0752,-7.0662,-7.0569,-7.0451,-7.0419,-7.0419,-7.0419,-7.0419,-7.0419,-7.0419,-7.0457,-7.0533,-7.0533,-7.061,-7.0686,-7.0686,-7.1221,-7.1833,-7.1833,-7.2367,-7.2979,-7.2979,-7.2979,-7.2979,-7.2979,-7.2979,-7.2979,-7.2979,-7.2979,-7.2788,-7.1985,-7.1833,-7.1603,-7.0839,-7.0533,-7.0419,-7.0419,-7.0247,-7.0126,-7.0126,-6.9965,-6.9816,-6.9816,-6.9622,-6.946,-6.946,-6.9289,-6.9027,-6.8679,-6.8222,-6.7789,-6.7506,-6.704,-6.6786,-6.6786,-6.6786,-6.6786,-6.6786,-6.6786,-6.6786,-6.6786,-6.6786,-6.7221,-6.8017,-6.8706,-6.9569,-4.6445,-4.5664,-4.5625,-4.7226,-4.8633,0.0,-5.2656,-5.5234,-5.7383,-5.8437,-5.9219,-5.9687,-5.9685,-5.9684,-5.9956,-6.0769,-6.1193,-6.1731,-6.2618,-6.1681,-6.1174,-6.1876,-6.2852,-6.3789,-6.4492,-6.5312,-6.6092,-6.6756,-6.7615,-6.8239,-6.8591,-6.9957,-7.0777,-7.0933,-7.1585,-7.1814,-7.1489,-7.1448,-7.1239,-7.0898,-7.0898,-7.0898,-7.0898,-7.0898,-7.0857,-7.0787,-7.0752,-7.0662,-7.0569,-7.0451,-7.0419,-7.0419,-7.0419,-7.0419,-7.0419,-7.0419,-7.0839,-7.145,-7.145,-7.1909,-7.2482,-7.2482,-7.2597,-7.275,-7.275,-7.2864,-7.2979,-7.2979,-7.2979,-7.2979,-7.2979,-7.2979,-7.2979,-7.2979,-7.2979,-7.2941,-7.2788,-7.275,-7.2711,-7.252,-7.1374,-7.0419,-7.0419,-7.0386,-7.0331,-7.0331,-7.0038,-6.9816,-6.9816,-6.9481,-6.9268,-6.9268,-6.8945,-6.8832,-6.9072,-6.8123,-6.7604,-6.7867,-6.721,-6.6786,-6.6786,-6.6786,-6.6786,-6.6786,-6.6786,-6.6786,-6.6786,-6.6786,-6.7221,-6.8017,-6.8162,-6.8995,-4.8828,-4.7305,-4.6523,-4.7383,-4.793,0.0,0.0,-5.2773,-5.4492,-5.625,-5.6953,-5.7539,-5.8397,-5.8201,-5.816,-5.9015,-5.9476,-6.0056,-6.0915,-6.1414,-6.1876,-6.2306,-6.3125,-6.3828,-6.426,-6.4687,-6.5312,-6.6131,-6.66,-6.7224,-6.8044,-6.9333,-7.027,-7.0699,-7.1558,-7.1837,-7.1489,-7.1481,-7.129,-7.0898,-7.0898,-7.0898,-7.0898,-7.0898,-7.0885,-7.0843,-7.0729,-7.0693,-7.0632,-7.0467,-7.0648,-7.0992,-7.0572,-7.0686,-7.1068,-7.1068,-7.1603,-7.2329,-7.2329,-7.2635,-7.2979,-7.2979,-7.3284,-7.359,-7.359,-7.3896,-7.424,-7.424,-7.424,-7.424,-7.424,-7.424,-7.424,-7.424,-7.424,-7.4125,-7.3705,-7.359,-7.3476,-7.3093,-7.2291,-7.1565,-7.1107,-7.0603,-7.0247,-7.0247,-7.0001,-6.974,-6.9681,-6.9481,-6.9332,-6.9203,-6.9027,-6.8832,-6.8646,-6.8047,-6.7604,-6.7424,-6.7011,-6.6786,-6.6786,-6.6786,-6.6786,-6.6786,-6.6786,-6.6786,-6.6786,-6.6786,-6.7221,-6.8017,-6.8017,-6.885,-5.1367,-4.9414,-4.8086,-4.8086,-4.7851,-4.8008,0.0,0.0,0.0,-5.3867,-5.4453,-5.5039,-5.66,-5.6326,-5.6013,-5.6556,-5.6863,-5.725,-5.7804,-6.0135,-6.1998,-6.2662,-6.3518,-6.4065,-6.4065,-6.4807,-6.5351,-6.5585,-6.6209,-6.6951,-6.781,-6.8825,-6.9723,-7.0426,-7.1441,-7.1846,-7.1536,-7.1497,-7.131,-7.094,-7.0925,-7.0898,-7.0898,-7.0898,-7.0898,-7.0885,-7.0758,-7.0684,-7.0708,-7.0707,-7.1085,-7.1642,-7.0916,-7.1183,-7.1947,-7.1947,-7.2482,-7.3246,-7.3246,-7.3323,-7.3476,-7.3476,-7.3934,-7.4469,-7.4469,-7.4927,-7.5518,-7.5518,-7.5518,-7.5518,-7.5518,-7.5518,-7.5518,-7.5518,-7.5518,-7.531,-7.4584,-7.4469,-7.4278,-7.359,-7.3361,-7.2941,-7.21,-7.1218,-7.0657,-7.0657,-7.0307,-6.9986,-6.9828,-6.9614,-6.9357,-6.9203,-6.9138,-6.8832,-6.8173,-6.797,-6.7614,-6.6961,-6.6845,-6.6786,-6.6786,-6.6786,-6.6786,-6.6786,-6.6786,-6.6786,-6.6786,-6.6786,-6.7148,-6.7764,-6.7764,-6.8561,-5.3125,-5.1172,-4.9883,-4.9883,-4.875,-4.7851,-4.8828,0.0,-4.9492,-5.0547,0.0,-5.2148,-5.3125,0.0,0.0,-5.2265,-5.3436,-5.4215,-5.3512,-5.5695,-5.8461,-6.1502,-6.2625,-6.3164,-6.3164,-6.66,-6.7927,-6.5741,-6.8396,-6.9176,-6.7068,-6.8513,-6.945,-6.9528,-7.1128,-7.1913,-7.1683,-7.1559,-7.1377,-7.117,-7.0979,-7.0898,-7.0898,-7.0898,-7.0898,-7.0898,-7.0815,-7.0743,-7.0746,-7.1382,-7.1685,-7.168,-7.1565,-7.2062,-7.2864,-7.2864,-7.3361,-7.4049,-7.4049,-7.4584,-7.5212,-7.5212,-7.5271,-7.5348,-7.5348,-7.5424,-7.5518,-7.5518,-7.5518,-7.5518,-7.5518,-7.5518,-7.5518,-7.5518,-7.5518,-7.5462,-7.5348,-7.5348,-7.531,-7.5233,-7.4584,-7.3819,-7.2979,-7.2733,-7.2677,-7.2677,-7.1691,-7.0953,-7.0933,-6.9951,-6.9225,-6.9181,-6.8877,-6.8633,-6.8538,-6.7867,-6.7424,-6.7314,-6.7019,-6.6786,-6.6786,-6.6786,-6.6786,-6.6786,-6.6786,-6.6786,-6.6786,-6.6786,-6.6858,-6.6931,-6.6931,-6.7438,-5.6289,-5.4453,-5.293,-5.1914,-5.1094,-5.0273,-4.9141,-4.8516,-4.8125,-4.7969,0.0,0.0,0.0,0.0,0.0,0.0,-5.1718,-5.2342,-5.1992,-5.4644,-5.7489,-5.9907,0.0,0.0,-6.1447,-6.5351,-6.6834,-6.4297,-6.7732,-6.8825,-6.6249,-6.82,-6.9411,-6.9411,-7.1089,-7.1916,-7.17,-7.1566,-7.1386,-7.1214,-7.0992,-7.0898,-7.0898,-7.0898,-7.0898,-7.0898,-7.0815,-7.1012,-7.1436,-7.1688,-7.2336,-7.3132,-7.3132,-7.3361,-7.3705,-7.3705,-7.424,-7.4966,-7.4966,-7.5195,-7.5518,-7.5518,-7.5518,-7.5518,-7.5518,-7.5518,-7.5518,-7.5518,-7.5518,-7.5518,-7.5518,-7.5518,-7.5518,-7.5518,-7.5518,-7.5518,-7.5518,-7.5518,-7.5518,-7.5518,-7.5195,-7.4851,-7.4507,-7.3628,-7.2945,-7.2785,-7.2298,-7.1883,-7.1628,-7.1178,-7.0594,-6.9992,-6.9784,-6.9401,-6.8646,-6.8072,-6.763,-6.7424,-6.7011,-6.6786,-6.6786,-6.6786,-6.6786,-6.6786,-6.6786,-6.6786,-6.6786,-6.6786,-6.6786,-6.6786,-6.6786,-6.7221,-5.8359,-5.6797,-5.5351,-5.4101,-5.3398,-5.2578,-5.0703,-4.9453,-4.8398,-4.7539,-4.6797,0.0,0.0,0.0,-4.7148,-4.793,0.0,-4.9491,-4.8984,-5.1717,-5.4837,-5.7727,-5.8656,0.0,0.0,-6.4572,-6.6366,-6.3555,-6.7342,-6.863,-6.6053,-6.7927,-6.9137,-6.9372,-7.1089,-7.1927,-7.1785,-7.1587,-7.1413,-7.127,-7.103,-7.0898,-7.0898,-7.0898,-7.0898,-7.0898,-7.1112,-7.1449,-7.1919,-7.2371,-7.3194,-7.424,-7.4469,-7.4545,-7.4545,-7.4545,-7.4966,-7.5518,-7.5518,-7.5518,-7.5518,-7.5518,-7.5518,-7.5518,-7.5518,-7.5518,-7.5518,-7.5518,-7.5518,-7.5518,-7.5518,-7.5518,-7.5518,-7.5518,-7.5518,-7.5518,-7.5518,-7.5518,-7.5518,-7.5518,-7.5518,-7.5518,-7.5518,-7.4469,-7.3632,-7.3397,-7.3152,-7.2833,-7.2477,-7.2184,-7.1718,-7.0915,-7.0818,-7.0421,-6.9378,-6.9014,-6.8587,-6.7944,-6.7432,-6.7069,-6.699,-6.6961,-6.6903,-6.6786,-6.6786,-6.6786,-6.6786,-6.6786,-6.6786,-6.6786,-6.6786,-6.7112,0.0,0.0,0.0,-5.6484,-5.5195,-5.3945,-5.3867,-5.25,-5.1055,-5.0234,-4.8047,-4.6562,-4.7461,-4.625,-4.4531,-4.293,-4.4101,0.0,0.0,-4.4961,-4.8828,-5.4724,-5.7606,-5.9119,0.0,-6.5319,-6.7927,-6.4494,-6.8239,-6.9528,-6.6912,-6.7654,-6.8513,-6.9372,-7.1089,-7.1987,-7.1984,-7.1673,-7.152,-7.1512,-7.1077,-7.0898,-7.0898,-7.0898,-7.0898,-7.0937,-7.1783,-7.2045,-7.205,-7.3737,-7.4314,-7.4278,-7.5119,-7.548,-7.548,-7.548,-7.548,-7.5518,-7.5518,-7.5518,-7.5518,-7.5518,-7.5518,-7.5518,-7.5518,-7.5518,-7.5518,-7.5518,-7.5518,-7.5518,-7.5518,-7.5518,-7.5518,-7.5518,-7.5518,-7.5518,-7.5518,-7.5518,-7.5518,-7.5518,-7.5518,-7.5518,-7.5518,-7.548,-7.5424,-7.5424,-7.4501,-7.3783,-7.3588,-7.2628,-7.1907,-7.1704,-7.1681,-7.1485,-7.108,-7.0994,-7.0462,-6.9241,-6.8413,-6.7789,-6.7396,-6.7369,-6.721,-6.6822,-6.6786,-6.6786,-6.6786,-6.6786,-6.6786,-6.6786,-6.6786,-6.6822,0.0,0.0,-6.1289,-5.9531,0.0,0.0,0.0,-5.5234,-5.3594,-5.2148,-4.9805,-4.793,-4.7656,-4.6172,-4.4805,-4.4219,-4.4141,-4.3945,0.0,-4.4531,-4.6406,-4.9023,-5.3627,-5.7016,-5.8142,0.0,0.0,-6.4416,-6.7732,-6.8708,-6.6131,-6.6795,-6.7888,-6.9333,-7.0543,-7.1402,-7.1987,-7.176,-7.1587,-7.152,-7.1246,-7.1042,-7.0898,-7.0898,-7.0898,-7.0937,-7.1822,-7.2429,-7.2839,-7.4044,-7.4714,-7.508,-7.5386,-7.5518,-7.5518,-7.5518,-7.5518,-7.5518,-7.5518,-7.5518,-7.5518,-7.5518,-7.5518,-7.5518,-7.5518,-7.5518,-7.5518,-7.5518,-7.5518,-7.5518,-7.5518,-7.5518,-7.5518,-7.5518,-7.5518,-7.5518,-7.5518,-7.5518,-7.5518,-7.5518,-7.5518,-7.5518,-7.5518,-7.5518,-7.5465,-7.5321,-7.4828,-7.4422,-7.4216,-7.3753,-7.3199,-7.2545,-7.2507,-7.2237,-7.156,-7.1251,-7.0809,-7.008,-6.9795,-6.9463,-6.8998,-6.9301,-6.9118,-6.841,-6.8124,-6.7869,-6.7583,-6.7076,-6.6786,-6.6786,-6.6786,-6.6786,-6.3906,-6.3594,0.0,-6.168,-6.1953,0.0,-6.0156,0.0,-5.6797,0.0,-5.2656,-5.0469,-5.1133,-4.8594,-4.6484,-4.6797,-4.5586,-4.4297,0.0,-4.3711,-4.4414,-4.5273,-5.0153,-5.4364,-5.6701,-6.161,-6.457,-6.4338,-6.6873,-6.7498,0.0,0.0,-6.7029,-6.8435,-6.9918,-7.0972,-7.1519,-7.1638,-7.1659,-7.1566,-7.132,-7.1181,-7.1101,-7.0953,-7.1106,-7.1506,-7.2325,-7.3044,-7.3721,-7.458,-7.5135,-7.5518,-7.5518,-7.5518,-7.5518,-7.5518,-7.5518,-7.5518,-7.5518,-7.5518,-7.5518,-7.5518,-7.5518,-7.5518,-7.5518,-7.5518,-7.5518,-7.5518,-7.5518,-7.5518,-7.5518,-7.5518,-7.5518,-7.5518,-7.5518,-7.5518,-7.5518,-7.5518,-7.5518,-7.5518,-7.5518,-7.5518,-7.5518,-7.5518,-7.5465,-7.5339,-7.5095,-7.4839,-7.4632,-7.4432,-7.4064,-7.3409,-7.3371,-7.3146,-7.262,-7.2075,-7.1613,-7.1367,-7.0919,-7.0486,-7.0055,-7.03,-7.0092,-6.9207,-6.907,-6.8844,-6.8416,-6.7909,-6.7655,-6.7655,-6.7945,-6.7909]},{"header":{"parameterUnit":"m.s-1","parameterCategory":1,"la1":30.6,"la2":29.2853,"lo1":-89.7004,"lo2":-87.6739,"dx":0.0162,"dy":0.0183,"nx":112,"ny":82,"refTime":"2023-01-14T06:00:00:Z","depth":0,"parameterNumber":3,"parameterNumberName":"V-component_of_WINDS"},"data":[0.0,0.0,0.0,0.0,0.0,0.0,0.0,0.0,0.0,0.0,0.0,0.0,0.0,0.0,0.0,0.0,0.0,0.0,0.0,0.0,0.0,0.0,0.0,0.0,0.0,0.0,0.0,0.0,0.0,0.0,0.0,0.0,0.0,0.0,0.0,0.0,0.0,0.0,0.0,0.0,0.0,0.0,0.0,0.0,0.0,0.0,0.0,0.0,0.0,0.0,0.0,0.0,0.0,0.0,0.0,0.0,0.0,0.0,0.0,0.0,0.0,0.0,0.0,0.0,0.0,0.0,0.0,0.0,0.0,0.0,0.0,0.0,0.0,0.0,0.0,0.0,0.0,0.0,0.0,0.0,0.0,0.0,0.0,0.0,0.0,0.0,0.0,0.0,0.0,0.0,-0.7472,-0.7553,-0.7512,-0.76,-0.7788,-0.782,-0.76,-0.7029,0.0,0.0,0.0,0.0,0.0,0.0,0.0,0.0,0.0,0.0,0.0,0.0,0.0,0.0,0.0,0.0,0.0,0.0,0.0,0.0,0.0,0.0,0.0,0.0,0.0,0.0,0.0,0.0,0.0,0.0,0.0,0.0,0.0,0.0,0.0,0.0,0.0,0.0,0.0,0.0,0.0,0.0,0.0,0.0,0.0,0.0,0.0,0.0,0.0,0.0,0.0,0.0,0.0,0.0,0.0,0.0,0.0,0.0,0.0,0.0,0.0,0.0,0.0,0.0,0.0,0.0,0.0,0.0,0.0,0.0,0.0,0.0,0.0,0.0,0.0,0.0,0.0,0.0,0.0,0.0,0.0,0.0,0.0,0.0,0.0,0.0,0.0,0.0,0.0,0.0,0.0,0.0,0.0,0.0,0.0,0.0,0.0,0.0,0.0,0.0,0.0,0.0,0.0,0.0,-0.7439,-0.7886,-0.7667,-0.76,-0.7788,-0.7894,-0.7683,-0.7029,0.0,0.0,0.0,0.0,0.0,0.0,0.0,0.0,0.0,0.0,0.0,0.0,0.0,0.0,0.0,0.0,0.0,0.0,0.0,0.0,0.0,0.0,0.0,0.0,0.0,0.0,0.0,0.0,0.0,0.0,0.0,0.0,0.0,0.0,0.0,0.0,0.0,0.0,0.0,0.0,0.0,0.0,0.0,0.0,0.0,0.0,0.0,0.0,0.0,0.0,0.0,0.0,0.0,0.0,0.0,0.0,0.0,0.0,0.0,0.0,0.0,0.0,0.0,0.0,0.0,0.0,0.0,0.0,0.0,0.0,0.0,0.0,0.0,0.0,0.0,0.0,0.0,0.0,0.0,0.0,0.0,0.0,0.0,0.0,0.0,0.0,0.0,0.0,0.0,0.0,0.0,0.0,0.0,0.0,0.0,0.0,0.0,0.0,0.0,0.0,0.0,0.0,0.0,-0.7407,-0.7854,-0.8,-0.787,-0.7805,-0.7894,-0.8057,-0.7813,-0.7037,-0.6914,0.0,0.0,0.0,0.0,0.0,0.0,0.0,0.0,0.0,0.0,0.0,0.0,0.0,0.0,0.0,0.0,0.0,0.0,0.0,0.0,0.0,0.0,0.0,0.0,0.0,0.0,0.0,0.0,0.0,0.0,0.0,0.0,0.0,0.0,0.0,0.0,0.0,0.0,0.0,0.0,0.0,0.0,0.0,0.0,0.0,0.0,0.0,0.0,0.0,0.0,0.0,0.0,0.0,0.0,0.0,0.0,0.0,0.0,0.0,0.0,0.0,0.0,0.0,0.0,0.0,0.0,0.0,0.0,0.0,0.0,0.0,0.0,0.0,0.0,0.0,0.0,0.0,0.0,0.0,0.0,0.0,0.0,0.0,0.0,0.0,0.0,0.0,0.0,0.0,0.0,0.0,0.0,0.0,0.0,0.0,0.0,0.0,0.0,0.0,0.0,0.0,0.0,-0.7845,-0.8235,-0.8097,-0.804,-0.8016,-0.8016,-0.8187,-0.791,-0.7045,-0.6988,0.0,0.0,0.0,0.0,0.0,0.0,0.0,0.0,0.0,0.0,0.0,0.0,0.0,0.0,0.0,0.0,0.0,0.0,0.0,0.0,0.0,0.0,0.0,0.0,0.0,0.0,0.0,0.0,0.0,0.0,0.0,0.0,0.0,0.0,0.0,0.0,0.0,0.0,0.0,0.0,0.0,0.0,0.0,0.0,0.0,0.0,0.0,0.0,0.0,0.0,0.0,0.0,0.0,0.0,0.0,0.0,0.0,0.0,0.0,0.0,0.0,0.0,0.0,0.0,0.0,0.0,0.0,0.0,0.0,0.0,0.0,0.0,0.0,0.0,0.0,0.0,0.0,0.0,0.0,0.0,0.0,0.0,0.0,0.0,0.0,0.0,0.0,0.0,0.0,0.0,0.0,0.0,0.0,0.0,0.0,0.0,0.0,0.0,0.0,0.0,0.0,0.0,-0.7845,-0.8284,-0.8276,-0.8113,-0.8016,-0.8016,-0.8187,-0.791,-0.7045,-0.6988,0.0,0.0,0.0,0.0,0.0,0.0,0.0,0.0,0.0,0.0,0.0,0.0,0.0,0.0,0.0,0.0,0.0,0.0,0.0,0.0,0.0,0.0,0.0,0.0,0.0,0.0,0.0,0.0,0.0,0.0,0.0,0.0,0.0,0.0,0.0,0.0,0.0,0.0,0.0,0.0,0.0,0.0,0.0,0.0,0.0,0.0,0.0,0.0,0.0,0.0,0.0,0.0,0.0,0.0,0.0,0.0,0.0,0.0,0.0,0.0,0.0,0.0,0.0,0.0,0.0,0.0,0.0,0.0,0.0,0.0,0.0,0.0,0.0,0.0,0.0,0.0,0.0,0.0,0.0,0.0,0.0,0.0,0.0,0.0,0.0,0.0,0.0,0.0,0.0,0.0,0.0,0.0,0.0,0.0,0.0,0.0,0.0,0.0,0.0,0.0,0.0,0.0,-0.7918,-0.8422,-0.83,-0.8333,-0.8308,-0.8195,-0.8357,-0.8081,-0.7179,0.0,0.0,0.0,0.0,0.0,0.0,0.0,0.0,0.0,0.0,0.0,0.0,0.0,0.0,0.0,0.0,0.0,0.0,0.0,0.0,0.0,0.0,0.0,0.0,0.0,0.0,0.0,0.0,0.0,0.0,0.0,0.0,0.0,0.0,0.0,0.0,0.0,0.0,0.0,0.0,0.0,0.0,0.0,0.0,0.0,0.0,0.0,0.0,0.0,0.0,0.0,0.0,0.0,0.0,0.0,0.0,0.0,0.0,0.0,0.0,0.0,0.0,0.0,0.0,0.0,0.0,0.0,0.0,0.0,0.0,0.0,0.0,0.0,0.0,0.0,0.0,0.0,0.0,0.0,0.0,0.0,0.0,0.0,0.0,0.0,0.0,0.0,0.0,0.0,0.0,0.0,0.0,0.0,0.0,0.0,0.0,0.0,0.0,0.0,0.0,0.0,0.0,-0.7159,-0.8008,-0.8563,-0.839,-0.8531,-0.8563,-0.839,-0.8539,-0.8277,-0.7447,0.0,0.0,0.0,0.0,0.0,0.0,0.0,0.0,0.0,0.0,0.0,0.0,0.0,0.0,0.0,0.0,0.0,0.0,0.0,0.0,0.0,0.0,0.0,0.0,0.0,0.0,0.0,0.0,0.0,0.0,0.0,0.0,0.0,0.0,0.0,0.0,0.0,0.0,0.0,0.0,0.0,0.0,0.0,0.0,0.0,0.0,0.0,0.0,0.0,0.0,0.0,0.0,0.0,0.0,0.0,0.0,0.0,0.0,0.0,0.0,0.0,0.0,0.0,0.0,0.0,0.0,0.0,0.0,0.0,0.0,0.0,0.0,0.0,0.0,0.0,0.0,0.0,0.0,0.0,0.0,0.0,0.0,0.0,0.0,0.0,0.0,0.0,0.0,0.0,0.0,0.0,0.0,0.0,0.0,0.0,0.0,0.0,0.0,0.0,0.0,0.0,0.0,-0.7488,-0.8163,-0.8612,-0.8612,-0.8612,-0.8612,-0.8612,-0.8612,-0.8384,0.0,0.0,0.0,0.0,0.0,0.0,0.0,0.0,0.0,0.0,0.0,0.0,0.0,0.0,0.0,0.0,0.0,0.0,0.0,0.0,0.0,0.0,0.0,0.0,0.0,0.0,0.0,0.0,0.0,0.0,0.0,0.0,0.0,0.0,0.0,0.0,0.0,0.0,0.0,0.0,0.0,0.0,0.0,0.0,0.0,0.0,0.0,0.0,0.0,0.0,0.0,0.0,0.0,0.0,0.0,0.0,0.0,0.0,0.0,0.0,0.0,0.0,0.0,0.0,0.0,0.0,0.0,0.0,0.0,0.0,0.0,0.0,0.0,0.0,0.0,0.0,0.0,0.0,0.0,0.0,0.0,0.0,0.0,0.0,0.0,0.0,0.0,0.0,0.0,0.0,0.0,0.0,0.0,0.0,0.0,0.0,0.0,0.0,0.0,0.0,0.0,0.0,0.0,-0.7698,-0.8245,-0.8661,-0.8731,-0.8747,-0.8747,-0.8747,-0.8747,-0.8568,-0.8162,0.0,0.0,0.0,0.0,0.0,0.0,0.0,0.0,0.0,0.0,0.0,0.0,0.0,0.0,0.0,0.0,0.0,0.0,0.0,0.0,0.0,0.0,0.0,0.0,0.0,0.0,0.0,0.0,0.0,0.0,0.0,0.0,0.0,0.0,0.0,0.0,0.0,0.0,0.0,0.0,0.0,0.0,0.0,0.0,0.0,0.0,0.0,0.0,0.0,0.0,0.0,0.0,0.0,0.0,0.0,0.0,0.0,0.0,0.0,0.0,0.0,0.0,0.0,0.0,0.0,0.0,0.0,0.0,0.0,0.0,0.0,0.0,0.0,0.0,0.0,0.0,0.0,0.0,0.0,0.0,0.0,0.0,0.0,0.0,0.0,0.0,0.0,0.0,0.0,0.0,0.0,0.0,0.0,0.0,0.0,0.0,0.0,0.0,0.0,0.0,0.0,0.0,-0.7975,-0.8381,-0.8763,-0.9007,-0.8974,-0.8991,-0.9129,-0.8942,-0.8731,-0.8511,0.0,0.0,0.0,0.0,0.0,0.0,0.0,0.0,0.0,0.0,0.0,0.0,0.0,0.0,0.0,0.0,0.0,0.0,0.0,0.0,0.0,0.0,0.0,0.0,0.0,0.0,0.0,0.0,0.0,0.0,0.0,0.0,0.0,0.0,0.0,0.0,0.0,0.0,0.0,0.0,0.0,0.0,0.0,0.0,0.0,0.0,0.0,0.0,0.0,0.0,0.0,0.0,0.0,0.0,0.0,0.0,0.0,0.0,0.0,0.0,0.0,0.0,0.0,0.0,0.0,0.0,0.0,0.0,0.0,0.0,0.0,0.0,0.0,0.0,0.0,0.0,0.0,0.0,0.0,0.0,0.0,0.0,0.0,0.0,0.0,0.0,0.0,0.0,0.0,0.0,0.0,0.0,0.0,0.0,0.0,0.0,0.0,0.0,0.0,0.0,0.0,0.0,-0.8276,-0.8609,-0.8958,-0.9363,-0.9226,-0.9275,-0.955,-0.9161,-0.8869,-0.8869,0.0,0.0,0.0,0.0,0.0,0.0,0.0,0.0,0.0,0.0,0.0,0.0,0.0,0.0,0.0,0.0,0.0,0.0,0.0,0.0,0.0,0.0,0.0,0.0,0.0,0.0,0.0,0.0,0.0,0.0,0.0,0.0,0.0,0.0,0.0,0.0,0.0,0.0,0.0,0.0,0.0,0.0,0.0,0.0,0.0,0.0,0.0,0.0,0.0,0.0,0.0,0.0,0.0,0.0,0.0,0.0,0.0,0.0,0.0,0.0,-0.7846,-0.7242,0.0,0.0,0.0,0.0,0.0,0.0,0.0,0.0,0.0,0.0,0.0,0.0,0.0,0.0,0.0,0.0,0.0,0.0,0.0,0.0,0.0,0.0,0.0,0.0,0.0,0.0,0.0,0.0,0.0,0.0,0.0,0.0,0.0,0.0,0.0,0.0,0.0,0.0,0.0,0.0,-0.8547,-0.869,-0.8958,-0.9363,-0.9453,-0.9543,-0.9575,-0.9388,-0.929,-0.929,-0.8865,0.0,0.0,0.0,0.0,0.0,0.0,0.0,0.0,0.0,0.0,0.0,0.0,0.0,0.0,0.0,0.0,0.0,0.0,0.0,0.0,0.0,0.0,0.0,0.0,0.0,0.0,0.0,0.0,0.0,0.0,0.0,0.0,0.0,0.0,0.0,0.0,0.0,0.0,0.0,0.0,0.0,0.0,0.0,0.0,0.0,0.0,0.0,0.0,0.0,0.0,0.0,0.0,0.0,0.0,0.0,0.0,0.0,0.0,0.0,-0.8319,-0.7829,0.0,0.0,0.0,0.0,0.0,0.0,0.0,0.0,0.0,0.0,0.0,0.0,0.0,0.0,0.0,0.0,0.0,0.0,0.0,0.0,0.0,0.0,0.0,0.0,0.0,0.0,0.0,0.0,0.0,0.0,0.0,0.0,0.0,0.0,0.0,0.0,0.0,0.0,0.0,0.0,-0.869,-0.8991,-0.9315,-0.9633,-0.977,-0.9916,-0.9954,-0.9689,-0.9486,-0.9486,-0.9192,0.0,0.0,0.0,0.0,0.0,0.0,0.0,0.0,0.0,0.0,0.0,0.0,0.0,0.0,0.0,0.0,0.0,0.0,0.0,0.0,0.0,0.0,0.0,0.0,0.0,0.0,0.0,0.0,0.0,0.0,0.0,0.0,0.0,0.0,0.0,0.0,0.0,0.0,0.0,0.0,0.0,0.0,0.0,0.0,0.0,0.0,0.0,0.0,0.0,0.0,0.0,0.0,0.0,-0.7889,-0.823,-0.8605,-0.8722,-0.9021,-0.9372,-0.8567,-0.8332,-0.8414,-0.8227,0.0,0.0,0.0,0.0,0.0,0.0,0.0,0.0,0.0,0.0,0.0,0.0,0.0,0.0,0.0,0.0,0.0,0.0,0.0,0.0,0.0,0.0,0.0,0.0,-0.8593,-0.8882,-0.8906,0.0,0.0,0.0,0.0,0.0,0.0,0.0,0.0,0.0,0.0,0.0,-0.8877,-0.9315,-0.9697,-0.9868,-1.0079,-1.0274,-1.0366,-0.9998,-0.9705,-0.9673,-0.947,-0.9224,0.0,0.0,0.0,0.0,0.0,0.0,0.0,0.0,0.0,0.0,0.0,0.0,0.0,0.0,0.0,0.0,0.0,0.0,0.0,0.0,0.0,0.0,0.0,0.0,0.0,0.0,0.0,0.0,0.0,0.0,0.0,0.0,-0.1264,-0.1202,0.0,0.0,0.0,0.0,0.0,0.0,0.0,0.0,0.0,0.0,0.0,0.0,0.0,-0.7482,-0.7845,-0.8019,-0.8254,-0.8545,-0.8751,-0.8861,-0.8957,-0.9088,-0.9272,-0.9575,-0.9324,0.0,-0.8974,-0.8787,0.0,0.0,0.0,0.0,0.0,0.0,0.0,0.0,0.0,0.0,0.0,0.0,0.0,0.0,0.0,0.0,0.0,0.0,0.0,0.0,0.0,0.0,-0.9282,-0.9233,-0.9282,-0.9306,0.0,-0.896,-0.862,-0.8656,-0.8708,0.0,0.0,0.0,0.0,0.0,0.0,0.0,-0.9104,-0.9388,-0.9697,-0.9868,-1.0193,-1.0358,-1.0383,-1.0225,-1.0073,-0.986,-0.9592,-0.9445,-0.9486,-0.8982,0.0,0.0,0.0,0.0,0.0,0.0,0.0,0.0,0.0,0.0,0.0,0.0,0.0,0.0,0.0,0.0,0.0,0.0,0.0,0.0,0.0,0.0,0.0,0.0,0.0,0.0,0.0,0.0,0.0,-0.1206,-0.1232,-0.1236,-0.1264,-0.1675,0.0,0.0,0.0,0.0,0.0,0.0,0.0,0.0,0.0,-0.7394,-0.7624,-0.7828,-0.7987,-0.8224,-0.8499,-0.8809,-0.9054,-0.9256,-0.9408,-0.9638,-0.9823,-0.9925,-0.9894,-0.982,-0.9665,-0.9283,-0.8974,-0.8747,0.0,0.0,0.0,0.0,-0.849,-0.8471,-0.8649,-0.8706,-0.8731,-0.8836,0.0,0.0,0.0,0.0,0.0,0.0,0.0,0.0,0.0,0.0,-0.951,-0.951,-0.9477,-0.9461,-0.9657,-0.9518,-0.9218,0.0,-0.8988,-0.9094,-0.9169,0.0,0.0,0.0,0.0,-0.9681,-0.9429,-0.9705,-0.9998,-1.0176,-1.0428,-1.0582,-1.0582,-1.042,-1.0282,-1.0201,-0.9851,-0.964,-0.9575,-0.961,-0.952,0.0,0.0,0.0,0.0,0.0,0.0,0.0,0.0,0.0,0.0,0.0,0.0,0.0,0.0,0.0,0.0,0.0,0.0,0.0,0.0,0.0,0.0,0.0,0.0,0.0,0.0,0.0,0.0,-0.1491,-0.1683,-0.1733,-0.1746,-0.2115,0.0,0.0,0.0,0.0,0.0,0.0,-0.7529,-0.7611,-0.7692,-0.7767,-0.8018,-0.8174,-0.8309,-0.8392,-0.8709,-0.918,-0.9347,-0.9533,-0.9847,-1.0108,-1.0212,-1.0212,-1.0212,-1.0212,-1.018,-0.9722,-0.9388,-0.9234,-0.9234,-0.912,-0.895,-0.8869,-0.8836,-0.8852,-0.8982,-0.9023,-0.9056,-0.9242,-0.9332,-0.9372,-0.9372,0.0,0.0,0.0,0.0,-0.9608,-0.9559,-0.9592,-0.9713,-0.976,-0.973,-0.9705,-0.9965,-1.003,-0.9884,0.0,-0.9486,-0.9682,-0.9843,0.0,0.0,-0.9941,-0.9998,-0.9965,-0.9786,-1.0038,-1.0282,-1.0366,-1.059,-1.0688,-1.0688,-1.0574,-1.0431,-1.0383,-1.0176,-0.9925,-0.9705,-0.9995,-1.0018,-0.9587,0.0,0.0,0.0,0.0,0.0,0.0,0.0,0.0,0.0,0.0,0.0,0.0,0.0,0.0,0.0,0.0,0.0,0.0,0.0,0.0,0.0,0.0,0.0,0.0,0.0,0.0,0.0,0.0,0.0,-0.2907,-0.2961,0.0,0.0,0.0,0.0,-0.6112,-0.6904,-0.755,-0.7934,-0.7875,-0.7936,-0.8279,-0.8384,-0.8685,-0.9158,-0.8969,-0.9241,-0.9923,-0.9768,-0.9847,-1.016,-1.0212,-1.0212,-1.0212,-1.0212,-1.0212,-1.0196,-0.9941,-0.9754,-0.955,-0.955,-0.9486,-0.9396,-0.951,-0.9575,-0.9575,-0.9534,-0.9534,-0.9616,-0.9786,-0.9965,-1.0163,-1.0163,-0.9981,0.0,0.0,-0.9738,-0.9665,-0.9819,-0.9868,-0.9957,-1.0261,-1.0334,-1.0334,-1.035,-1.035,-1.0298,0.0,-1.0041,-1.0122,-0.9908,0.0,-1.0339,-1.022,-1.0298,-1.0339,-1.0212,-1.0306,-1.0375,-1.0383,-1.059,-1.0688,-1.0688,-1.068,-1.0607,-1.0391,-1.0366,-1.0249,-0.9884,-0.9713,-0.9616,-0.9583,-0.942,0.0,0.0,0.0,0.0,0.0,0.0,0.0,0.0,0.0,0.0,0.0,0.0,0.0,0.0,0.0,0.0,0.0,0.0,0.0,0.0,0.0,0.0,0.0,0.0,0.0,0.0,0.0,0.0,-0.2036,-0.2052,0.0,-0.4407,-0.4674,-0.546,-0.7205,-0.7753,-0.8058,-0.8309,-0.8364,-0.8397,-0.8404,-0.8554,-0.8816,-0.9194,-0.9137,-0.9348,-0.989,-0.9992,-1.0131,-1.0285,-1.0447,-1.0501,-1.0501,-1.0501,-1.0501,-1.0485,-1.0314,-1.0136,-0.9981,-1.0103,-1.0038,-0.9935,-0.9949,-0.9973,-0.9973,-0.9973,-0.9973,-0.9981,-1.0098,-1.0163,-1.0212,-1.0212,-1.0163,-1.0114,-1.0114,-1.0103,-1.0108,-1.0225,-1.0241,-1.0298,-1.0542,-1.0517,-1.0469,-1.0574,-1.0599,-1.0558,-1.0428,-1.0371,-1.042,-1.0696,-1.0761,-1.0794,-1.0842,-1.081,-1.0753,-1.0743,-1.0737,-1.0818,-1.0932,-1.0997,-1.1037,-1.1037,-1.1037,-1.1005,-1.0948,-1.0729,-1.0542,-1.0412,-1.0431,-1.0425,-1.0305,-1.0578,-1.0876,0.0,0.0,0.0,0.0,0.0,0.0,0.0,0.0,0.0,0.0,0.0,0.0,0.0,0.0,0.0,0.0,0.0,0.0,0.0,0.0,0.0,0.0,0.0,0.0,0.0,-0.1706,-0.2045,-0.2073,-0.2461,-0.3251,-0.4632,-0.5209,-0.6128,-0.7584,-0.8104,-0.8404,-0.8554,-0.8655,-0.8662,-0.856,-0.8817,-0.9001,-0.911,-0.9219,-0.9385,-0.9651,-0.9871,-1.0091,-1.0312,-1.0476,-1.0641,-1.0688,-1.0688,-1.0688,-1.068,-1.0566,-1.0452,-1.0347,-1.0412,-1.0363,-1.0257,-1.0257,-1.0257,-1.0249,-1.0237,-1.0253,-1.0257,-1.0257,-1.029,-1.0392,-1.0392,-1.0392,-1.0392,-1.0392,-1.0387,-1.0391,-1.0509,-1.0423,-1.0423,-1.0647,-1.0607,-1.055,-1.0664,-1.0688,-1.0712,-1.0769,-1.0696,-1.0729,-1.1078,-1.1094,-1.1135,-1.137,-1.1208,-1.1102,-1.1224,-1.1135,-1.1094,-1.1208,-1.1224,-1.1224,-1.1224,-1.1451,-1.1484,-1.124,-1.1232,-1.1102,-1.0802,-1.1059,-1.1242,-1.1257,-1.1711,-1.1933,-1.1796,0.0,0.0,0.0,0.0,0.0,0.0,0.0,0.0,0.0,0.0,0.0,0.0,0.0,0.0,0.0,0.0,0.0,0.0,0.0,0.0,0.0,0.0,0.0,-0.1399,-0.2413,-0.3139,-0.3142,-0.4253,-0.5072,-0.5072,-0.6198,-0.6945,-0.7126,-0.7983,-0.8554,-0.871,-0.8716,-0.8716,-0.8716,-0.9133,-0.9217,-0.894,-0.9217,-0.9437,-0.943,-0.943,-0.9761,-1.0312,-1.0312,-1.0476,-1.0688,-1.0688,-1.0688,-1.0688,-1.0688,-1.0688,-1.0672,-1.0509,-1.0391,-1.0391,-1.0391,-1.0391,-1.0366,-1.0241,-1.0298,-1.0391,-1.0391,-1.0558,-1.0688,-1.0688,-1.0688,-1.0688,-1.0688,-1.0574,-1.0431,-1.0647,-1.0566,-1.0485,-1.0647,-1.0688,-1.0688,-1.0688,-1.0688,-1.0745,-1.0923,-1.102,-1.0972,-1.098,-1.1126,-1.1362,-1.1719,-1.1468,0.0,-1.1727,-1.1459,-1.1248,-1.1265,-1.1265,-1.1265,-1.1265,-1.1906,-1.2004,-1.1289,-1.1898,-1.189,-1.1021,-1.1484,-1.1946,-1.2373,-1.273,-1.2396,-1.1428,0.0,0.0,0.0,0.0,0.0,0.0,0.0,0.0,0.0,0.0,0.0,0.0,0.0,0.0,0.0,0.0,0.0,0.0,0.0,0.0,0.0,-0.1521,-0.1543,-0.1535,-0.1891,-0.2106,-0.2132,-0.3202,-0.4242,-0.5046,-0.6182,-0.7269,-0.8211,-0.8508,-0.8716,-0.8811,-0.8817,-0.8817,-0.8817,-0.8975,-0.9106,-0.9272,-0.9382,-0.9596,-1.0036,-1.0036,-1.0257,-1.0586,-1.0586,-1.0641,-1.0688,-1.0688,-1.0688,-1.0688,-1.0688,-1.0688,-1.0688,-1.0639,-1.0623,-1.0623,-1.0623,-1.0623,-1.0615,-1.0566,-1.0582,-1.0623,-1.0623,-1.0655,-1.0688,-1.0688,-1.0688,-1.0688,-1.0688,-1.0655,-1.0631,-1.068,-1.0655,-1.0631,-1.068,-1.0688,-1.0688,-1.0688,-1.0688,-1.0704,-1.0761,-1.0875,-1.1053,-1.1305,-1.15,-1.1663,-1.176,-1.1687,0.0,-1.176,-1.1687,-1.1768,-1.2158,-1.2199,-1.2199,-1.2199,-1.2377,-1.2247,-1.1663,-1.1687,-1.1614,-1.1362,-1.137,-1.1495,-1.1795,-1.2339,-1.2396,0.0,0.0,0.0,0.0,0.0,0.0,0.0,0.0,0.0,0.0,0.0,0.0,0.0,0.0,0.0,0.0,0.0,0.0,0.0,0.0,0.0,0.0,-0.1599,-0.1626,-0.1626,-0.1698,-0.1886,-0.2413,-0.3495,-0.4694,-0.5827,-0.7007,-0.8002,-0.8743,-0.8804,-0.879,-0.8878,-0.8885,-0.8885,-0.8885,-0.9051,-0.9161,-0.9217,-0.932,-0.9485,-0.9706,-0.9871,-1.013,-1.0469,-1.0588,-1.0739,-1.0915,-1.0915,-1.0915,-1.0907,-1.0834,-1.081,0.0,0.0,0.0,0.0,0.0,-1.0688,-1.0688,-1.0688,-1.0688,-1.0688,-1.0688,-1.0688,-1.0688,-1.0688,-1.0688,-1.0688,-1.0688,-1.0688,-1.0688,-1.0688,-1.0688,-1.0688,-1.0688,-1.0753,-1.081,-1.081,-1.0867,-1.0915,-1.0915,-1.1062,0.0,-1.1459,-1.1589,-1.1736,-1.1963,-1.1874,-1.1833,-1.1979,-1.1866,-1.189,-1.2199,-1.2231,-1.2231,-1.2231,-1.2507,0.0,0.0,0.0,-1.2028,-1.1947,-1.207,0.0,0.0,0.0,-1.2283,-1.1558,0.0,0.0,0.0,-1.2414,-1.2567,0.0,0.0,0.0,0.0,0.0,0.0,0.0,0.0,0.0,0.0,0.0,0.0,0.0,0.0,0.0,0.0,-0.1673,-0.1707,-0.1714,-0.169,-0.2166,-0.3368,-0.4586,-0.5796,-0.6991,-0.8194,-0.8885,-0.8885,-0.8885,-0.8885,-0.8885,-0.8885,0.0,0.0,0.0,-0.9245,-0.8932,-0.9265,-0.9265,-0.9043,-0.9377,-0.9783,-1.0247,-1.048,-1.0793,-1.1224,-1.1224,-1.1224,-1.1208,-1.1062,-1.0997,-1.098,-1.0769,-1.0688,-1.0688,-1.0688,-1.0688,-1.0688,-1.0688,0.0,0.0,-1.0688,-1.0688,-1.0688,-1.0688,-1.0688,-1.0688,-1.0688,-1.0688,-1.0688,-1.0688,-1.0688,-1.0688,-1.0688,-1.0818,-1.0996,-1.0996,-1.107,-1.1191,-1.1191,-1.1338,-1.1476,-1.1492,-1.1516,-1.1695,-1.2174,-1.1979,-1.189,-1.2207,-1.1971,-1.1801,-1.1857,0.0,0.0,-1.1866,-1.2442,-1.2507,-1.1825,-1.2369,-1.2645,-1.2611,-1.2998,-1.288,-1.2155,-1.2578,-1.2212,-1.0974,-1.0762,-1.1218,-1.2228,-1.2891,-1.3082,0.0,0.0,0.0,0.0,0.0,0.0,0.0,0.0,0.0,0.0,0.0,0.0,0.0,0.0,0.0,-0.1769,-0.1712,-0.1722,-0.1771,-0.1807,-0.2223,-0.3379,-0.4632,-0.5839,-0.7006,-0.8195,-0.8885,-0.8885,-0.8885,-0.8885,-0.8885,-0.8885,-0.8994,-0.9166,-0.9222,-0.9284,-0.9293,-0.935,-0.9638,-1.0039,0.0,0.0,-1.0995,-1.106,-1.1134,-1.1224,-1.1224,-1.1224,-1.1224,-1.1183,-1.1175,-1.1143,-1.0818,-1.0688,-1.0688,-1.0688,-1.0688,-1.0688,-1.0688,-1.0688,-1.0688,-1.0688,-1.0688,-1.0688,-1.0688,-1.0688,0.0,-1.0688,-1.0688,-1.0688,-1.0688,-1.0688,-1.0688,-1.0688,-1.072,-1.0745,-1.0745,-1.0891,-1.1021,-1.1021,-1.1159,-1.1321,-1.1476,-1.1622,-1.176,-1.1866,-1.1825,-1.1801,-1.1874,-1.1817,-1.1939,-1.2433,-1.2473,-1.2473,-1.2473,-1.254,-1.2377,-1.1817,-1.1906,-1.2208,-1.2647,-1.2165,-1.2226,-1.3013,-1.253,-1.2352,-1.2541,-1.2504,-1.2598,-1.2815,-1.2561,-1.2933,0.0,0.0,0.0,0.0,0.0,0.0,0.0,0.0,0.0,0.0,0.0,-0.162,-0.1635,0.0,-0.1761,-0.179,-0.1782,-0.1783,-0.1813,-0.2293,-0.3151,-0.4306,-0.5,-0.6089,-0.782,-0.8546,-0.8885,-0.8885,-0.8885,-0.8967,-0.9042,-0.9049,-0.911,-0.9316,-0.9323,-0.9306,-0.9381,-0.9555,-0.9787,-1.0069,-1.0416,-1.0751,-1.1129,-1.1304,-1.1411,-1.15,-1.15,-1.15,-1.1492,-1.1403,-1.1305,-1.1208,-1.1029,-1.0956,-1.0956,-1.0956,-1.0956,-1.0956,-1.0956,-1.0956,-1.0956,-1.0956,-1.0956,-1.0956,-1.0956,-1.0956,-1.0956,-1.0956,-1.0956,-1.098,-1.107,-1.1094,-1.1118,-1.1216,-1.1297,-1.1338,-1.1256,-1.137,-1.1476,-1.1386,-1.1954,-1.2451,-1.2557,-1.3191,-1.3264,-1.2018,-1.1776,-1.1776,-1.1776,-1.1776,-1.1874,-1.2142,-1.2174,-1.2174,-1.2174,-1.2174,-1.2122,-1.1792,-1.1776,-1.1957,-1.2251,-1.1867,-1.1887,-1.2375,-1.1987,-1.1893,-1.2086,-1.2431,-1.2774,-1.306,-1.3073,-1.3427,0.0,0.0,0.0,0.0,0.0,0.0,0.0,-0.1539,-0.1561,-0.1591,-0.1663,-0.1722,-0.1722,-0.1791,-0.179,-0.1784,-0.1783,-0.1783,-0.1783,-0.283,-0.4036,-0.5298,-0.5605,-0.6589,-0.8712,-0.8905,-0.8981,-0.8981,-0.8979,-0.911,-0.9248,-0.9282,-0.93,-0.9422,-0.9422,-0.9442,-0.9462,-0.9755,-0.993,-1.0106,-1.0573,-1.0942,-1.126,-1.1438,-1.1638,-1.1776,-1.1776,-1.1776,-1.1768,-1.1614,-1.1468,-1.133,-1.133,-1.133,-1.1321,-1.1248,-1.1224,-1.1224,-1.1224,-1.1224,-1.1224,-1.1224,-1.1224,-1.1224,-1.1224,-1.1224,-1.1232,-1.1265,-1.1273,-1.1313,-1.1459,-1.1524,-1.1581,-1.1695,-1.1857,-1.1947,-1.1809,-1.1906,-1.2049,-1.2214,-1.3105,-1.3908,-1.4209,-1.5111,-1.502,-1.2853,-1.2311,-1.2251,-1.2492,-1.213,-1.1897,-1.213,-1.1957,-1.1776,-1.1776,-1.1776,-1.1776,-1.1776,-1.1776,-1.1837,-1.1949,-1.1837,-1.1763,-1.1727,-1.1608,-1.1484,-1.133,-1.1852,-1.2383,-1.2846,-1.3356,-1.3787,-0.0585,-0.0861,-0.107,-0.1156,-0.1379,-0.1611,0.0,-0.1663,-0.1655,-0.1684,-0.174,-0.1785,-0.1785,-0.1838,-0.1872,-0.1787,-0.1783,-0.1783,-0.1783,-0.283,-0.407,-0.5408,-0.637,-0.7432,-0.8768,-0.9055,-0.9187,-0.9187,-0.9381,-0.9483,-0.9361,-0.9483,-0.9564,-0.9585,-0.9585,-0.9646,-0.9768,-0.9768,-1.013,-1.0673,-1.0793,-1.111,-1.1744,-1.1744,-1.176,-1.1776,-1.1776,-1.1776,-1.1776,-1.1752,-1.1736,-1.1711,-1.1711,-1.1711,-1.1671,-1.1346,-1.1224,-1.1224,-1.1224,-1.1224,-1.1224,-1.1224,-1.1224,-1.1224,-1.1224,-1.1224,-1.1256,-1.1419,-1.1468,-1.1476,-1.1492,-1.1622,-1.1711,-1.1565,-1.1671,-1.1801,-1.1784,-1.1906,-1.239,-1.3582,-1.409,-1.472,-1.5885,-1.6194,-1.6054,-1.5277,-1.4202,-1.3904,-1.5035,-1.3204,-1.2251,-1.3375,-1.2492,-1.1776,-1.1776,-1.1776,-1.1776,-1.1776,-1.1776,-1.201,-1.2603,-1.207,-1.2062,-1.2569,-1.2037,-1.1736,-1.1711,-1.1831,-1.1891,-1.1952,-1.2012,-1.3108,-0.0723,-0.0977,-0.1197,-0.1228,-0.1515,-0.1701,-0.1725,-0.1749,-0.177,-0.178,-0.1832,-0.1874,-0.1874,-0.191,-0.1934,-0.1922,-0.1904,-0.1834,-0.1834,-0.3551,-0.4991,-0.57,-0.7407,-0.8711,-0.9148,-0.9334,-0.9415,-0.9415,-0.9612,-0.9741,-0.9768,-0.9829,-0.991,-0.9998,-0.9998,-1.0025,-1.0086,-1.0184,-1.032,-1.0627,-1.0716,-1.0974,-1.1224,-1.1405,-1.1647,-1.1776,-1.1776,-1.1776,-1.1776,-1.1776,-1.1776,-1.1776,-1.1776,-1.1776,-1.176,-1.1606,-1.1541,-1.1541,-1.1541,-1.1541,-1.1541,-1.1541,-1.1541,-1.1541,-1.1541,-1.1541,-1.1581,-1.176,-1.1809,-1.1857,-1.2069,-1.2174,-1.2239,-1.2272,-1.2337,-1.2361,-1.2255,-1.2288,-1.2502,-1.2949,-1.3733,-1.4476,-1.5027,-1.5711,-1.6143,-1.595,-1.5377,-1.5233,-1.5774,-1.476,-1.4212,-1.4738,-1.3674,-1.2904,-1.2904,-1.2251,-1.1776,-1.1776,-1.1776,-1.1897,-1.2191,-1.1957,-1.1897,-1.2191,-1.1957,-1.1776,-1.1776,-1.213,-1.2311,-1.2303,-1.2733,-1.3407,-0.0715,-0.0988,-0.127,-0.1291,-0.1594,-0.1843,-0.1843,-0.1821,-0.1853,-0.1853,-0.1895,-0.1871,-0.1871,-0.1956,-0.1974,-0.1966,-0.1945,-0.2054,-0.2425,-0.4285,-0.5814,-0.6472,-0.8383,-0.9659,-0.9632,-0.9693,-0.9734,-0.9734,-0.9903,-1.0039,-1.0107,-1.0148,-1.0209,-1.0276,-1.0283,-1.0283,-1.0283,-1.0419,-1.0468,-1.0481,-1.0674,-1.0769,-1.0785,-1.1148,-1.1458,-1.1647,-1.1776,-1.1776,-1.1776,-1.1776,-1.1776,-1.1776,-1.1776,-1.1776,-1.1776,-1.1776,-1.1776,-1.1776,-1.1776,-1.1776,-1.1776,-1.1776,-1.1776,-1.1784,-1.1833,-1.1849,-1.189,-1.2117,-1.2174,-1.2239,-1.2499,-1.2605,-1.2661,-1.2743,-1.28,-1.28,-1.267,-1.2637,-1.2726,-1.2978,-1.3771,-1.4512,-1.4891,-1.571,-1.6338,-1.6338,-1.6207,-1.6269,-1.658,-1.6473,-1.6063,-1.5343,-1.4741,-1.4319,-1.3895,-1.3011,-1.2266,-1.1902,-1.1801,-1.1776,-1.1776,-1.1776,-1.1776,-1.1776,-1.1776,-1.1776,-1.1776,-1.2251,-1.2423,-1.2483,-1.2964,-1.3153,-0.0477,-0.0916,-0.137,-0.1394,-0.1664,-0.1881,-0.1881,-0.1883,-0.1884,-0.1884,-0.1909,-0.1871,-0.1871,-0.1956,-0.1967,-0.1937,-0.1871,-0.2425,-0.3807,-0.491,-0.6244,-0.8023,-0.9181,-0.993,-1.0222,-1.012,-0.997,-0.997,-1.0304,-1.0412,-1.0283,-1.0405,-1.0419,-1.0283,-1.0283,-1.0283,-1.0283,-1.0276,-1.0384,-1.0481,-1.0543,-1.0642,-1.0785,-1.1148,-1.1329,-1.1337,-1.1647,-1.1776,-1.1776,-1.1776,-1.1776,-1.1776,-1.1776,-1.1776,-1.1776,-1.1776,-1.1776,-1.1776,-1.1776,-1.1776,-1.1776,-1.1776,-1.1776,-1.1809,-1.1971,-1.202,-1.2093,-1.245,-1.2612,-1.2548,-1.2628,-1.2694,-1.2783,-1.2613,-1.271,-1.2766,-1.2766,-1.2766,-1.3218,-1.4567,-1.4828,-1.5339,-1.67,-1.6958,-1.6958,-1.6958,-1.669,-1.6893,-1.7968,-1.8166,-1.7222,-1.4706,-1.5566,-1.5814,-1.4457,-1.4142,-1.3478,-1.2082,-1.1866,-1.1776,-1.1776,-1.1776,-1.1776,-1.1776,-1.1776,-1.1776,-1.1776,-1.1837,-1.1837,-1.1837,-1.1837,-1.1837,-0.065,-0.0886,-0.1192,-0.1616,-0.1826,-0.1915,-0.1915,-0.1932,-0.1947,-0.1947,-0.1954,-0.1962,-0.1962,-0.197,-0.1973,-0.1963,-0.1962,-0.2156,-0.2623,-0.458,-0.6239,-0.6946,-0.8974,-1.0344,-1.0555,-1.0432,-1.0344,-1.0344,-1.0527,-1.0622,-1.0575,-1.0616,-1.0622,-1.0575,-1.067,-1.0724,-1.0724,-1.0724,-1.0697,-1.0774,-1.0671,-1.0734,-1.0968,-1.1396,-1.177,-1.1954,-1.2226,-1.2359,-1.2288,-1.2174,-1.2125,-1.2125,-1.2125,-1.2125,-1.2117,-1.1987,-1.1947,-1.1931,-1.1817,-1.1776,-1.1792,-1.1906,-1.1947,-1.1979,-1.2158,-1.2215,-1.2264,-1.2499,-1.2628,-1.2588,-1.271,-1.2791,-1.2824,-1.2759,-1.2791,-1.2774,-1.2774,-1.3547,-1.4071,-1.3613,-1.4259,-1.4782,-1.4259,-1.4193,-1.4193,-1.4193,-1.5495,-1.6601,-1.6797,-1.6825,-1.6516,-1.5597,-1.5152,-1.4778,-1.4288,-1.3421,-1.2707,-1.2215,-1.2158,-1.2125,-1.2125,-1.2125,-1.2069,-1.1947,-1.1947,-1.189,-1.1776,-1.1776,-1.1776,-1.1776,-1.1776,-1.1776,-0.078,-0.1084,-0.1349,-0.1778,-0.1925,-0.1947,-0.1947,-0.1963,-0.1977,-0.1977,-0.1977,-0.1977,-0.1977,-0.1977,-0.1977,-0.1977,-0.1967,-0.2347,-0.3417,-0.5025,-0.6391,-0.7112,-0.9145,-1.0352,-0.9968,-1.03,-1.0575,-1.0575,-1.0663,-1.0717,-1.0717,-1.0772,-1.0799,-1.0799,-1.0948,-1.1023,-1.1023,-1.1023,-1.0995,-1.088,-1.0925,-1.1,-1.1098,-1.1732,-1.2114,-1.2371,-1.258,-1.2661,-1.2645,-1.2475,-1.2402,-1.2402,-1.2402,-1.2402,-1.2385,-1.2264,-1.2264,-1.2272,-1.1971,-1.1866,-1.1898,-1.2069,-1.2125,-1.2158,-1.2345,-1.2402,-1.2434,-1.2613,-1.2661,-1.2686,-1.2808,-1.2774,-1.2774,-1.2774,-1.2774,-1.2774,-1.2774,-1.3481,-1.4006,-1.3613,-1.4259,-1.4782,-1.439,-1.3875,-1.3547,-1.3547,-1.4475,-1.5105,-1.4969,-1.5772,-1.6213,-1.5708,-1.5393,-1.5013,-1.4506,-1.3626,-1.2902,-1.2465,-1.2345,-1.2304,-1.2304,-1.2304,-1.2247,-1.2134,-1.2125,-1.2077,-1.1963,-1.1963,-1.1931,-1.1866,-1.1866,-1.1833,-0.0922,-0.1415,-0.1871,-0.1873,-0.1955,-0.1977,-0.1977,-0.1977,-0.1977,-0.1974,-0.1974,-0.1975,-0.1977,-0.1975,-0.1975,-0.1978,-0.1954,-0.2881,-0.5687,-0.6023,-0.6607,-0.8183,-0.9527,-0.9836,-0.8695,-0.9788,-1.0598,-1.0731,-1.0731,-1.0731,-1.0731,-1.0806,-1.0894,-1.0894,-1.1097,-1.1241,-1.1241,-1.1255,-1.1111,-1.09,-1.1168,-1.1297,-1.1356,-1.2094,-1.2433,-1.2433,-1.2749,-1.2815,-1.2798,-1.2678,-1.2669,-1.2669,-1.2669,-1.2669,-1.2669,-1.2661,-1.2702,-1.271,-1.2264,-1.2077,-1.2039,-1.2288,-1.2337,-1.2369,-1.254,-1.2653,-1.2613,-1.2791,-1.2774,-1.2774,-1.2774,-1.2774,-1.2774,-1.2774,-1.2774,-1.2774,-1.2774,-1.2832,-1.3293,-1.452,-1.4772,-1.5284,-1.67,-1.5719,-1.4819,-1.4874,-1.3661,-1.2758,-1.2766,-1.5098,-1.6268,-1.4912,-1.6009,-1.6268,-1.4912,-1.4594,-1.397,-1.2701,-1.2426,-1.2337,-1.2337,-1.2337,-1.2328,-1.232,-1.232,-1.2312,-1.2304,-1.2304,-1.2215,-1.2044,-1.2044,-1.1955,-0.1184,-0.1499,-0.1633,-0.1898,-0.1971,-0.1977,-0.1977,-0.1977,-0.197,-0.1948,-0.1943,-0.1949,-0.1973,-0.1958,-0.1956,-0.2001,-0.1984,-0.2236,-0.3079,-0.4029,-0.4836,-0.5348,-0.6614,-0.774,-0.8501,-0.8996,-0.9734,-1.0752,-1.0826,-1.0826,-1.0826,-1.1029,-1.1104,-1.1104,-1.1253,-1.1335,-1.1335,-1.1443,-1.143,-1.128,-1.1425,-1.1615,-1.1851,-1.2455,-1.2858,-1.306,-1.3282,-1.3372,-1.3425,-1.3238,-1.3233,-1.3233,-1.3233,-1.3233,-1.3149,-1.3011,-1.2986,-1.3011,-1.2873,-1.2735,-1.2661,-1.2832,-1.2808,-1.2735,-1.2905,-1.2865,-1.2775,-1.2758,-1.2774,-1.2774,-1.2774,-1.2774,-1.2774,-1.2774,-1.2774,-1.2774,-1.2774,-1.3613,-1.4128,-1.3481,-1.324,-1.3913,-1.6201,-1.4617,-1.3317,-1.425,-1.3375,-1.2686,-1.2824,-1.3424,-1.3744,-1.3358,-1.3678,-1.3744,-1.3358,-1.3308,-1.3086,-1.2767,-1.2726,-1.2702,-1.2702,-1.2702,-1.2637,-1.2499,-1.2499,-1.2434,-1.2304,-1.2304,-1.228,-1.2239,-1.2239,-1.2215,-0.1381,-0.1576,-0.1772,-0.1973,-0.1977,-0.1973,-0.196,-0.1956,-0.1948,-0.1918,-0.1911,-0.1921,-0.1951,-0.1954,-0.1962,-0.1994,-0.1986,-0.2245,-0.2953,-0.3715,-0.4198,-0.4283,-0.6136,-0.7507,-0.7776,-0.9036,-1.021,-1.0975,-1.1043,-1.1043,-1.1043,-1.1185,-1.126,-1.126,-1.1409,-1.1491,-1.1491,-1.1579,-1.1572,-1.1491,-1.1722,-1.2001,-1.2343,-1.2858,-1.3253,-1.3539,0.0,-1.3758,-1.3742,-1.3563,-1.349,-1.349,-1.349,-1.349,-1.3482,-1.3376,-1.3384,-1.3441,-1.336,-1.3319,-1.3295,-1.323,-1.3149,-1.3092,-1.3189,-1.3149,-1.3076,-1.3076,-1.3076,-1.3076,-1.3076,-1.3076,-1.3076,-1.3076,-1.3011,-1.2954,-1.2954,-1.3475,-1.394,-1.3744,-1.4169,-1.499,-1.6456,-1.4894,-1.3651,-1.4304,-1.3961,-1.3401,-1.2775,-1.2783,-1.2774,-1.2774,-1.2774,-1.2774,-1.2774,-1.2774,-1.2774,-1.2774,-1.2774,-1.2774,-1.2774,-1.2774,-1.2791,-1.2686,-1.2686,-1.2637,-1.254,-1.254,-1.2499,-1.2418,-1.2418,-1.2377,-0.1392,-0.1773,-0.1977,-0.1977,-0.1977,-0.1969,-0.1939,-0.1871,-0.1921,-0.1881,-0.1873,-0.1883,-0.1913,-0.1937,-0.1959,-0.1979,-0.1975,-0.2427,-0.3719,-0.3947,-0.3976,-0.4003,-0.65,-0.7786,-0.6774,-0.9274,-1.1034,-1.1192,-1.1212,-1.1282,-1.1261,-1.1341,-1.1423,-1.1423,-1.1552,-1.1619,-1.1619,-1.1619,-1.1619,-1.1619,-1.1979,-1.2338,-1.2753,-1.3111,-1.3468,-1.3825,-1.3904,-1.3904,-1.3888,-1.3742,-1.3606,-1.3606,-1.3606,-1.3606,-1.3606,-1.3606,-1.3774,-1.388,-1.3734,-1.3774,-1.3847,-1.3539,-1.3425,-1.3409,-1.3409,-1.3392,-1.3368,-1.3368,-1.3368,-1.3368,-1.3368,-1.3368,-1.3368,-1.3368,-1.3246,-1.3133,-1.3133,-1.3011,-1.3294,-1.4669,-1.5809,-1.6569,-1.6958,-1.5704,-1.4651,-1.4593,-1.4614,-1.4175,-1.2848,-1.2882,-1.303,-1.2832,-1.2774,-1.2774,-1.2774,-1.2774,-1.2774,-1.2774,-1.2774,-1.2774,-1.2774,-1.2774,-1.2774,-1.2774,-1.2774,-1.2774,-1.2774,-1.2774,-1.2751,-1.2596,-1.2596,-1.2523,-0.141,-0.1726,-0.1977,-0.1977,-0.1977,-0.1969,-0.1939,-0.1871,-0.1909,-0.1827,-0.181,-0.182,-0.1792,-0.184,-0.1866,-0.1992,-0.197,-0.203,-0.2436,-0.2444,-0.2459,-0.2507,-0.4011,-0.5481,-0.6562,-0.8311,-0.9956,-1.1271,-1.147,-1.1484,-1.1355,-1.1497,-1.1579,-1.1579,-1.1606,-1.1619,-1.1619,-1.1619,-1.1619,-1.1619,-1.1691,-1.1907,-1.2338,-1.2689,-1.3111,-1.3396,-1.3753,0.0,-1.3896,-1.3872,-1.3855,-1.3855,-1.3855,-1.3855,-1.3855,-1.3855,-1.3872,-1.3896,-1.3863,-1.3872,-1.3888,-1.3831,-1.3717,-1.3595,-1.3595,-1.349,-1.3368,-1.3368,-1.3368,-1.3368,-1.3368,-1.3368,-1.3368,-1.3368,-1.3344,-1.3319,-1.3319,-1.3295,-1.3679,-1.5085,-1.4477,-1.4503,-1.6678,-1.4894,-1.3538,-1.453,-1.398,-1.3303,-1.3069,-1.3879,-1.4071,-1.2898,-1.2774,-1.2774,-1.2774,-1.2774,-1.2774,-1.2774,-1.2774,-1.2774,-1.2774,-1.2774,-1.2774,-1.2774,-1.2774,-1.2774,-1.2774,-1.2774,-1.2824,-1.2791,-1.2791,-1.2775,-0.1356,-0.1606,-0.1791,-0.1977,-0.1977,-0.1964,-0.1918,-0.1895,-0.1862,-0.1787,-0.1759,-0.1757,-0.1787,-0.1808,-0.1847,-0.1934,-0.1964,-0.1992,-0.2034,-0.2067,-0.2093,-0.2108,-0.4155,-0.5847,-0.6634,-0.8852,-1.0537,-1.1318,-1.1531,-1.1586,-1.1511,-1.1579,-1.1619,-1.1619,-1.1619,-1.1619,-1.1619,-1.1619,-1.1619,-1.1619,-1.1619,-1.1835,-1.2194,-1.2617,-1.2968,-1.3325,-1.3753,-1.3904,-1.3904,-1.3904,-1.3904,-1.3904,-1.3904,-1.3904,-1.3904,-1.3904,-1.3904,-1.3904,-1.3904,-1.3904,-1.3904,-1.3904,-1.3847,-1.3774,-1.3774,-1.3717,-1.3644,-1.3644,-1.3644,-1.3644,-1.3644,-1.3644,-1.3644,-1.3644,-1.3579,-1.349,-1.3392,-1.3368,-1.3574,-1.425,-1.3772,-1.3637,-1.4981,-1.4033,-1.3277,-1.3768,-1.4115,-1.4,-1.3175,-1.4299,-1.4633,-1.3251,-1.3027,-1.297,-1.297,-1.2889,-1.2774,-1.2774,-1.2774,-1.2774,-1.2774,-1.2774,-1.2774,-1.2774,-1.2774,-1.2774,-1.2774,-1.2774,-1.2774,-1.2774,-1.2774,-1.2774,-0.1235,-0.142,-0.1606,-0.1915,-0.1977,-0.1959,-0.1891,-0.1857,-0.182,-0.1801,-0.1712,-0.1703,-0.178,-0.1775,-0.1825,-0.1869,-0.194,-0.1994,-0.2008,-0.2056,-0.2093,-0.2098,-0.4818,-0.6673,-0.6731,-0.9521,-1.1369,-1.1436,-1.1552,-1.1619,-1.1619,-1.1619,-1.1619,-1.1619,-1.1619,-1.1619,-1.1619,-1.1619,-1.1619,-1.1619,-1.1619,-1.1763,-1.2122,-1.2617,-1.2968,-1.3253,-1.369,-1.3904,-1.3904,-1.3904,-1.3904,-1.3904,-1.3904,-1.3904,-1.3904,-1.3904,-1.3904,-1.3904,-1.3904,-1.3904,-1.3904,-1.3904,-1.3904,-1.3904,-1.3904,-1.3904,-1.3904,-1.3904,-1.3904,-1.3904,-1.3904,-1.3904,-1.3904,-1.3904,-1.3798,-1.366,-1.3514,-1.3482,-1.3482,-1.3482,-1.3482,-1.3482,-1.3482,-1.3482,-1.3433,-1.3287,-1.4267,-1.4653,-1.3423,-1.4344,-1.4707,-1.362,-1.3287,-1.3157,-1.3157,-1.3027,-1.2954,-1.2954,-1.2954,-1.2929,-1.2889,-1.2889,-1.2807,-1.2774,-1.2774,-1.2774,-1.2774,-1.2774,-1.2774,-1.2774,-1.2774,-1.2774,-0.0926,-0.1296,-0.1606,-0.1915,-0.1977,-0.1954,-0.1865,-0.1784,-0.1808,-0.1746,-0.1721,-0.1719,-0.1722,-0.1696,-0.1745,-0.1774,-0.1874,-0.1917,-0.1973,-0.2007,-0.2037,-0.2065,-0.4642,-0.656,-0.688,-0.9492,-1.1301,-1.1579,-1.1613,-1.1619,-1.1619,-1.1619,-1.1619,-1.1619,-1.1619,-1.1619,-1.1619,-1.1619,-1.1619,-1.1619,-1.1619,-1.1619,-1.1691,-1.2474,-1.2824,-1.2896,-1.3619,-1.3904,0.0,-1.3904,-1.3904,-1.3904,-1.3904,-1.3904,-1.3904,-1.3904,-1.3904,-1.3904,-1.3904,-1.3904,-1.3904,-1.3904,-1.3904,-1.3904,-1.3904,-1.3904,-1.3904,-1.3904,-1.3904,-1.3904,-1.3904,-1.3904,-1.3904,-1.3904,-1.3888,-1.3872,-1.3855,-1.3855,-1.3855,-1.3855,-1.3855,-1.3855,-1.3855,-1.3855,-1.3847,-1.3831,-1.3981,-1.3989,-1.3831,-1.3981,-1.3989,-1.3855,-1.3547,-1.3344,-1.3344,-1.3327,-1.3319,-1.3319,-1.3319,-1.3246,-1.3076,-1.3068,-1.2994,-1.2774,-1.2774,-1.2774,-1.2774,-1.2774,-1.2774,-1.2774,-1.2774,-1.2774,-0.0863,-0.1111,-0.1358,-0.1853,-0.1963,-0.193,-0.1799,-0.1812,-0.1752,-0.1683,-0.1657,-0.1652,-0.1584,-0.162,-0.1681,-0.1771,-0.1842,-0.1907,-0.1967,-0.2016,-0.2057,-0.2087,-0.3869,-0.5594,-0.6671,-0.8687,-1.0378,-1.1527,-1.1619,-1.1619,-1.1619,-1.1619,-1.1619,-1.1619,-1.1619,-1.1619,-1.1619,-1.1619,-1.1619,-1.1619,-1.1619,-1.1619,-1.1619,-1.2402,-1.2824,-1.2824,-1.3611,-1.3904,0.0,-1.3904,-1.3904,-1.3904,-1.3904,-1.3904,-1.3904,-1.3904,-1.3904,-1.3904,-1.3904,-1.3904,-1.3904,-1.3904,-1.3904,-1.3904,-1.3904,-1.3904,-1.3904,-1.3904,-1.3904,-1.3904,-1.3904,-1.3904,-1.3904,-1.3904,-1.3904,-1.3904,-1.3904,-1.3904,-1.3904,-1.3904,-1.3904,-1.3904,-1.3904,-1.3904,-1.3904,-1.3904,-1.3904,-1.3904,-1.3904,-1.3904,-1.3904,-1.3904,-1.3685,-1.3539,-1.3539,-1.3433,-1.3368,-1.3368,-1.3368,-1.3336,-1.3262,-1.3262,-1.323,-1.3157,-1.3051,-1.2994,-1.2994,-1.2889,-1.2774,-1.2774,-1.2774,-1.2774,-0.0672,-0.092,-0.1167,-0.1727,-0.1886,-0.1899,-0.1829,-0.1774,-0.1756,-0.1583,-0.1558,-0.1554,-0.1542,-0.1575,-0.1633,0.0,0.0,-0.1891,-0.1943,-0.2001,-0.2056,-0.2104,-0.3424,-0.4803,-0.5939,-0.792,-0.9736,-1.1395,-1.1592,-1.1619,-1.1619,-1.1619,-1.1619,-1.1619,-1.1619,-1.1619,-1.1619,-1.1619,-1.1619,-1.1619,-1.1619,-1.1691,-1.1835,-1.2474,-1.2824,-1.2968,-1.3611,-1.3904,0.0,-1.3904,-1.3904,-1.3904,-1.3904,-1.3904,-1.3904,-1.3904,-1.3904,-1.3904,-1.3904,-1.3904,-1.3904,-1.3904,-1.3904,-1.3904,-1.3904,-1.3904,-1.3904,-1.3904,-1.3904,-1.3904,-1.3904,-1.3904,-1.3904,-1.3904,-1.3904,-1.3904,-1.3904,-1.3904,-1.3904,-1.3904,-1.3904,-1.3904,-1.3904,-1.3904,-1.3904,-1.3904,-1.3904,-1.3904,-1.3904,-1.3904,-1.3904,-1.3904,-1.379,-1.3717,-1.3717,-1.3604,-1.353,-1.353,-1.353,-1.3506,-1.3449,-1.3449,-1.3425,-1.3376,-1.3246,-1.3173,-1.3173,-1.3003,-1.2913,-1.2913,-1.3252,-1.3875,-0.0421,-0.0724,-0.1091,-0.1415,-0.1689,-0.1862,-0.1826,-0.1727,-0.167,-0.1551,-0.1479,-0.1535,-0.1565,-0.1621,-0.16,-0.169,0.0,0.0,-0.1883,-0.1939,-0.2009,-0.2098,-0.3424,-0.437,-0.4613,-0.7491,-0.9887,-1.1332,-1.1531,-1.1619,-1.1619,-1.1619,-1.1619,-1.1619,-1.1619,-1.1619,-1.1619,-1.1619,-1.1619,-1.1619,-1.1619,-1.1835,-1.2194,-1.2617,-1.2968,-1.3325,-1.3682,-1.3904,0.0,-1.3904,-1.3904,-1.3904,-1.3904,-1.3904,-1.3904,-1.3904,-1.3904,-1.3904,-1.3904,-1.3904,-1.3904,-1.3904,-1.3904,-1.3904,-1.3904,-1.3904,-1.3904,-1.3904,-1.3904,-1.3904,-1.3904,-1.3904,-1.3904,-1.3904,-1.3904,-1.3904,-1.3904,-1.3904,-1.3904,-1.3904,-1.3904,-1.3904,-1.3904,-1.3904,-1.3904,-1.3904,-1.3904,-1.3904,-1.3904,-1.3904,-1.3904,-1.3904,-1.3896,-1.3896,-1.3896,-1.3896,-1.3896,-1.3896,-1.3896,-1.3823,-1.3582,-1.3574,-1.3555,-1.3376,-1.3368,-1.3368,-1.3368,-1.3181,-1.3092,-1.3151,-1.4349,-1.6333,-0.0407,-0.0706,-0.1008,-0.1355,-0.1608,-0.1835,-0.173,-0.168,-0.1615,-0.1516,-0.1495,-0.1498,-0.1508,-0.1509,-0.1553,-0.1682,-0.1763,0.0,-0.1907,-0.1951,-0.2009,-0.2098,-0.351,-0.4974,-0.6038,-0.8098,-0.9928,-1.1409,-1.1592,-1.1619,-1.1619,-1.1518,-1.1511,-1.1613,-1.1619,-1.1619,-1.1619,-1.1619,-1.1619,-1.1619,-1.1619,-1.1835,-1.2194,-1.2617,-1.2968,-1.3325,-1.3753,-1.3904,-1.3904,-1.3904,-1.3904,-1.3904,-1.3904,-1.3904,-1.3904,-1.3904,-1.3904,-1.3904,-1.3904,-1.3904,-1.3904,-1.3904,-1.3904,-1.3904,-1.3904,-1.3904,-1.3904,-1.3904,-1.3904,-1.3904,-1.3904,-1.3904,-1.3904,-1.3904,-1.3904,-1.3904,-1.3904,-1.3904,-1.3904,-1.3904,-1.3904,-1.3904,-1.3904,-1.3904,-1.3904,-1.3904,-1.3904,-1.3904,-1.3904,-1.3904,-1.3904,-1.3904,-1.3904,-1.3904,-1.3904,-1.3904,-1.3904,-1.3904,-1.3904,-1.388,-1.3823,-1.3823,-1.379,-1.3734,-1.362,-1.3555,-1.3555,-1.3376,-1.3214,-1.3159,-1.4349,-1.5879,-0.0281,-0.0626,-0.0972,-0.1132,-0.1492,-0.1722,-0.1681,-0.1643,-0.1594,-0.1515,-0.1498,-0.1501,-0.1513,-0.1515,-0.1557,-0.1684,-0.1765,-0.184,-0.1919,-0.1958,-0.2009,-0.2098,-0.309,-0.4293,-0.5803,-0.7438,-0.9053,-1.0525,-1.1174,-1.1531,-1.1531,-1.1443,-1.1436,-1.1531,-1.1531,-1.1558,-1.1619,-1.1619,-1.1619,-1.1619,-1.1619,-1.1835,-1.2194,-1.2617,-1.2968,-1.3325,-1.3753,-1.3904,0.0,-1.3904,-1.3904,-1.3904,-1.3904,-1.3904,-1.3904,-1.3904,-1.3904,-1.3904,-1.3904,-1.3904,-1.3904,-1.3904,-1.3904,-1.3904,-1.3904,-1.3904,-1.3904,-1.3904,-1.3904,-1.3904,-1.3904,-1.3904,-1.3904,-1.3904,-1.3904,-1.3904,-1.3904,-1.3904,-1.3904,-1.3904,-1.3904,-1.3904,-1.3904,-1.3904,-1.3904,-1.3904,-1.3904,-1.3904,-1.3904,-1.3904,-1.3904,-1.3904,-1.3904,-1.3904,-1.3904,-1.3904,-1.3904,-1.3904,-1.3904,-1.3904,-1.3904,-1.3904,-1.3904,-1.3904,-1.3798,-1.3742,-1.3742,-1.3563,-1.3651,-1.3992,-1.5186,-1.6588,0.0,-0.0436,-0.0873,-0.0872,-0.129,-0.1631,-0.1629,-0.1615,0.0,-0.154,-0.1479,-0.1536,-0.1569,-0.1622,-0.1602,-0.1696,-0.1783,-0.1804,-0.1862,-0.196,-0.2015,-0.2102,-0.2217,-0.2844,-0.4278,-0.6008,-0.7571,-0.8975,-1.0524,-1.1382,-1.1389,-1.1382,-1.1382,-1.1409,-1.1396,-1.1463,-1.1619,-1.1619,-1.1619,-1.1619,-1.1619,-1.1835,-1.2194,-1.2617,-1.2968,0.0,-1.3753,-1.3904,0.0,-1.3904,-1.3904,-1.3904,-1.3904,-1.3904,-1.3904,-1.3904,-1.3904,-1.3904,-1.3904,-1.3904,-1.3904,-1.3904,-1.3904,-1.3904,-1.3904,-1.3904,-1.3904,-1.3904,-1.3904,-1.3904,-1.3904,-1.3904,-1.3904,-1.3904,-1.3904,-1.3904,-1.3904,-1.3904,-1.3904,-1.3904,-1.3904,-1.3904,-1.3904,-1.3904,-1.3904,-1.3904,-1.3904,-1.3904,-1.3904,-1.3904,-1.3904,-1.3904,-1.3904,-1.3904,-1.3904,-1.3904,-1.3904,-1.3904,-1.3904,-1.3904,-1.3904,-1.3904,-1.3904,-1.3904,-1.3904,-1.3904,-1.3904,-1.3725,-1.4241,-1.5409,-1.6676,-1.8147,0.0,0.0,-0.0588,-0.0791,-0.1089,-0.1378,0.0,-0.1599,-0.1579,-0.1564,-0.1542,-0.1542,-0.1596,-0.1587,-0.1615,-0.1752,-0.181,-0.1804,-0.1862,-0.1996,-0.2133,-0.2136,-0.221,-0.2825,-0.4401,-0.5923,-0.7505,-0.897,-1.0436,-1.1267,-1.1382,-1.128,-1.1321,-1.1558,-1.145,-1.1463,-1.1619,-1.1619,-1.1619,-1.1619,-1.1619,-1.1835,-1.2194,-1.2617,-1.2968,-1.3325,-1.3753,-1.3904,-1.3904,-1.3904,-1.3904,-1.3904,-1.3904,-1.3904,-1.3904,-1.3904,-1.3904,-1.3904,-1.3904,-1.3904,-1.3904,-1.3904,-1.3904,-1.3904,-1.3904,-1.3904,-1.3904,-1.3904,-1.3904,-1.3904,-1.3904,-1.3904,-1.3904,-1.3904,-1.3904,-1.3904,-1.3904,-1.3904,-1.3904,-1.3904,-1.3904,-1.3904,-1.3904,-1.3904,-1.3904,-1.3904,-1.3904,-1.3904,-1.3904,-1.3904,-1.3904,-1.3904,-1.3904,-1.3904,-1.3904,-1.3904,-1.3904,-1.3904,-1.3904,-1.3904,-1.3904,-1.3904,-1.3904,-1.3904,-1.3904,-1.3904,-1.3904,-1.3725,-1.4039,-1.4952,-1.6777,-1.8083,0.0,-0.0204,-0.0466,-0.0712,-0.1011,-0.126,-0.1549,-0.1605,-0.1663,-0.1663,-0.161,-0.1618,-0.1651,-0.1678,-0.1716,-0.1785,-0.1855,-0.1914,-0.1947,-0.2053,-0.2123,-0.218,-0.2203,-0.2549,-0.3398,-0.4905,-0.6413,-0.7903,-0.9352,-1.0499,-1.128,-1.1274,-1.1341,-1.1511,-1.1504,-1.1538,-1.1619,-1.1619,-1.1619,-1.1619,-1.1619,-1.1691,-1.1907,-1.2545,-1.2896,-1.3111,-1.3682,0.0,-1.3904,-1.3904,-1.3904,-1.3904,-1.3904,-1.3904,-1.3904,-1.3904,-1.3904,-1.3904,-1.3904,-1.3904,-1.3904,-1.3904,-1.3904,-1.3904,-1.3904,-1.3904,-1.3904,-1.3904,-1.3904,-1.3904,-1.3904,-1.3904,-1.3904,-1.3904,-1.3904,-1.3904,-1.3904,-1.3904,-1.3904,-1.3904,-1.3904,-1.3904,-1.3904,-1.3904,-1.3904,-1.3904,-1.3904,-1.3904,-1.3904,-1.3904,-1.3904,-1.3904,-1.3904,-1.3904,-1.3904,-1.3904,-1.3904,-1.3904,-1.3904,-1.3904,-1.3904,-1.3904,-1.3904,-1.3904,-1.3904,-1.3904,-1.3904,-1.3807,-1.4322,-1.5429,-1.707,-1.8462,0.0,-0.015,-0.0405,-0.0694,-0.095,-0.1213,-0.1492,-0.1628,-0.1721,-0.1721,-0.1692,-0.1714,-0.1723,-0.1789,-0.1778,-0.1819,-0.1906,-0.1981,-0.1994,-0.2106,-0.2161,-0.2093,-0.2203,-0.2274,-0.2178,-0.3608,-0.5186,-0.6587,-0.8129,-0.9613,-1.1089,-1.1307,-1.1402,-1.1423,-1.1552,-1.1619,-1.1619,-1.1619,-1.1619,-1.1619,-1.1619,-1.1619,-1.1619,-1.2402,-1.2824,-1.2824,0.0,0.0,-1.3904,-1.3904,-1.3904,-1.3904,-1.3904,-1.392,-1.3945,-1.3945,-1.3961,-1.3985,-1.3985,-1.3985,-1.3985,-1.3985,-1.3985,-1.3985,-1.3985,-1.3985,-1.3985,-1.3985,-1.3945,-1.3904,-1.3904,-1.3904,-1.3904,-1.3904,-1.3904,-1.3904,-1.3904,-1.3904,-1.3904,-1.3904,-1.3904,-1.3904,-1.3904,-1.3904,-1.3904,-1.3904,-1.3904,-1.3904,-1.3904,-1.3904,-1.3904,-1.3904,-1.3904,-1.3904,-1.3904,-1.3904,-1.3904,-1.3904,-1.3904,-1.3904,-1.3904,-1.3904,-1.3904,-1.3904,-1.411,-1.4252,-1.4252,-1.4466,-1.531,-1.6635,-1.776,-1.9255,0.0,-0.0052,-0.0105,-0.0406,-0.0714,-0.1034,-0.1289,-0.1517,-0.1697,-0.1697,-0.1722,-0.1759,-0.181,-0.1774,-0.1797,-0.1903,-0.1948,-0.2003,-0.2078,-0.2109,-0.2138,-0.2174,-0.2222,-0.218,-0.2175,-0.3577,-0.5023,-0.6409,-0.7971,-0.9513,-1.1089,-1.1307,-1.145,-1.1579,-1.1606,-1.1619,-1.1619,-1.1619,-1.1619,-1.1619,-1.1619,-1.1619,-1.1619,-1.2402,-1.2824,-1.2824,0.0,-1.3904,-1.3904,-1.3904,-1.3904,-1.3904,-1.3904,-1.3993,-1.414,-1.414,-1.4229,-1.4351,-1.4351,-1.4351,-1.4351,-1.4351,-1.4351,-1.4351,-1.4351,-1.4351,-1.4351,-1.4351,-1.4131,-1.3904,-1.3904,-1.3904,-1.3904,-1.3904,-1.3904,-1.3904,-1.3904,-1.3904,-1.3904,-1.3904,-1.3904,-1.3904,-1.3904,-1.3904,-1.3904,-1.3904,-1.3904,-1.3904,-1.3904,-1.3904,-1.3904,-1.3904,-1.3904,-1.3904,-1.3904,-1.3904,-1.3904,-1.3904,-1.3904,-1.3904,-1.3904,-1.3904,-1.3904,-1.3904,-1.5097,-1.5726,-1.5806,-1.7057,-1.817,-1.9019,-1.9819,-2.0707,0.0,0.0,-0.0052,-0.0156,-0.0531,-0.0978,-0.1261,-0.1558,-0.1802,-0.1802,-0.1827,-0.1851,-0.1862,-0.1892,-0.1933,-0.1993,-0.2029,-0.2063,-0.2104,-0.2138,-0.2169,-0.2196,-0.2241,-0.2263,-0.2176,-0.2805,-0.3841,-0.5263,-0.685,-0.8416,-1.0004,-1.0999,-1.1545,-1.1619,-1.1619,-1.1619,-1.1619,-1.1619,-1.1619,-1.1619,-1.1619,-1.1619,-1.1619,-1.2402,-1.2877,-1.2959,0.0,-1.4099,-1.4188,-1.4188,-1.4188,-1.4188,-1.4188,-1.4237,-1.4318,-1.4318,-1.4367,-1.4432,-1.4432,-1.4432,-1.4432,-1.4432,-1.4432,-1.4432,-1.4432,-1.4432,-1.4432,-1.4432,-1.4318,-1.4188,-1.4188,-1.4188,-1.4188,-1.4188,-1.4188,-1.4188,-1.4188,-1.4188,-1.4164,-1.4066,-1.405,-1.4018,-1.392,-1.3904,-1.3904,-1.3904,-1.3904,-1.3904,-1.3904,-1.3904,-1.3904,-1.3904,-1.3904,-1.3904,-1.3904,-1.3904,-1.3904,-1.3904,-1.3904,-1.3904,-1.3904,-1.4884,-1.531,-1.5097,-1.6775,-1.7539,-1.7338,-1.803,-1.9008,-2.0132,-2.0698,-2.154,0.0,0.0,0.0,0.0,-0.0389,-0.085,-0.1152,-0.1523,-0.1778,-0.1896,-0.1915,-0.1926,-0.191,-0.1951,-0.2005,-0.2065,-0.2094,-0.2112,-0.2119,-0.2166,-0.22,-0.22,-0.2241,-0.226,-0.2237,-0.2234,-0.2791,-0.4247,-0.5931,-0.7515,-0.903,-1.0668,-1.1619,-1.1619,-1.1619,-1.1619,-1.1619,-1.1619,-1.1619,-1.1619,-1.1619,-1.164,-1.1667,-1.2453,-1.2902,-1.3066,-1.3872,-1.431,-1.4432,-1.4432,-1.4432,-1.4432,-1.4432,-1.4456,-1.4505,-1.4546,-1.4554,-1.4554,-1.4554,-1.4554,-1.4554,-1.4554,-1.4554,-1.4554,-1.4554,-1.4554,-1.4554,-1.4554,-1.4554,-1.4538,-1.4456,-1.4432,-1.4432,-1.4432,-1.4432,-1.4432,-1.4432,-1.4432,-1.4391,-1.4261,-1.4237,-1.4196,-1.405,-1.4026,-1.401,-1.3969,-1.3969,-1.3953,-1.3904,-1.3904,-1.3904,-1.3904,-1.3904,-1.3904,-1.3904,-1.3904,-1.3904,-1.3904,-1.3904,-1.3904,-1.3904,-1.5584,-1.6433,-1.6079,-1.8239,-1.9147,-1.8949,-1.9356,-2.0132,-2.1252,-2.1665,-2.2435,0.0,0.0,0.0,0.0,-0.0232,-0.0519,-0.0937,-0.1251,-0.1506,-0.1807,-0.1929,-0.1939,-0.1966,-0.1994,-0.2035,-0.2095,-0.2108,-0.2119,-0.2214,-0.218,-0.22,-0.22,-0.2204,-0.2206,-0.2203,-0.2203,-0.2752,-0.4192,-0.5899,-0.7515,-0.903,-1.0668,-1.1619,-1.1619,-1.1619,-1.1619,-1.1619,-1.1619,-1.1619,-1.1619,-1.1619,-1.1687,-1.1816,-1.2619,-1.3081,-1.3237,-1.4046,-1.4424,-1.4432,-1.4432,-1.4432,-1.4432,-1.4432,-1.4538,-1.4708,-1.4871,-1.4927,-1.4927,-1.4927,-1.4927,-1.4927,-1.4927,-1.4927,-1.4927,-1.4927,-1.4927,-1.4927,-1.4927,-1.4927,-1.4846,-1.4513,-1.4432,-1.4432,-1.4432,-1.4432,-1.4432,-1.4432,-1.4432,-1.4424,-1.4416,-1.4416,-1.4408,-1.4391,-1.4391,-1.4343,-1.418,-1.4156,-1.4099,-1.392,-1.3904,-1.3904,-1.3904,-1.3904,-1.3904,-1.3904,-1.3904,-1.3904,-1.3904,-1.3904,-1.3904,-1.3904,-1.531,-1.615,-1.6079,-1.8949,-2.0491,-2.0421,-2.2216,-2.3119,-2.3201,-2.3611,-2.3884,0.0,0.0,0.0,0.0,-0.006,-0.0306,-0.087,-0.1244,-0.1551,-0.1923,-0.2001,-0.2018,-0.2029,-0.2054,-0.2089,-0.2131,-0.2138,-0.2154,-0.2204,-0.2188,-0.2185,-0.2223,-0.2211,-0.22,-0.22,-0.22,-0.2414,-0.292,-0.45,-0.6082,-0.7697,-0.9264,-1.0584,-1.1548,-1.1619,-1.1619,-1.1619,-1.1708,-1.1748,-1.1748,-1.1748,-1.1782,-1.1837,-1.2448,-1.2873,-1.3025,-1.3619,-1.4065,-1.4394,-1.4394,-1.4546,-1.4765,-1.4765,-1.4806,-1.4879,-1.4944,-1.4968,-1.4968,-1.4968,-1.4968,-1.4968,-1.4968,-1.4968,-1.4968,-1.4968,-1.4968,-1.4968,-1.4968,-1.4968,-1.4935,-1.4797,-1.4765,-1.4765,-1.4765,-1.4765,-1.4765,-1.4765,-1.4765,-1.4732,-1.4627,-1.4603,-1.457,-1.4448,-1.4432,-1.4408,-1.4343,-1.4335,-1.431,-1.4237,-1.414,-1.4075,-1.4075,-1.3969,-1.3904,-1.3904,-1.3904,-1.4395,-1.5584,-1.4537,-1.4324,-1.5239,-1.6916,-1.817,-1.8879,-2.1183,-2.2229,-2.2022,-2.2722,-2.3065,-2.3133,-2.3475,-2.3611,0.0,0.0,0.0,0.0,-0.0061,-0.0315,-0.0899,-0.1151,-0.1463,-0.1917,-0.2056,-0.2131,-0.2076,-0.2095,-0.212,-0.2217,-0.223,-0.218,-0.2213,-0.2189,-0.2184,-0.2226,-0.2204,-0.2189,-0.2199,-0.22,-0.2208,-0.2229,-0.367,-0.5242,-0.6845,-0.8368,-0.9954,-1.1541,-1.1619,-1.164,-1.1687,-1.1782,-1.1857,-1.1904,-1.1952,-1.1979,-1.1979,-1.2454,-1.2813,-1.2956,-1.3413,-1.3869,-1.4368,-1.4368,-1.4669,-1.4968,-1.4968,-1.4968,-1.4968,-1.4968,-1.4968,-1.4968,-1.4968,-1.4968,-1.4968,-1.4968,-1.4968,-1.4968,-1.4968,-1.4968,-1.4968,-1.4968,-1.4968,-1.4968,-1.4968,-1.4968,-1.4968,-1.4968,-1.4968,-1.4968,-1.4968,-1.4968,-1.4927,-1.4814,-1.4789,-1.4749,-1.4619,-1.4603,-1.4578,-1.4529,-1.4521,-1.4497,-1.444,-1.4326,-1.4261,-1.4261,-1.4148,-1.4114,-1.4344,-1.4344,-1.5096,-1.6926,-1.5867,-1.5655,-1.6916,-1.8589,-1.9843,-2.0768,-2.2366,-2.3201,-2.3065,-2.3065,-2.3065,-2.3065,-2.3543,-2.3747,0.0,0.0,0.0,0.0,-0.0247,-0.056,-0.0897,-0.1031,-0.123,-0.1971,-0.2086,-0.2074,-0.2104,-0.2109,-0.212,-0.2217,-0.218,-0.2189,-0.2227,-0.2181,-0.22,-0.22,-0.2173,-0.2166,-0.2196,-0.22,-0.22,-0.22,-0.3681,-0.5274,-0.6768,-0.8328,-0.9883,-1.1541,-1.1619,-1.1687,-1.183,-1.1837,-1.1911,-1.2067,-1.2223,-1.2291,-1.2291,-1.2733,-1.297,-1.312,-1.3505,-1.3975,-1.4368,-1.4368,-1.4669,-1.4968,-1.4968,-1.4968,-1.4968,-1.4968,-1.4968,-1.4968,-1.4968,-1.4968,-1.4968,-1.4968,-1.4968,-1.4968,-1.4968,-1.4968,-1.4968,-1.4968,-1.4968,-1.4968,-1.4968,-1.4968,-1.4968,-1.4968,-1.4968,-1.4968,-1.4968,-1.4968,-1.4968,-1.4968,-1.4968,-1.4968,-1.4968,-1.4968,-1.4911,-1.4732,-1.4708,-1.4643,-1.4456,-1.4432,-1.4432,-1.4432,-1.4432,-1.4653,-1.5279,-1.5334,-1.6028,-1.771,-1.783,-1.817,-1.8927,-1.9993,-2.0768,-2.1252,-2.2366,-2.3065,-2.3406,-2.3406,-2.3406,-2.3406,-2.4156,-2.4495,0.0,0.0,0.0,0.0,-0.0255,-0.0582,-0.0968,-0.1024,-0.1152,-0.1639,-0.1905,-0.2105,-0.2135,-0.2142,-0.2151,-0.2181,-0.2176,-0.2173,-0.2185,-0.2176,-0.2169,-0.2169,-0.2228,-0.2225,-0.2168,-0.2188,-0.22,-0.22,-0.2643,-0.3593,-0.5202,-0.6768,-0.8346,-1.0073,-1.1179,-1.1843,-1.1993,-1.2101,-1.2176,-1.2223,-1.2372,-1.2386,-1.2291,-1.2539,-1.2615,-1.2656,-1.2811,-1.3274,-1.3975,-1.4584,-1.4891,-1.4968,-1.4968,-1.4968,-1.4968,-1.4968,-1.4968,-1.4968,-1.4968,-1.4968,-1.4968,-1.4968,-1.4968,-1.4968,-1.4968,-1.4968,-1.4968,-1.4968,-1.4968,-1.4968,-1.4968,-1.4968,-1.4968,-1.4968,-1.4968,-1.4968,-1.4968,-1.4968,-1.4968,-1.4968,-1.4968,-1.4968,-1.4968,-1.4968,-1.4952,-1.4895,-1.4887,-1.483,-1.4651,-1.4627,-1.4578,-1.4448,-1.495,-1.5367,-1.5609,-1.6113,-1.717,-1.9051,-1.8745,-1.9197,-2.0825,-2.117,-2.1941,-2.3119,-2.3475,-2.3747,-2.3816,-2.3816,-2.3816,-2.3816,-2.4034,-2.4156,0.0,0.0,0.0,0.0,-0.0323,-0.0789,-0.1239,-0.1364,-0.1566,-0.1801,-0.201,-0.2151,-0.2169,-0.2183,-0.2189,-0.2183,-0.2177,-0.2174,-0.2181,-0.2234,-0.2223,-0.2223,-0.2223,-0.2223,-0.2223,-0.2193,-0.2213,-0.2202,-0.224,-0.2908,-0.4493,-0.6162,-0.7756,-0.9465,-1.1074,-1.1993,-1.2149,-1.2244,-1.2318,-1.2372,-1.2461,-1.2461,-1.2379,-1.2461,-1.2501,-1.2501,-1.2811,-1.3274,-1.3737,-1.4661,-1.4968,-1.4968,-1.4968,-1.4968,-1.4968,-1.4968,-1.4968,-1.4968,-1.4968,-1.4968,-1.4968,-1.4968,-1.4968,-1.4968,-1.4968,-1.4968,-1.4968,-1.4968,-1.4968,-1.4968,-1.4968,-1.4968,-1.4968,-1.4968,-1.4968,-1.4968,-1.4968,-1.4968,-1.4968,-1.4968,-1.4968,-1.4968,-1.4968,-1.4968,-1.4968,-1.4968,-1.4968,-1.4927,-1.4822,-1.4814,-1.4765,-1.4659,-1.5094,-1.5509,-1.5729,-1.6175,-1.7384,-1.9558,-1.9332,-2.0177,-2.2553,-2.2194,-2.264,-2.4156,-2.4088,-2.4088,-2.4224,-2.4088,-2.4034,-2.4034,-2.4283,-2.4351,0.0,0.0,0.0,0.0,-0.0517,-0.1121,-0.1521,-0.1938,-0.2166,-0.2195,-0.2202,-0.2203,-0.22,-0.2225,-0.2225,-0.2232,-0.218,-0.2189,-0.2227,-0.2223,-0.2223,-0.2223,-0.2223,-0.2223,-0.2223,-0.221,-0.2232,-0.2199,-0.2258,-0.2936,-0.4282,-0.6062,-0.7679,-0.9282,-1.1021,-1.1992,-1.2311,-1.2311,-1.2372,-1.2501,-1.2501,-1.2501,-1.2501,-1.2501,-1.2501,-1.2579,-1.3351,-1.3667,-1.3737,-1.4661,-1.4968,-1.4968,-1.4968,-1.4968,-1.4968,-1.4968,-1.4968,-1.4968,-1.4968,-1.4968,-1.4968,-1.4968,-1.4968,-1.4968,-1.4968,-1.4968,-1.4968,-1.4968,-1.4968,-1.4968,-1.4968,-1.4968,-1.4968,-1.4968,-1.4968,-1.4968,-1.4968,-1.4968,-1.4968,-1.4968,-1.4968,-1.4968,-1.4968,-1.4968,-1.4968,-1.4968,-1.4968,-1.4968,-1.4968,-1.4968,-1.4968,-1.4968,-1.5122,-1.5353,-1.5789,-1.6082,-1.7113,-1.9406,-1.9591,-2.0873,-2.3825,-2.3024,-2.3132,-2.4538,-2.4266,-2.4266,-2.4563,-2.4224,-2.4088,-2.4102,-2.4727,-2.4865,0.0,0.0,0.0,0.0,-0.0525,-0.1193,-0.1559,-0.1981,-0.2124,-0.1854,-0.201,-0.2229,-0.2204,-0.2225,-0.2225,-0.2232,-0.218,-0.2189,-0.2227,-0.2223,-0.2223,-0.2223,-0.2223,-0.2223,-0.2223,-0.221,-0.2222,-0.2169,-0.2263,-0.2458,-0.2791,-0.4338,-0.6051,-0.7844,-0.9382,-1.0963,-1.2454,-1.2454,-1.2474,0.0,-1.2501,-1.2501,-1.2501,-1.2501,-1.2501,-1.2579,-1.3351,-1.3667,-1.3737,-1.4661,-1.4968,-1.4968,-1.4968,-1.4968,-1.4968,-1.4968,-1.4968,-1.4968,-1.4968,-1.4968,-1.4968,-1.4968,-1.4968,-1.4968,-1.4968,-1.4968,-1.4968,-1.4968,-1.4968,-1.4968,-1.4968,-1.4968,-1.4968,-1.4968,-1.4968,-1.4968,-1.4968,-1.4968,-1.4968,-1.4968,-1.4968,-1.4968,-1.4968,-1.4968,-1.4968,-1.4968,-1.4968,-1.4968,-1.4968,-1.4968,-1.4968,-1.4968,-1.6109,-1.6703,-1.6124,-1.7871,-1.8984,-1.8857,-1.9287,-2.0213,-2.174,-2.3073,-2.4274,-2.5295,-2.5212,-2.5095,-2.4984,-2.4916,-2.4849,-2.4849,-2.4989,-2.512,0.0,0.0,-0.0065,-0.0199,-0.0659,-0.1185,-0.1637,-0.1935,-0.2083,-0.1735,-0.1955,-0.2175,-0.1964,-0.2104,-0.223,-0.2184,-0.2189,-0.2189,-0.2227,-0.2223,-0.2223,-0.2223,-0.2223,-0.2223,-0.2223,-0.2196,-0.221,-0.2178,-0.2262,-0.2312,-0.2311,-0.3869,-0.5661,-0.7451,-0.9005,-1.0738,-1.2501,-1.2501,-1.2501,-1.2501,-1.2501,-1.2501,-1.2501,-1.2501,-1.2501,-1.2579,-1.3351,-1.3667,-1.3737,-1.4661,-1.4968,-1.4968,-1.4968,-1.4968,-1.4968,-1.4968,-1.4968,-1.4968,-1.4968,-1.4968,-1.4968,-1.4968,-1.4968,-1.4968,-1.4968,-1.4968,-1.4968,-1.4968,-1.4968,-1.4968,-1.4968,-1.4968,-1.4968,-1.4968,-1.4968,-1.4968,-1.4968,-1.4968,-1.4968,-1.4968,-1.4968,-1.4968,-1.4968,-1.4968,-1.4968,-1.4968,-1.4968,-1.4968,-1.4968,-1.5352,-1.5573,-1.5573,-1.6644,-1.7255,-1.6797,-1.794,-1.8926,-1.9445,-1.9789,-2.0906,-2.305,-2.4149,-2.4729,-2.4848,-2.5476,-2.5681,-2.552,-2.5359,-2.5286,-2.5286,-2.5447,-2.552,0.0,0.0,-0.0065,-0.04,-0.079,-0.1178,-0.1635,-0.1946,-0.2035,-0.1684,-0.1898,-0.2117,-0.1775,-0.1977,-0.2234,-0.2198,-0.2196,-0.2189,-0.2227,-0.2223,-0.2223,-0.2223,-0.2223,-0.2223,-0.2223,-0.2183,-0.22,-0.22,-0.2256,-0.2303,-0.2331,-0.3686,-0.525,-0.6991,-0.8679,-1.0343,-1.203,-1.2347,-1.2501,-1.2501,-1.2501,-1.2501,-1.2501,-1.2501,-1.2501,-1.2579,-1.3351,-1.3667,-1.3737,-1.4661,-1.4968,-1.4968,-1.4968,-1.4968,-1.4968,-1.4968,-1.4968,-1.4968,-1.4968,-1.4968,-1.4968,-1.4968,-1.4968,-1.4968,-1.4968,-1.4968,-1.4968,-1.4968,-1.4968,-1.4968,-1.4968,-1.4968,-1.4968,-1.4968,-1.4968,-1.4968,-1.4968,-1.4968,-1.4968,-1.4968,-1.4968,-1.4968,-1.4968,-1.4968,-1.4968,-1.4968,-1.4968,-1.4968,-1.4968,-1.5573,-1.5956,-1.5956,-1.6873,-1.7321,-1.7178,-1.7778,-1.8754,-2.0338,-2.0703,-2.2136,-2.4757,-2.5125,-2.4966,-2.4388,-2.5484,-2.6076,-2.6018,-2.574,-2.5622,-2.5622,-2.5886,-2.59,0.0,0.0,-0.0066,-0.0396,-0.079,-0.1192,-0.1639,-0.1737,-0.1684,-0.1262,-0.177,-0.2199,-0.1804,-0.1952,-0.2226,-0.217,-0.2183,-0.2189,-0.2227,-0.2223,-0.2223,-0.2223,-0.2223,-0.2223,-0.2223,-0.2183,-0.22,-0.22,-0.2256,-0.2303,-0.2331,-0.2582,-0.3529,-0.5302,-0.6995,-0.8655,-1.0319,-1.1798,-1.2501,-1.2501,-1.2501,-1.2501,-1.2501,-1.2501,-1.2501,-1.2579,-1.3351,-1.3667,-1.3737,-1.4661,-1.4968,-1.4968,-1.4968,-1.4968,-1.4968,-1.4968,-1.4968,-1.4968,-1.4968,-1.4968,-1.4968,-1.4968,-1.4968,-1.4968,-1.4968,-1.4968,-1.4968,-1.4968,-1.4968,-1.4968,-1.4968,-1.4968,-1.4968,-1.4968,-1.4968,-1.4968,-1.4968,-1.4968,-1.4968,-1.4968,-1.4968,-1.4968,-1.4968,-1.4968,-1.4968,-1.4968,-1.4968,-1.4968,-1.4968,-1.5122,-1.5198,-1.5198,-1.6492,-1.7102,-1.6415,-1.9208,-2.0864,-2.0414,-2.2061,-2.319,-2.3635,-2.4609,-2.5157,-2.5075,-2.5999,-2.6296,-2.6018,-2.5974,-2.5944,-2.5944,-2.6003,-2.6149,0.0,0.0,-0.0063,-0.0196,-0.0461,-0.0861,-0.1285,-0.1381,-0.133,-0.1111,-0.1543,-0.1833,-0.1463,-0.1795,-0.2191,-0.2181,-0.2177,-0.217,-0.2224,-0.2223,-0.2223,-0.2223,-0.2223,-0.2223,-0.2223,-0.2183,-0.22,-0.22,-0.2271,-0.2327,-0.2357,-0.2387,-0.3188,-0.497,-0.6634,-0.827,-1.0003,-1.1643,-1.2501,-1.2501,-1.2501,-1.2501,-1.2501,-1.2501,-1.2501,-1.2579,-1.3351,-1.3667,-1.3737,-1.4661,-1.4968,-1.4968,-1.4968,-1.4968,-1.4968,-1.4968,-1.4968,-1.4968,-1.4968,-1.4968,-1.4968,-1.4968,-1.4968,-1.4968,-1.4968,-1.4968,-1.4968,-1.4968,-1.4968,-1.4968,-1.4968,-1.4968,-1.4968,-1.4968,-1.4968,-1.4968,-1.4968,-1.4968,-1.4968,-1.4968,-1.4968,-1.4968,-1.4968,-1.4968,-1.4968,-1.4968,-1.4968,-1.4968,-1.4968,-1.542,-1.565,-1.565,-1.6721,-1.7702,-1.8527,-2.0037,-2.1538,-2.3029,-2.3931,-2.4683,-2.5419,-2.5946,-2.6239,-2.6239,-2.6547,-2.6705,-2.6559,-2.6383,-2.6296,-2.6296,-2.6296,-2.6369,0.0,0.0,0.0,-0.0129,-0.0391,-0.0717,-0.1133,-0.116,-0.1106,-0.1091,-0.1314,-0.147,-0.1182,-0.1707,-0.223,-0.2185,-0.2169,-0.2223,-0.2223,-0.2223,-0.2223,-0.2223,-0.2223,-0.2225,-0.2232,-0.2187,-0.2206,-0.2222,-0.2285,-0.2335,-0.2365,-0.2403,-0.2977,-0.427,-0.6421,-0.8066,-0.9382,-1.1488,-1.2501,-1.2501,-1.2501,-1.2501,-1.2501,-1.2501,-1.2579,-1.2656,-1.3428,-1.3744,-1.3975,-1.4661,-1.4968,-1.4968,-1.4968,-1.4968,-1.4968,-1.4968,-1.4968,-1.4968,-1.4968,-1.4968,-1.4968,-1.4968,-1.4968,-1.4968,-1.4968,-1.4968,-1.4968,-1.4968,-1.4968,-1.4968,-1.4968,-1.4968,-1.4968,-1.4968,-1.4968,-1.4968,-1.4968,-1.4968,-1.4968,-1.4968,-1.4968,-1.4968,-1.4968,-1.4968,-1.4968,-1.4968,-1.5198,-1.5267,-1.5267,-1.6033,-1.6492,-1.6492,-1.7245,-1.8309,-1.9811,-2.0714,-2.2211,-2.4596,-2.5345,-2.6093,-2.6983,-2.6983,-2.6983,-2.6983,-2.6983,-2.6983,-2.6983,-2.6822,-2.6749,-2.6749,-2.6837,-2.6866,0.0,0.0,-0.006,-0.0382,-0.0696,-0.1065,-0.1503,-0.1269,-0.1008,-0.0993,-0.1091,-0.1114,-0.1085,-0.1685,-0.2223,-0.2224,-0.2223,-0.2223,-0.2223,-0.2223,-0.2223,-0.2223,-0.2223,-0.2234,-0.2195,-0.2199,-0.2223,-0.2282,-0.229,-0.2305,-0.2334,-0.2391,-0.2425,-0.2504,-0.58,-0.7509,-0.7591,-1.0862,-1.2501,-1.2501,-1.2501,-1.2501,-1.2501,-1.2501,-1.2733,-1.312,-1.3505,-1.3975,-1.4361,-1.4814,-1.4968,-1.4968,-1.4968,-1.4968,-1.4968,-1.4968,-1.4968,-1.4968,-1.4968,-1.4968,-1.4968,-1.4968,-1.4968,-1.4968,-1.4968,-1.4968,-1.4968,-1.4968,-1.4968,-1.4968,-1.4968,-1.4968,-1.4968,-1.4968,-1.4968,-1.4968,-1.4968,-1.4968,-1.4968,-1.4968,-1.4968,-1.4968,-1.4968,-1.4968,-1.4968,-1.4968,-1.565,-1.6109,-1.6109,-1.6873,-1.7331,-1.7331,-1.8092,-1.8547,-1.8699,-2.1464,-2.3339,-2.3487,-2.5639,-2.691,-2.6983,-2.6983,-2.6983,-2.6983,-2.6983,-2.6983,-2.6983,-2.7276,-2.7422,-2.7437,-2.773,-2.7801,0.0,0.0,0.0,-0.0124,-0.0445,-0.0708,-0.0834,-0.0795,-0.0678,-0.0662,-0.088,-0.1102,-0.1081,-0.1696,-0.2177,-0.2225,-0.2223,-0.2223,-0.2223,-0.2223,-0.2223,-0.2223,-0.2223,-0.2166,-0.2198,-0.2218,-0.2247,-0.2288,-0.2326,-0.236,-0.239,-0.2431,-0.2462,-0.2481,-0.4683,-0.6967,-0.9071,-1.1333,-1.2501,-1.2501,-1.2501,-1.2501,-1.2501,-1.2501,-1.2888,-1.3505,-1.3667,-1.3975,-1.4438,-1.4814,-1.4968,-1.4968,-1.4968,-1.4968,-1.4968,-1.4968,-1.4968,-1.4968,-1.4968,-1.4968,-1.4968,-1.4968,-1.4968,-1.4968,-1.4968,-1.4968,-1.4968,-1.4968,-1.4968,-1.4968,-1.4968,-1.4968,-1.4968,-1.4968,-1.4968,-1.4968,-1.4968,-1.4968,-1.4968,-1.4968,-1.4968,-1.4968,-1.4968,-1.4968,-1.4968,-1.4968,-1.565,-1.6186,-1.6186,-1.6864,-1.7407,-1.7407,-1.7635,-1.8688,-2.0703,-2.1975,-2.3474,-2.5566,-2.6546,-2.6983,-2.6983,-2.6983,-2.6983,-2.6983,-2.6983,-2.6983,-2.6983,-2.7115,-2.7276,-2.7481,-2.7598,-2.7759,0.0,0.0,0.0,0.0,-0.0249,-0.0511,-0.0506,-0.0524,-0.0471,-0.0526,-0.0739,-0.0957,-0.1073,-0.1629,-0.2053,-0.2159,-0.2223,-0.2223,-0.2223,-0.2223,-0.2223,-0.2223,-0.2231,-0.2181,-0.2213,-0.2243,-0.2273,-0.2303,-0.235,0.0,-0.2408,-0.2447,-0.2793,-0.3295,-0.4938,-0.7197,-1.0008,-1.1643,-1.2501,-1.2501,-1.2501,-1.2501,-1.2501,-1.2501,-1.2965,-1.3667,-1.3667,-1.4053,-1.4592,-1.4891,-1.4968,-1.4968,-1.4968,-1.4968,-1.4968,-1.4968,-1.4968,-1.4968,-1.4968,-1.4968,-1.4968,-1.4968,-1.4968,-1.4968,-1.4968,-1.4968,-1.4968,-1.4968,-1.4968,-1.4968,-1.4968,-1.4968,-1.4968,-1.4968,-1.4968,-1.4968,-1.4968,-1.4968,-1.4968,-1.4968,-1.4968,-1.4968,-1.4968,-1.4968,-1.4968,-1.4968,-1.565,-1.6186,-1.6186,-1.7178,-1.7788,-1.7788,-1.8092,-1.9067,-2.1239,-2.2124,-2.3548,-2.5653,-2.6546,-2.6983,-2.6983,-2.6983,-2.6983,-2.6983,-2.6983,-2.6983,-2.6983,-2.71,-2.7261,-2.7481,-2.7583,-2.7803,0.0,0.0,0.0,0.0,-0.0236,-0.0486,-0.0501,-0.0517,-0.0525,-0.0518,-0.0534,-0.0681,-0.106,-0.1415,-0.1778,-0.2158,-0.2221,-0.2223,-0.2223,-0.2223,-0.2223,-0.2223,-0.2181,-0.2211,-0.2173,-0.2273,-0.2303,-0.2331,-0.236,-0.2378,-0.2379,-0.2438,-0.3258,-0.4857,-0.6577,-0.8214,-0.9931,-1.1566,-1.2424,-1.2501,-1.2501,-1.2501,-1.2501,-1.2501,-1.2965,-1.3667,-1.3667,-1.4199,-1.4968,-1.4968,-1.4968,-1.4968,-1.4968,-1.4968,-1.4968,-1.4968,-1.4968,-1.4968,-1.4968,-1.4968,-1.4968,-1.4968,-1.4968,-1.4968,-1.4968,-1.4968,-1.4968,-1.4968,-1.4968,-1.4968,-1.4968,-1.4968,-1.4968,-1.4968,-1.4968,-1.4968,-1.4968,-1.4968,-1.4968,-1.4968,-1.4968,-1.4968,-1.4968,-1.4968,-1.4968,-1.4968,-1.5727,-1.6262,-1.6262,-1.7635,-1.8623,-1.8623,-1.939,-1.9919,-1.9919,-2.2073,-2.3413,-2.3487,-2.5653,-2.6983,-2.6983,-2.6983,-2.6983,-2.6983,-2.6983,-2.6983,-2.6983,-2.7305,-2.7466,-2.7481,-2.7817,-2.8063,0.0,0.0,0.0,0.0,0.0,0.0,-0.0186,-0.0323,-0.04,-0.0197,-0.0333,-0.0606,-0.0992,-0.1327,-0.1731,-0.2056,-0.214,-0.223,-0.2184,-0.2169,-0.2223,-0.2223,-0.2181,-0.2211,-0.2173,-0.2273,-0.2303,0.0,-0.2341,-0.2364,-0.2409,-0.2469,-0.274,-0.314,-0.4782,-0.6499,-0.8136,-0.9853,-1.1327,-1.2501,-1.2501,-1.2501,-1.2501,-1.2501,-1.2965,-1.3667,-1.3667,-1.4199,-1.4968,-1.4968,-1.4968,-1.4968,-1.4968,-1.4968,-1.4968,-1.4968,-1.4968,-1.4968,-1.4968,-1.4968,-1.4968,-1.4968,-1.4968,-1.4968,-1.4968,-1.4968,-1.4968,-1.4968,-1.4968,-1.4968,-1.4968,-1.4968,-1.4968,-1.4968,-1.4968,-1.4968,-1.4968,-1.4968,-1.4968,-1.4968,-1.4968,-1.4968,-1.4968,-1.4968,-1.4968,-1.4968,-1.6186,-1.7102,-1.7102,-1.8547,-1.9542,-1.9542,-1.9768,-2.0221,-2.1037,-2.2521,-2.3783,-2.4683,-2.6166,-2.6983,-2.6983,-2.6983,-2.6983,-2.6983,-2.6983,-2.6983,-2.6983,-2.7086,-2.7247,-2.7495,-2.8037,-2.8461,0.0,0.0,0.0,0.0,0.0,0.0,-0.0061,-0.0127,-0.0265,-0.0066,-0.0134,-0.047,-0.0932,-0.1263,-0.1533,-0.2077,-0.214,-0.2146,-0.2177,-0.2177,-0.2173,-0.2173,-0.2211,-0.2245,-0.2263,-0.2292,-0.2315,-0.2331,-0.2345,-0.2378,-0.2439,-0.2476,-0.2502,-0.2514,-0.4155,-0.5796,-0.7513,-0.9148,-1.0862,-1.2501,-1.2501,-1.2501,-1.2501,-1.2501,-1.2888,-1.3428,-1.366,-1.413,-1.4737,-1.4968,-1.4968,-1.4968,-1.4968,-1.4968,-1.4968,-1.4968,-1.4968,-1.4968,-1.4968,-1.4968,-1.4968,-1.4968,-1.5017,-1.5082,-1.5082,-1.513,-1.5195,-1.5195,-1.5195,-1.5195,-1.5195,-1.5195,-1.5195,-1.5195,-1.5195,-1.5171,-1.5098,-1.5082,-1.5057,-1.4984,-1.4968,-1.4968,-1.4968,-1.5267,-1.5497,-1.5497,-1.6568,-1.7407,-1.7407,-1.8547,-1.939,-1.939,-1.9693,-2.0372,-2.1475,-2.2744,-2.3931,-2.5125,-2.6312,-2.6983,-2.6983,-2.6983,-2.6983,-2.6983,-2.6983,-2.6983,-2.6983,-2.6983,-2.7159,-2.7495,-2.7993,-2.8403,0.0,0.0,0.0,0.0,0.0,0.0,0.0,0.0,0.0,0.0,0.0,-0.0201,-0.0938,-0.1005,-0.1279,-0.1981,-0.208,-0.2059,-0.2155,-0.2177,-0.2191,-0.2195,-0.2245,-0.2282,-0.2286,-0.2311,-0.233,-0.2333,-0.2361,-0.2402,-0.2457,-0.2465,-0.2481,-0.2508,-0.3918,-0.5639,-0.7513,-0.8993,-1.063,-1.2501,-1.2501,-1.2501,-1.2501,-1.2501,-1.2733,-1.312,-1.3513,-1.3975,-1.4438,-1.4814,-1.4968,-1.4968,-1.4968,-1.4968,-1.4968,-1.4968,-1.4976,-1.4992,-1.4992,-1.5009,-1.5025,-1.5025,-1.5139,-1.5268,-1.5268,-1.5382,-1.5512,-1.5512,-1.5512,-1.5512,-1.5512,-1.5512,-1.5512,-1.5512,-1.5512,-1.5472,-1.5301,-1.5268,-1.522,-1.5057,-1.4992,-1.4968,-1.4968,-1.5573,-1.6109,-1.6109,-1.6797,-1.7407,-1.7407,-1.8168,-1.8774,-1.8774,-1.9542,-2.0447,-2.1325,-2.2744,-2.4005,-2.4904,-2.6239,-2.6983,-2.6983,-2.6983,-2.6983,-2.6983,-2.6983,-2.6983,-2.6983,-2.6983,-2.7159,-2.7481,-2.7759,-2.802,0.0,0.0,0.0,0.0,0.0,0.0,0.0,0.0,0.0,0.0,0.0,-0.013,-0.0521,-0.0586,-0.0785,-0.1193,-0.1469,-0.1819,-0.2187,-0.2154,-0.2136,-0.2161,-0.2195,-0.2228,-0.2252,-0.2281,-0.2308,-0.2331,-0.2361,-0.2383,-0.2395,-0.2443,-0.2472,-0.2477,-0.2813,-0.4471,-0.7435,-0.7825,-0.9537,-1.2501,-1.2501,-1.2501,-1.2501,-1.2501,-1.2733,-1.312,-1.3513,-1.3975,-1.4438,-1.4814,-1.4968,-1.4968,-1.4968,-1.4968,-1.4968,-1.4968,-1.5057,-1.5187,-1.5187,-1.5285,-1.5407,-1.5407,-1.5431,-1.5463,-1.5463,-1.5488,-1.5512,-1.5512,-1.5512,-1.5512,-1.5512,-1.5512,-1.5512,-1.5512,-1.5512,-1.5504,-1.5472,-1.5463,-1.5455,-1.5415,-1.5171,-1.4968,-1.4968,-1.5122,-1.519,-1.519,-1.6492,-1.7407,-1.7407,-1.8699,-1.9617,-1.9617,-2.0586,-2.0962,-2.0296,-2.3042,-2.4522,-2.3783,-2.58,-2.6983,-2.6983,-2.6983,-2.6983,-2.6983,-2.6983,-2.6983,-2.6983,-2.6983,-2.7159,-2.7481,-2.7539,-2.7876,0.0,0.0,0.0,0.0,0.0,0.0,0.0,0.0,0.0,0.0,0.0,-0.0126,-0.0446,-0.0508,-0.0634,-0.0966,-0.1363,-0.1638,-0.1662,-0.1943,-0.2161,-0.2176,-0.2204,-0.2229,-0.2174,-0.2259,-0.2281,-0.2309,-0.2326,-0.2348,-0.2376,-0.2421,-0.2454,-0.2469,-0.2499,-0.4079,-0.7435,-0.7513,-0.9148,-1.2501,-1.2501,-1.2501,-1.2501,-1.2501,-1.2579,-1.2811,-1.3428,-1.3821,-1.413,-1.4737,-1.5017,-1.509,-1.5,-1.5025,-1.5106,-1.5106,-1.522,-1.5374,-1.5374,-1.5439,-1.5512,-1.5512,-1.5577,-1.5642,-1.5642,-1.5707,-1.578,-1.578,-1.578,-1.578,-1.578,-1.578,-1.578,-1.578,-1.578,-1.5756,-1.5666,-1.5642,-1.5618,-1.5536,-1.5366,-1.5212,-1.5114,-1.541,-1.5573,-1.5573,-1.6644,-1.755,-1.794,-1.8699,-1.939,-1.9844,-2.0447,-2.0962,-2.1562,-2.3264,-2.4522,-2.5125,-2.6312,-2.6983,-2.6983,-2.6983,-2.6983,-2.6983,-2.6983,-2.6983,-2.6983,-2.6983,-2.7159,-2.7481,-2.7481,-2.7817,0.0,0.0,0.0,0.0,0.0,0.0,0.0,0.0,0.0,0.0,0.0,-0.006,-0.037,-0.043,-0.0489,-0.0864,-0.1179,-0.1312,-0.1009,-0.1575,-0.203,-0.2051,-0.2149,-0.2167,-0.2167,-0.2192,-0.2282,-0.229,-0.2312,-0.2338,-0.2368,-0.2403,-0.2435,-0.2459,-0.2495,-0.3922,-0.6967,-0.7357,-0.8993,-1.203,-1.2347,-1.2501,-1.2501,-1.2501,-1.2501,-1.2579,-1.3274,-1.366,-1.3744,-1.4546,-1.5029,-1.5228,-1.5074,-1.513,-1.5293,-1.5293,-1.5407,-1.5569,-1.5569,-1.5585,-1.5618,-1.5618,-1.5715,-1.5829,-1.5829,-1.5926,-1.5966,-1.5966,-1.5966,-1.5966,-1.5966,-1.5966,-1.5966,-1.5966,-1.5966,-1.6008,-1.5853,-1.5829,-1.5788,-1.5642,-1.5593,-1.5504,-1.5325,-1.5707,-1.6069,-1.6069,-1.6879,-1.7693,-1.8303,-1.8653,-1.9153,-1.9844,-2.007,-2.0962,-2.2893,-2.3487,-2.4609,-2.6546,-2.6838,-2.6983,-2.6983,-2.6983,-2.6983,-2.6983,-2.6983,-2.6983,-2.6983,-2.6983,-2.713,-2.7378,-2.7378,-2.77,0.0,0.0,0.0,0.0,0.0,0.0,0.0,0.0,0.0,0.0,0.0,0.0,-0.0058,0.0,0.0,-0.0114,-0.0408,-0.0591,-0.0584,-0.0972,-0.1339,-0.161,-0.1982,-0.2206,-0.2206,-0.2326,-0.2372,-0.2296,-0.2388,-0.2416,-0.2342,-0.2393,-0.2425,-0.2428,-0.2484,-0.3376,-0.5248,-0.6733,-0.8448,-1.0319,-1.1798,-1.2501,-1.2501,-1.2501,-1.2501,-1.2501,-1.2965,-1.3351,-1.3752,-1.4361,-1.4829,-1.5236,-1.5212,-1.5317,-1.5488,-1.5488,-1.5593,-1.574,-1.574,-1.5853,-1.5901,-1.5901,-1.5999,-1.6016,-1.6016,-1.6032,-1.5966,-1.5966,-1.5966,-1.5966,-1.5966,-1.5966,-1.5966,-1.5966,-1.5966,-1.604,-1.6016,-1.6016,-1.6008,-1.5991,-1.5853,-1.5691,-1.5512,-1.5543,-1.5614,-1.5614,-1.6798,-1.769,-1.7768,-1.8907,-1.9768,-1.9919,-2.0812,-2.1475,-2.1775,-2.3783,-2.5125,-2.5419,-2.6399,-2.6983,-2.6983,-2.6983,-2.6983,-2.6983,-2.6983,-2.6983,-2.6983,-2.6983,-2.7013,-2.7042,-2.7042,-2.7247,0.0,0.0,0.0,0.0,0.0,0.0,0.0,0.0,0.0,0.0,0.0,0.0,0.0,0.0,0.0,0.0,-0.0282,-0.0457,-0.0227,-0.0715,-0.1129,-0.1307,0.0,0.0,-0.2146,-0.2282,-0.2334,-0.2245,-0.2365,-0.2403,-0.2313,-0.2382,-0.2424,-0.2424,-0.2482,-0.3297,-0.5014,-0.6655,-0.837,-1.0008,-1.1721,-1.2501,-1.2501,-1.2501,-1.2501,-1.2501,-1.2965,-1.3402,-1.3886,-1.4422,-1.4964,-1.5545,-1.5545,-1.5593,-1.5666,-1.5666,-1.578,-1.5934,-1.5934,-1.5983,-1.5966,-1.5966,-1.5966,-1.5966,-1.5966,-1.5966,-1.5966,-1.5966,-1.5966,-1.5966,-1.5966,-1.5966,-1.5966,-1.5966,-1.5966,-1.5966,-1.5966,-1.5966,-1.5966,-1.5966,-1.5983,-1.591,-1.5837,-1.565,-1.5671,-1.6219,-1.6774,-1.7507,-1.8524,-1.9155,-1.9661,-2.007,-2.0505,-2.097,-2.1562,-2.319,-2.4449,-2.5125,-2.6312,-2.6983,-2.6983,-2.6983,-2.6983,-2.6983,-2.6983,-2.6983,-2.6983,-2.6983,-2.6983,-2.6983,-2.6983,-2.7159,0.0,0.0,0.0,0.0,0.0,0.0,0.0,0.0,0.0,0.0,0.0,0.0,0.0,0.0,0.0,0.0,0.0,-0.027,-0.0053,-0.0451,-0.0838,-0.0945,-0.1344,0.0,0.0,-0.2184,-0.2318,-0.2219,-0.2352,-0.2397,-0.2307,-0.2372,-0.2414,-0.2423,-0.2482,-0.3062,-0.4312,-0.642,-0.8136,-0.9304,-1.1488,-1.2501,-1.2501,-1.2501,-1.2501,-1.2501,-1.2859,-1.3404,-1.4061,-1.4395,-1.5058,-1.578,-1.5829,-1.5845,-1.5845,-1.5845,-1.5934,-1.5966,-1.5966,-1.5966,-1.5966,-1.5966,-1.5966,-1.5966,-1.5966,-1.5966,-1.5966,-1.5966,-1.5966,-1.5966,-1.5966,-1.5966,-1.5966,-1.5966,-1.5966,-1.5966,-1.5966,-1.5966,-1.5966,-1.5966,-1.5966,-1.5966,-1.5966,-1.5829,-1.5819,-1.6524,-1.6721,-1.7402,-1.8828,-1.9173,-1.9553,-2.0251,-2.0307,-2.0693,-2.1709,-2.2591,-2.3616,-2.473,-2.5548,-2.6166,-2.6473,-2.6546,-2.6692,-2.6983,-2.6983,-2.6983,-2.6983,-2.6983,-2.6983,-2.6983,-2.6983,-2.7115,0.0,0.0,0.0,0.0,0.0,0.0,0.0,0.0,0.0,0.0,0.0,0.0,0.0,0.0,0.0,0.0,0.0,0.0,0.0,0.0,-0.016,-0.0478,-0.1131,-0.1613,0.0,-0.2067,-0.2372,-0.2182,-0.2383,-0.2428,-0.2337,-0.2363,-0.2393,-0.2423,-0.2482,-0.2514,-0.2592,-0.5877,-0.7517,-0.7595,-1.094,-1.2501,-1.2501,-1.2501,-1.2501,-1.2508,-1.2657,-1.319,-1.4005,-1.4333,-1.5035,-1.5788,-1.5967,-1.5958,-1.5958,-1.5958,-1.5958,-1.5966,-1.5966,-1.5966,-1.5966,-1.5966,-1.5966,-1.5966,-1.5966,-1.5966,-1.5966,-1.5966,-1.5966,-1.5966,-1.5966,-1.5966,-1.5966,-1.5966,-1.5966,-1.5966,-1.5966,-1.5966,-1.5966,-1.5966,-1.5966,-1.5966,-1.5966,-1.5958,-1.6032,-1.6032,-1.6602,-1.7289,-1.8262,-1.8867,-1.9604,-2.0476,-2.0554,-2.109,-2.2156,-2.2299,-2.281,-2.3757,-2.364,-2.4005,-2.5198,-2.5272,-2.58,-2.6998,-2.6983,-2.6983,-2.6983,-2.6983,-2.6983,-2.6983,-2.6983,-2.6998,0.0,0.0,0.0,0.0,0.0,0.0,0.0,0.0,0.0,0.0,0.0,0.0,0.0,0.0,0.0,0.0,0.0,0.0,0.0,0.0,-0.0051,-0.016,-0.0761,-0.1306,-0.1586,0.0,0.0,-0.2179,-0.2365,-0.2399,-0.2309,-0.2333,-0.2371,-0.2421,-0.2463,-0.2493,-0.2514,-0.4703,-0.642,-0.7517,-0.9775,-1.1411,-1.2501,-1.2501,-1.2501,-1.2508,-1.2664,-1.3261,-1.4241,-1.4393,-1.5031,-1.5959,-1.6024,-1.5966,-1.5966,-1.5966,-1.5966,-1.5966,-1.5966,-1.5966,-1.5966,-1.5966,-1.5966,-1.5966,-1.5966,-1.5966,-1.5966,-1.5966,-1.5966,-1.5966,-1.5966,-1.5966,-1.5966,-1.5966,-1.5966,-1.5966,-1.5966,-1.5966,-1.5966,-1.5966,-1.5966,-1.5966,-1.5966,-1.5966,-1.6213,-1.6871,-1.762,-1.8469,-1.928,-2.0107,-2.0644,-2.0802,-2.0791,-2.0884,-2.1112,-2.1869,-2.2751,-2.396,-2.3947,-2.4428,-2.5711,-2.4882,-2.5499,-2.7553,-2.6578,-2.6478,-2.7305,-2.71,-2.6983,-2.6983,-2.6983,-2.6983,0.0,0.0,0.0,0.0,0.0,0.0,0.0,0.0,0.0,0.0,0.0,0.0,0.0,0.0,0.0,0.0,0.0,0.0,0.0,0.0,0.0,0.0,-0.0547,-0.1068,-0.1423,-0.195,-0.2255,-0.2176,-0.2335,-0.2357,0.0,0.0,-0.2341,-0.239,-0.2442,-0.2478,-0.2497,-0.4146,-0.5561,-0.6655,-0.8915,-1.0241,-1.0785,-1.1953,-1.2218,-1.1726,-1.2509,-1.3373,-1.4413,-1.4497,-1.5116,-1.5966,-1.5966,-1.5966,-1.5966,-1.5966,-1.5966,-1.5966,-1.5966,-1.5966,-1.5966,-1.5966,-1.5966,-1.5966,-1.5966,-1.5966,-1.5966,-1.5966,-1.5966,-1.5966,-1.5966,-1.5966,-1.5966,-1.5966,-1.5966,-1.5966,-1.5966,-1.5966,-1.5966,-1.5966,-1.5966,-1.5966,-1.5966,-1.5966,-1.6213,-1.6789,-1.7682,-1.8573,-1.9388,-2.0292,-2.0888,-2.105,-2.1039,-2.0974,-2.0823,-2.1435,-2.2151,-2.2931,-2.33,-2.4099,-2.5325,-2.4636,-2.5338,-2.7874,-2.6514,-2.634,-2.7642,-2.7437,-2.7335,-2.7335,-2.7452,-2.7437]}]]